<?xml version="1.0" encoding="UTF-8" standalone="no" ?>
<gpx xmlns="http://www.topografix.com/GPX/1/1" xmlns:xsi="http://www.w3.org/2001/XMLSchema-instance" xsi:schemaLocation="http://www.topografix.com/GPX/1/1 http://www.topografix.com/GPX/1/1/gpx.xsd" version="1.1" creator="VisuGPX - https://www.visugpx.com">
  <metadata>
    <name>Lieu-dits et pigeonniers - Chars</name>
    <desc><![CDATA[Randonnée de 20 km en boucle à partir de la gare de Chars]]></desc>
  </metadata>
  <trk>
    <name><![CDATA[Lieu-dits et pigeonniers_R]]></name>
    <trkseg>
      <trkpt lat="49.16243" lon="1.93659">
        <ele>66.94</ele>
        <time>2022-09-11T07:03:44Z</time>
      </trkpt>
      <trkpt lat="49.16243" lon="1.93659">
        <ele>66.94</ele>
        <time>2022-09-11T07:03:45Z</time>
      </trkpt>
      <trkpt lat="49.16243" lon="1.93658">
        <ele>51.8</ele>
        <time>2022-09-11T07:03:48Z</time>
      </trkpt>
      <trkpt lat="49.16243" lon="1.93658">
        <ele>51.81</ele>
        <time>2022-09-11T07:03:49Z</time>
      </trkpt>
      <trkpt lat="49.16242" lon="1.93658">
        <ele>52.01</ele>
        <time>2022-09-11T07:04:03Z</time>
      </trkpt>
      <trkpt lat="49.16242" lon="1.93658">
        <ele>52.26</ele>
        <time>2022-09-11T07:04:09Z</time>
      </trkpt>
      <trkpt lat="49.16243" lon="1.93658">
        <ele>51.75</ele>
        <time>2022-09-11T07:04:21Z</time>
      </trkpt>
      <trkpt lat="49.16247" lon="1.93658">
        <ele>51.98</ele>
        <time>2022-09-11T07:04:37Z</time>
      </trkpt>
      <trkpt lat="49.16255" lon="1.93665">
        <ele>51.87</ele>
        <time>2022-09-11T07:04:53Z</time>
      </trkpt>
      <trkpt lat="49.16257" lon="1.93665">
        <ele>51.83</ele>
        <time>2022-09-11T07:05:10Z</time>
      </trkpt>
      <trkpt lat="49.16258" lon="1.93665">
        <ele>52.12</ele>
        <time>2022-09-11T07:05:29Z</time>
      </trkpt>
      <trkpt lat="49.16259" lon="1.93663">
        <ele>52.07</ele>
        <time>2022-09-11T07:05:52Z</time>
      </trkpt>
      <trkpt lat="49.1626" lon="1.93662">
        <ele>52.09</ele>
        <time>2022-09-11T07:06:07Z</time>
      </trkpt>
      <trkpt lat="49.1626" lon="1.93666">
        <ele>51.82</ele>
        <time>2022-09-11T07:06:24Z</time>
      </trkpt>
      <trkpt lat="49.16262" lon="1.93666">
        <ele>52.11</ele>
        <time>2022-09-11T07:06:44Z</time>
      </trkpt>
      <trkpt lat="49.16258" lon="1.93663">
        <ele>52.44</ele>
        <time>2022-09-11T07:06:57Z</time>
      </trkpt>
      <trkpt lat="49.1625" lon="1.9366">
        <ele>52.56</ele>
        <time>2022-09-11T07:07:13Z</time>
      </trkpt>
      <trkpt lat="49.1625" lon="1.93656">
        <ele>52.3</ele>
        <time>2022-09-11T07:07:28Z</time>
      </trkpt>
      <trkpt lat="49.16247" lon="1.93657">
        <ele>52.37</ele>
        <time>2022-09-11T07:07:44Z</time>
      </trkpt>
      <trkpt lat="49.16245" lon="1.93659">
        <ele>52.45</ele>
        <time>2022-09-11T07:07:59Z</time>
      </trkpt>
      <trkpt lat="49.16245" lon="1.93659">
        <ele>52.79</ele>
        <time>2022-09-11T07:08:17Z</time>
      </trkpt>
      <trkpt lat="49.16246" lon="1.93659">
        <ele>52.54</ele>
        <time>2022-09-11T07:08:33Z</time>
      </trkpt>
      <trkpt lat="49.16245" lon="1.93659">
        <ele>51.88</ele>
        <time>2022-09-11T07:08:46Z</time>
      </trkpt>
      <trkpt lat="49.16243" lon="1.9366">
        <ele>52.33</ele>
        <time>2022-09-11T07:09:01Z</time>
      </trkpt>
      <trkpt lat="49.16242" lon="1.93659">
        <ele>52.9</ele>
        <time>2022-09-11T07:09:13Z</time>
      </trkpt>
      <trkpt lat="49.16242" lon="1.93658">
        <ele>53.11</ele>
        <time>2022-09-11T07:09:28Z</time>
      </trkpt>
      <trkpt lat="49.16244" lon="1.93659">
        <ele>52.91</ele>
        <time>2022-09-11T07:09:42Z</time>
      </trkpt>
      <trkpt lat="49.16246" lon="1.93658">
        <ele>52.63</ele>
        <time>2022-09-11T07:10:03Z</time>
      </trkpt>
      <trkpt lat="49.16247" lon="1.93659">
        <ele>53</ele>
        <time>2022-09-11T07:10:23Z</time>
      </trkpt>
      <trkpt lat="49.16246" lon="1.93659">
        <ele>52.65</ele>
        <time>2022-09-11T07:10:40Z</time>
      </trkpt>
      <trkpt lat="49.16246" lon="1.93658">
        <ele>52.48</ele>
        <time>2022-09-11T07:11:00Z</time>
      </trkpt>
      <trkpt lat="49.16246" lon="1.93658">
        <ele>52.4</ele>
        <time>2022-09-11T07:11:18Z</time>
      </trkpt>
      <trkpt lat="49.16246" lon="1.93655">
        <ele>52.59</ele>
        <time>2022-09-11T07:11:37Z</time>
      </trkpt>
      <trkpt lat="49.16247" lon="1.93655">
        <ele>52.49</ele>
        <time>2022-09-11T07:11:56Z</time>
      </trkpt>
      <trkpt lat="49.16246" lon="1.93658">
        <ele>52.89</ele>
        <time>2022-09-11T07:12:16Z</time>
      </trkpt>
      <trkpt lat="49.16244" lon="1.93657">
        <ele>52.66</ele>
        <time>2022-09-11T07:12:35Z</time>
      </trkpt>
      <trkpt lat="49.16242" lon="1.93656">
        <ele>52.62</ele>
        <time>2022-09-11T07:12:55Z</time>
      </trkpt>
      <trkpt lat="49.16242" lon="1.93658">
        <ele>53.06</ele>
        <time>2022-09-11T07:13:16Z</time>
      </trkpt>
      <trkpt lat="49.16242" lon="1.93659">
        <ele>53.06</ele>
        <time>2022-09-11T07:13:35Z</time>
      </trkpt>
      <trkpt lat="49.16243" lon="1.93659">
        <ele>52.78</ele>
        <time>2022-09-11T07:13:55Z</time>
      </trkpt>
      <trkpt lat="49.16243" lon="1.93657">
        <ele>52.91</ele>
        <time>2022-09-11T07:14:15Z</time>
      </trkpt>
      <trkpt lat="49.16244" lon="1.93656">
        <ele>52.79</ele>
        <time>2022-09-11T07:14:33Z</time>
      </trkpt>
      <trkpt lat="49.16243" lon="1.93656">
        <ele>53.29</ele>
        <time>2022-09-11T07:14:54Z</time>
      </trkpt>
      <trkpt lat="49.16243" lon="1.93657">
        <ele>53.36</ele>
        <time>2022-09-11T07:15:15Z</time>
      </trkpt>
      <trkpt lat="49.16243" lon="1.93656">
        <ele>53.49</ele>
        <time>2022-09-11T07:15:38Z</time>
      </trkpt>
      <trkpt lat="49.16244" lon="1.93657">
        <ele>53.57</ele>
        <time>2022-09-11T07:16:02Z</time>
      </trkpt>
      <trkpt lat="49.16245" lon="1.93656">
        <ele>53.54</ele>
        <time>2022-09-11T07:16:22Z</time>
      </trkpt>
      <trkpt lat="49.16244" lon="1.93656">
        <ele>54</ele>
        <time>2022-09-11T07:16:41Z</time>
      </trkpt>
      <trkpt lat="49.16242" lon="1.93655">
        <ele>54.22</ele>
        <time>2022-09-11T07:17:04Z</time>
      </trkpt>
      <trkpt lat="49.16246" lon="1.93657">
        <ele>54.24</ele>
        <time>2022-09-11T07:17:23Z</time>
      </trkpt>
      <trkpt lat="49.16245" lon="1.93657">
        <ele>54.43</ele>
        <time>2022-09-11T07:17:41Z</time>
      </trkpt>
      <trkpt lat="49.16245" lon="1.93656">
        <ele>53.96</ele>
        <time>2022-09-11T07:17:59Z</time>
      </trkpt>
      <trkpt lat="49.16237" lon="1.93649">
        <ele>54.19</ele>
        <time>2022-09-11T07:18:10Z</time>
      </trkpt>
      <trkpt lat="49.16228" lon="1.93649">
        <ele>54.58</ele>
        <time>2022-09-11T07:18:20Z</time>
      </trkpt>
      <trkpt lat="49.16224" lon="1.93648">
        <ele>54.16</ele>
        <time>2022-09-11T07:18:25Z</time>
      </trkpt>
      <trkpt lat="49.16218" lon="1.9365">
        <ele>54.49</ele>
        <time>2022-09-11T07:18:30Z</time>
      </trkpt>
      <trkpt lat="49.16201" lon="1.9365">
        <ele>53.91</ele>
        <time>2022-09-11T07:18:44Z</time>
      </trkpt>
      <trkpt lat="49.16188" lon="1.9365">
        <ele>54.13</ele>
        <time>2022-09-11T07:18:57Z</time>
      </trkpt>
      <trkpt lat="49.16179" lon="1.9365">
        <ele>53.52</ele>
        <time>2022-09-11T07:19:06Z</time>
      </trkpt>
      <trkpt lat="49.16166" lon="1.93648">
        <ele>54.01</ele>
        <time>2022-09-11T07:19:18Z</time>
      </trkpt>
      <trkpt lat="49.16149" lon="1.93641">
        <ele>54.01</ele>
        <time>2022-09-11T07:19:36Z</time>
      </trkpt>
      <trkpt lat="49.16141" lon="1.93634">
        <ele>53.8</ele>
        <time>2022-09-11T07:19:48Z</time>
      </trkpt>
      <trkpt lat="49.16128" lon="1.93625">
        <ele>54.47</ele>
        <time>2022-09-11T07:20:05Z</time>
      </trkpt>
      <trkpt lat="49.16127" lon="1.93623">
        <ele>54.51</ele>
        <time>2022-09-11T07:20:07Z</time>
      </trkpt>
      <trkpt lat="49.16119" lon="1.93617">
        <ele>54.73</ele>
        <time>2022-09-11T07:20:15Z</time>
      </trkpt>
      <trkpt lat="49.1611" lon="1.93617">
        <ele>54.75</ele>
        <time>2022-09-11T07:20:20Z</time>
      </trkpt>
      <trkpt lat="49.16108" lon="1.93615">
        <ele>54.67</ele>
        <time>2022-09-11T07:20:23Z</time>
      </trkpt>
      <trkpt lat="49.16094" lon="1.93604">
        <ele>54.73</ele>
        <time>2022-09-11T07:20:33Z</time>
      </trkpt>
      <trkpt lat="49.16089" lon="1.93601">
        <ele>54.75</ele>
        <time>2022-09-11T07:20:37Z</time>
      </trkpt>
      <trkpt lat="49.16079" lon="1.9359">
        <ele>54.5</ele>
        <time>2022-09-11T07:20:48Z</time>
      </trkpt>
      <trkpt lat="49.16056" lon="1.9357">
        <ele>55.08</ele>
        <time>2022-09-11T07:21:04Z</time>
      </trkpt>
      <trkpt lat="49.16045" lon="1.93548">
        <ele>55.81</ele>
        <time>2022-09-11T07:21:20Z</time>
      </trkpt>
      <trkpt lat="49.16038" lon="1.93529">
        <ele>56.26</ele>
        <time>2022-09-11T07:21:34Z</time>
      </trkpt>
      <trkpt lat="49.16045" lon="1.93505">
        <ele>56.54</ele>
        <time>2022-09-11T07:21:49Z</time>
      </trkpt>
      <trkpt lat="49.16052" lon="1.93488">
        <ele>57.15</ele>
        <time>2022-09-11T07:21:59Z</time>
      </trkpt>
      <trkpt lat="49.16049" lon="1.93473">
        <ele>57.25</ele>
        <time>2022-09-11T07:22:08Z</time>
      </trkpt>
      <trkpt lat="49.16043" lon="1.93465">
        <ele>56.6</ele>
        <time>2022-09-11T07:22:23Z</time>
      </trkpt>
      <trkpt lat="49.16044" lon="1.9346">
        <ele>56.33</ele>
        <time>2022-09-11T07:22:40Z</time>
      </trkpt>
      <trkpt lat="49.16048" lon="1.93439">
        <ele>57.22</ele>
        <time>2022-09-11T07:22:51Z</time>
      </trkpt>
      <trkpt lat="49.16049" lon="1.93433">
        <ele>56.8</ele>
        <time>2022-09-11T07:22:55Z</time>
      </trkpt>
      <trkpt lat="49.16055" lon="1.93421">
        <ele>57.25</ele>
        <time>2022-09-11T07:23:06Z</time>
      </trkpt>
      <trkpt lat="49.16062" lon="1.93391">
        <ele>58.26</ele>
        <time>2022-09-11T07:23:24Z</time>
      </trkpt>
      <trkpt lat="49.16066" lon="1.93379">
        <ele>58.66</ele>
        <time>2022-09-11T07:23:32Z</time>
      </trkpt>
      <trkpt lat="49.16069" lon="1.93366">
        <ele>59.11</ele>
        <time>2022-09-11T07:23:41Z</time>
      </trkpt>
      <trkpt lat="49.16078" lon="1.93345">
        <ele>60.33</ele>
        <time>2022-09-11T07:23:57Z</time>
      </trkpt>
      <trkpt lat="49.16085" lon="1.93328">
        <ele>61.28</ele>
        <time>2022-09-11T07:24:09Z</time>
      </trkpt>
      <trkpt lat="49.16094" lon="1.93302">
        <ele>62.5</ele>
        <time>2022-09-11T07:24:26Z</time>
      </trkpt>
      <trkpt lat="49.16102" lon="1.93284">
        <ele>63.83</ele>
        <time>2022-09-11T07:24:41Z</time>
      </trkpt>
      <trkpt lat="49.16106" lon="1.93267">
        <ele>64.79</ele>
        <time>2022-09-11T07:24:54Z</time>
      </trkpt>
      <trkpt lat="49.16109" lon="1.93258">
        <ele>64.87</ele>
        <time>2022-09-11T07:25:00Z</time>
      </trkpt>
      <trkpt lat="49.1611" lon="1.93255">
        <ele>64.93</ele>
        <time>2022-09-11T07:25:02Z</time>
      </trkpt>
      <trkpt lat="49.16112" lon="1.93246">
        <ele>65.69</ele>
        <time>2022-09-11T07:25:08Z</time>
      </trkpt>
      <trkpt lat="49.16114" lon="1.93236">
        <ele>65.9</ele>
        <time>2022-09-11T07:25:14Z</time>
      </trkpt>
      <trkpt lat="49.16119" lon="1.93222">
        <ele>67.28</ele>
        <time>2022-09-11T07:25:24Z</time>
      </trkpt>
      <trkpt lat="49.16119" lon="1.93221">
        <ele>67.27</ele>
        <time>2022-09-11T07:25:25Z</time>
      </trkpt>
      <trkpt lat="49.16123" lon="1.93208">
        <ele>68.19</ele>
        <time>2022-09-11T07:25:36Z</time>
      </trkpt>
      <trkpt lat="49.16124" lon="1.93205">
        <ele>68.12</ele>
        <time>2022-09-11T07:25:39Z</time>
      </trkpt>
      <trkpt lat="49.1613" lon="1.93188">
        <ele>69.19</ele>
        <time>2022-09-11T07:25:51Z</time>
      </trkpt>
      <trkpt lat="49.16131" lon="1.93182">
        <ele>69.49</ele>
        <time>2022-09-11T07:25:55Z</time>
      </trkpt>
      <trkpt lat="49.16134" lon="1.9317">
        <ele>69.64</ele>
        <time>2022-09-11T07:26:03Z</time>
      </trkpt>
      <trkpt lat="49.16137" lon="1.93161">
        <ele>71.04</ele>
        <time>2022-09-11T07:26:12Z</time>
      </trkpt>
      <trkpt lat="49.16138" lon="1.93158">
        <ele>70.51</ele>
        <time>2022-09-11T07:26:17Z</time>
      </trkpt>
      <trkpt lat="49.16138" lon="1.93147">
        <ele>72.08</ele>
        <time>2022-09-11T07:26:22Z</time>
      </trkpt>
      <trkpt lat="49.1614" lon="1.93124">
        <ele>74.12</ele>
        <time>2022-09-11T07:26:34Z</time>
      </trkpt>
      <trkpt lat="49.16142" lon="1.93116">
        <ele>74.81</ele>
        <time>2022-09-11T07:26:39Z</time>
      </trkpt>
      <trkpt lat="49.16147" lon="1.93098">
        <ele>76.68</ele>
        <time>2022-09-11T07:26:51Z</time>
      </trkpt>
      <trkpt lat="49.16148" lon="1.93093">
        <ele>76.53</ele>
        <time>2022-09-11T07:26:54Z</time>
      </trkpt>
      <trkpt lat="49.16151" lon="1.93083">
        <ele>77.27</ele>
        <time>2022-09-11T07:27:01Z</time>
      </trkpt>
      <trkpt lat="49.16153" lon="1.93065">
        <ele>78.96</ele>
        <time>2022-09-11T07:27:11Z</time>
      </trkpt>
      <trkpt lat="49.16154" lon="1.93057">
        <ele>79.27</ele>
        <time>2022-09-11T07:27:16Z</time>
      </trkpt>
      <trkpt lat="49.16153" lon="1.9305">
        <ele>79.51</ele>
        <time>2022-09-11T07:27:20Z</time>
      </trkpt>
      <trkpt lat="49.1615" lon="1.93035">
        <ele>79.69</ele>
        <time>2022-09-11T07:27:29Z</time>
      </trkpt>
      <trkpt lat="49.16147" lon="1.93023">
        <ele>80.27</ele>
        <time>2022-09-11T07:27:36Z</time>
      </trkpt>
      <trkpt lat="49.16147" lon="1.9302">
        <ele>79.99</ele>
        <time>2022-09-11T07:27:38Z</time>
      </trkpt>
      <trkpt lat="49.16143" lon="1.93">
        <ele>79.78</ele>
        <time>2022-09-11T07:27:50Z</time>
      </trkpt>
      <trkpt lat="49.16143" lon="1.92995">
        <ele>80.39</ele>
        <time>2022-09-11T07:27:53Z</time>
      </trkpt>
      <trkpt lat="49.16139" lon="1.92975">
        <ele>80.73</ele>
        <time>2022-09-11T07:28:05Z</time>
      </trkpt>
      <trkpt lat="49.16135" lon="1.92954">
        <ele>81.16</ele>
        <time>2022-09-11T07:28:16Z</time>
      </trkpt>
      <trkpt lat="49.16134" lon="1.92943">
        <ele>81.49</ele>
        <time>2022-09-11T07:28:22Z</time>
      </trkpt>
      <trkpt lat="49.16131" lon="1.92919">
        <ele>82.08</ele>
        <time>2022-09-11T07:28:37Z</time>
      </trkpt>
      <trkpt lat="49.16128" lon="1.929">
        <ele>81.89</ele>
        <time>2022-09-11T07:28:48Z</time>
      </trkpt>
      <trkpt lat="49.16127" lon="1.92897">
        <ele>81.29</ele>
        <time>2022-09-11T07:28:50Z</time>
      </trkpt>
      <trkpt lat="49.16125" lon="1.92886">
        <ele>81.44</ele>
        <time>2022-09-11T07:28:56Z</time>
      </trkpt>
      <trkpt lat="49.16125" lon="1.92869">
        <ele>80.71</ele>
        <time>2022-09-11T07:29:05Z</time>
      </trkpt>
      <trkpt lat="49.1612" lon="1.92849">
        <ele>80.85</ele>
        <time>2022-09-11T07:29:17Z</time>
      </trkpt>
      <trkpt lat="49.1612" lon="1.92845">
        <ele>80.19</ele>
        <time>2022-09-11T07:29:19Z</time>
      </trkpt>
      <trkpt lat="49.16118" lon="1.92835">
        <ele>80.38</ele>
        <time>2022-09-11T07:29:24Z</time>
      </trkpt>
      <trkpt lat="49.16114" lon="1.9281">
        <ele>79.83</ele>
        <time>2022-09-11T07:29:39Z</time>
      </trkpt>
      <trkpt lat="49.16113" lon="1.92785">
        <ele>78.78</ele>
        <time>2022-09-11T07:29:53Z</time>
      </trkpt>
      <trkpt lat="49.16113" lon="1.92764">
        <ele>78.99</ele>
        <time>2022-09-11T07:30:04Z</time>
      </trkpt>
      <trkpt lat="49.16114" lon="1.92744">
        <ele>78.52</ele>
        <time>2022-09-11T07:30:16Z</time>
      </trkpt>
      <trkpt lat="49.16116" lon="1.92726">
        <ele>79.09</ele>
        <time>2022-09-11T07:30:27Z</time>
      </trkpt>
      <trkpt lat="49.16122" lon="1.92701">
        <ele>79.68</ele>
        <time>2022-09-11T07:30:43Z</time>
      </trkpt>
      <trkpt lat="49.16125" lon="1.92688">
        <ele>80.2</ele>
        <time>2022-09-11T07:30:52Z</time>
      </trkpt>
      <trkpt lat="49.1613" lon="1.92672">
        <ele>80.5</ele>
        <time>2022-09-11T07:31:03Z</time>
      </trkpt>
      <trkpt lat="49.16134" lon="1.92655">
        <ele>81.04</ele>
        <time>2022-09-11T07:31:13Z</time>
      </trkpt>
      <trkpt lat="49.16138" lon="1.92634">
        <ele>81.72</ele>
        <time>2022-09-11T07:31:25Z</time>
      </trkpt>
      <trkpt lat="49.16138" lon="1.92633">
        <ele>81.99</ele>
        <time>2022-09-11T07:31:26Z</time>
      </trkpt>
      <trkpt lat="49.16139" lon="1.92614">
        <ele>82.95</ele>
        <time>2022-09-11T07:31:37Z</time>
      </trkpt>
      <trkpt lat="49.1614" lon="1.92594">
        <ele>83.25</ele>
        <time>2022-09-11T07:31:49Z</time>
      </trkpt>
      <trkpt lat="49.1614" lon="1.92573">
        <ele>82.95</ele>
        <time>2022-09-11T07:32:01Z</time>
      </trkpt>
      <trkpt lat="49.16138" lon="1.92555">
        <ele>83.29</ele>
        <time>2022-09-11T07:32:13Z</time>
      </trkpt>
      <trkpt lat="49.16137" lon="1.92554">
        <ele>82.85</ele>
        <time>2022-09-11T07:32:14Z</time>
      </trkpt>
      <trkpt lat="49.16137" lon="1.92551">
        <ele>82.97</ele>
        <time>2022-09-11T07:32:16Z</time>
      </trkpt>
      <trkpt lat="49.16138" lon="1.9254">
        <ele>82.88</ele>
        <time>2022-09-11T07:32:23Z</time>
      </trkpt>
      <trkpt lat="49.1614" lon="1.92518">
        <ele>83.06</ele>
        <time>2022-09-11T07:32:35Z</time>
      </trkpt>
      <trkpt lat="49.16141" lon="1.92507">
        <ele>82.67</ele>
        <time>2022-09-11T07:32:41Z</time>
      </trkpt>
      <trkpt lat="49.16141" lon="1.92481">
        <ele>83.1</ele>
        <time>2022-09-11T07:32:56Z</time>
      </trkpt>
      <trkpt lat="49.16142" lon="1.92457">
        <ele>83.96</ele>
        <time>2022-09-11T07:33:10Z</time>
      </trkpt>
      <trkpt lat="49.16142" lon="1.92439">
        <ele>83.41</ele>
        <time>2022-09-11T07:33:22Z</time>
      </trkpt>
      <trkpt lat="49.16142" lon="1.92428">
        <ele>83.48</ele>
        <time>2022-09-11T07:33:29Z</time>
      </trkpt>
      <trkpt lat="49.16142" lon="1.92405">
        <ele>84.12</ele>
        <time>2022-09-11T07:33:43Z</time>
      </trkpt>
      <trkpt lat="49.16142" lon="1.92389">
        <ele>84.35</ele>
        <time>2022-09-11T07:33:53Z</time>
      </trkpt>
      <trkpt lat="49.16143" lon="1.92384">
        <ele>83.66</ele>
        <time>2022-09-11T07:33:56Z</time>
      </trkpt>
      <trkpt lat="49.16142" lon="1.92361">
        <ele>84</ele>
        <time>2022-09-11T07:34:11Z</time>
      </trkpt>
      <trkpt lat="49.16142" lon="1.92344">
        <ele>84.52</ele>
        <time>2022-09-11T07:34:22Z</time>
      </trkpt>
      <trkpt lat="49.16142" lon="1.92326">
        <ele>84.34</ele>
        <time>2022-09-11T07:34:33Z</time>
      </trkpt>
      <trkpt lat="49.16143" lon="1.9232">
        <ele>84.26</ele>
        <time>2022-09-11T07:34:37Z</time>
      </trkpt>
      <trkpt lat="49.16142" lon="1.9231">
        <ele>84.44</ele>
        <time>2022-09-11T07:34:43Z</time>
      </trkpt>
      <trkpt lat="49.16142" lon="1.92299">
        <ele>84.41</ele>
        <time>2022-09-11T07:34:50Z</time>
      </trkpt>
      <trkpt lat="49.16142" lon="1.92281">
        <ele>84.79</ele>
        <time>2022-09-11T07:35:00Z</time>
      </trkpt>
      <trkpt lat="49.16142" lon="1.92262">
        <ele>85.08</ele>
        <time>2022-09-11T07:35:13Z</time>
      </trkpt>
      <trkpt lat="49.16142" lon="1.9226">
        <ele>84.81</ele>
        <time>2022-09-11T07:35:14Z</time>
      </trkpt>
      <trkpt lat="49.16142" lon="1.92247">
        <ele>84.57</ele>
        <time>2022-09-11T07:35:22Z</time>
      </trkpt>
      <trkpt lat="49.16143" lon="1.92242">
        <ele>84.92</ele>
        <time>2022-09-11T07:35:25Z</time>
      </trkpt>
      <trkpt lat="49.16144" lon="1.92227">
        <ele>85.29</ele>
        <time>2022-09-11T07:35:35Z</time>
      </trkpt>
      <trkpt lat="49.16145" lon="1.9221">
        <ele>85.5</ele>
        <time>2022-09-11T07:35:45Z</time>
      </trkpt>
      <trkpt lat="49.16145" lon="1.92197">
        <ele>85.75</ele>
        <time>2022-09-11T07:35:55Z</time>
      </trkpt>
      <trkpt lat="49.16147" lon="1.92188">
        <ele>85.9</ele>
        <time>2022-09-11T07:36:06Z</time>
      </trkpt>
      <trkpt lat="49.16146" lon="1.92187">
        <ele>85.87</ele>
        <time>2022-09-11T07:36:13Z</time>
      </trkpt>
      <trkpt lat="49.16147" lon="1.92179">
        <ele>85.79</ele>
        <time>2022-09-11T07:36:17Z</time>
      </trkpt>
      <trkpt lat="49.1615" lon="1.92152">
        <ele>86.71</ele>
        <time>2022-09-11T07:36:30Z</time>
      </trkpt>
      <trkpt lat="49.16151" lon="1.92123">
        <ele>86.86</ele>
        <time>2022-09-11T07:36:46Z</time>
      </trkpt>
      <trkpt lat="49.16151" lon="1.92118">
        <ele>86.94</ele>
        <time>2022-09-11T07:36:49Z</time>
      </trkpt>
      <trkpt lat="49.16152" lon="1.92098">
        <ele>86.96</ele>
        <time>2022-09-11T07:37:00Z</time>
      </trkpt>
      <trkpt lat="49.16154" lon="1.92063">
        <ele>86.66</ele>
        <time>2022-09-11T07:37:17Z</time>
      </trkpt>
      <trkpt lat="49.16156" lon="1.92039">
        <ele>86.72</ele>
        <time>2022-09-11T07:37:29Z</time>
      </trkpt>
      <trkpt lat="49.16159" lon="1.92023">
        <ele>84.65</ele>
        <time>2022-09-11T07:37:37Z</time>
      </trkpt>
      <trkpt lat="49.1616" lon="1.92016">
        <ele>86.27</ele>
        <time>2022-09-11T07:37:41Z</time>
      </trkpt>
      <trkpt lat="49.16168" lon="1.91998">
        <ele>86.3</ele>
        <time>2022-09-11T07:37:52Z</time>
      </trkpt>
      <trkpt lat="49.16172" lon="1.91969">
        <ele>85.83</ele>
        <time>2022-09-11T07:38:08Z</time>
      </trkpt>
      <trkpt lat="49.16167" lon="1.91944">
        <ele>86.3</ele>
        <time>2022-09-11T07:38:20Z</time>
      </trkpt>
      <trkpt lat="49.16163" lon="1.91926">
        <ele>86.68</ele>
        <time>2022-09-11T07:38:31Z</time>
      </trkpt>
      <trkpt lat="49.16162" lon="1.91924">
        <ele>86.12</ele>
        <time>2022-09-11T07:38:32Z</time>
      </trkpt>
      <trkpt lat="49.16152" lon="1.91904">
        <ele>86.79</ele>
        <time>2022-09-11T07:38:44Z</time>
      </trkpt>
      <trkpt lat="49.16152" lon="1.91903">
        <ele>86.61</ele>
        <time>2022-09-11T07:38:45Z</time>
      </trkpt>
      <trkpt lat="49.16146" lon="1.91892">
        <ele>86.84</ele>
        <time>2022-09-11T07:38:52Z</time>
      </trkpt>
      <trkpt lat="49.16147" lon="1.91886">
        <ele>87.05</ele>
        <time>2022-09-11T07:39:02Z</time>
      </trkpt>
      <trkpt lat="49.16149" lon="1.91887">
        <ele>87.14</ele>
        <time>2022-09-11T07:39:15Z</time>
      </trkpt>
      <trkpt lat="49.16145" lon="1.91881">
        <ele>87.19</ele>
        <time>2022-09-11T07:39:26Z</time>
      </trkpt>
      <trkpt lat="49.16146" lon="1.91881">
        <ele>86.88</ele>
        <time>2022-09-11T07:39:28Z</time>
      </trkpt>
      <trkpt lat="49.16147" lon="1.91878">
        <ele>87.01</ele>
        <time>2022-09-11T07:39:31Z</time>
      </trkpt>
      <trkpt lat="49.16147" lon="1.91865">
        <ele>87.24</ele>
        <time>2022-09-11T07:39:38Z</time>
      </trkpt>
      <trkpt lat="49.16151" lon="1.9184">
        <ele>87.79</ele>
        <time>2022-09-11T07:39:51Z</time>
      </trkpt>
      <trkpt lat="49.16153" lon="1.91827">
        <ele>87.96</ele>
        <time>2022-09-11T07:40:02Z</time>
      </trkpt>
      <trkpt lat="49.16153" lon="1.91824">
        <ele>88.56</ele>
        <time>2022-09-11T07:40:04Z</time>
      </trkpt>
      <trkpt lat="49.16153" lon="1.91819">
        <ele>88.3</ele>
        <time>2022-09-11T07:40:07Z</time>
      </trkpt>
      <trkpt lat="49.16155" lon="1.91805">
        <ele>88.36</ele>
        <time>2022-09-11T07:40:15Z</time>
      </trkpt>
      <trkpt lat="49.16158" lon="1.91799">
        <ele>88.38</ele>
        <time>2022-09-11T07:40:20Z</time>
      </trkpt>
      <trkpt lat="49.16159" lon="1.91794">
        <ele>88.28</ele>
        <time>2022-09-11T07:40:23Z</time>
      </trkpt>
      <trkpt lat="49.16161" lon="1.91786">
        <ele>88.39</ele>
        <time>2022-09-11T07:40:28Z</time>
      </trkpt>
      <trkpt lat="49.16163" lon="1.91782">
        <ele>89.3</ele>
        <time>2022-09-11T07:40:31Z</time>
      </trkpt>
      <trkpt lat="49.16169" lon="1.91764">
        <ele>89.19</ele>
        <time>2022-09-11T07:40:42Z</time>
      </trkpt>
      <trkpt lat="49.16174" lon="1.91752">
        <ele>89.12</ele>
        <time>2022-09-11T07:40:51Z</time>
      </trkpt>
      <trkpt lat="49.16179" lon="1.9174">
        <ele>89.94</ele>
        <time>2022-09-11T07:40:59Z</time>
      </trkpt>
      <trkpt lat="49.16181" lon="1.91737">
        <ele>89.86</ele>
        <time>2022-09-11T07:41:01Z</time>
      </trkpt>
      <trkpt lat="49.16188" lon="1.9172">
        <ele>89.83</ele>
        <time>2022-09-11T07:41:13Z</time>
      </trkpt>
      <trkpt lat="49.16194" lon="1.91706">
        <ele>90.36</ele>
        <time>2022-09-11T07:41:23Z</time>
      </trkpt>
      <trkpt lat="49.16196" lon="1.91704">
        <ele>89.79</ele>
        <time>2022-09-11T07:41:25Z</time>
      </trkpt>
      <trkpt lat="49.16197" lon="1.91701">
        <ele>90.37</ele>
        <time>2022-09-11T07:41:27Z</time>
      </trkpt>
      <trkpt lat="49.16201" lon="1.91691">
        <ele>90.19</ele>
        <time>2022-09-11T07:41:38Z</time>
      </trkpt>
      <trkpt lat="49.16202" lon="1.91689">
        <ele>90.02</ele>
        <time>2022-09-11T07:41:48Z</time>
      </trkpt>
      <trkpt lat="49.16206" lon="1.91681">
        <ele>90.28</ele>
        <time>2022-09-11T07:41:54Z</time>
      </trkpt>
      <trkpt lat="49.16208" lon="1.91678">
        <ele>89.87</ele>
        <time>2022-09-11T07:41:57Z</time>
      </trkpt>
      <trkpt lat="49.16211" lon="1.91672">
        <ele>90.36</ele>
        <time>2022-09-11T07:42:02Z</time>
      </trkpt>
      <trkpt lat="49.16215" lon="1.91664">
        <ele>90.41</ele>
        <time>2022-09-11T07:42:07Z</time>
      </trkpt>
      <trkpt lat="49.16222" lon="1.91647">
        <ele>91.12</ele>
        <time>2022-09-11T07:42:19Z</time>
      </trkpt>
      <trkpt lat="49.16226" lon="1.91642">
        <ele>90.9</ele>
        <time>2022-09-11T07:42:23Z</time>
      </trkpt>
      <trkpt lat="49.16234" lon="1.91622">
        <ele>91.22</ele>
        <time>2022-09-11T07:42:37Z</time>
      </trkpt>
      <trkpt lat="49.16235" lon="1.91621">
        <ele>91.92</ele>
        <time>2022-09-11T07:42:38Z</time>
      </trkpt>
      <trkpt lat="49.16237" lon="1.91614">
        <ele>91.25</ele>
        <time>2022-09-11T07:42:43Z</time>
      </trkpt>
      <trkpt lat="49.16245" lon="1.91596">
        <ele>91.37</ele>
        <time>2022-09-11T07:42:55Z</time>
      </trkpt>
      <trkpt lat="49.16253" lon="1.91577">
        <ele>91.74</ele>
        <time>2022-09-11T07:43:07Z</time>
      </trkpt>
      <trkpt lat="49.16257" lon="1.91562">
        <ele>91.65</ele>
        <time>2022-09-11T07:43:16Z</time>
      </trkpt>
      <trkpt lat="49.16258" lon="1.91554">
        <ele>92.04</ele>
        <time>2022-09-11T07:43:21Z</time>
      </trkpt>
      <trkpt lat="49.16262" lon="1.91532">
        <ele>92.04</ele>
        <time>2022-09-11T07:43:33Z</time>
      </trkpt>
      <trkpt lat="49.16266" lon="1.91511">
        <ele>92.7</ele>
        <time>2022-09-11T07:43:46Z</time>
      </trkpt>
      <trkpt lat="49.16268" lon="1.91491">
        <ele>92.66</ele>
        <time>2022-09-11T07:43:58Z</time>
      </trkpt>
      <trkpt lat="49.1627" lon="1.9147">
        <ele>92.93</ele>
        <time>2022-09-11T07:44:10Z</time>
      </trkpt>
      <trkpt lat="49.16272" lon="1.91444">
        <ele>93.05</ele>
        <time>2022-09-11T07:44:24Z</time>
      </trkpt>
      <trkpt lat="49.16274" lon="1.91423">
        <ele>93.5</ele>
        <time>2022-09-11T07:44:36Z</time>
      </trkpt>
      <trkpt lat="49.16277" lon="1.91401">
        <ele>94.13</ele>
        <time>2022-09-11T07:44:48Z</time>
      </trkpt>
      <trkpt lat="49.16279" lon="1.91384">
        <ele>94.09</ele>
        <time>2022-09-11T07:44:58Z</time>
      </trkpt>
      <trkpt lat="49.16281" lon="1.91366">
        <ele>93.71</ele>
        <time>2022-09-11T07:45:09Z</time>
      </trkpt>
      <trkpt lat="49.16282" lon="1.91354">
        <ele>93.7</ele>
        <time>2022-09-11T07:45:16Z</time>
      </trkpt>
      <trkpt lat="49.16284" lon="1.91346">
        <ele>93.87</ele>
        <time>2022-09-11T07:45:21Z</time>
      </trkpt>
      <trkpt lat="49.16285" lon="1.91337">
        <ele>93.89</ele>
        <time>2022-09-11T07:45:26Z</time>
      </trkpt>
      <trkpt lat="49.16288" lon="1.91325">
        <ele>93.84</ele>
        <time>2022-09-11T07:45:33Z</time>
      </trkpt>
      <trkpt lat="49.16293" lon="1.91303">
        <ele>93.88</ele>
        <time>2022-09-11T07:45:46Z</time>
      </trkpt>
      <trkpt lat="49.16296" lon="1.91293">
        <ele>94.06</ele>
        <time>2022-09-11T07:45:53Z</time>
      </trkpt>
      <trkpt lat="49.163" lon="1.91274">
        <ele>93.91</ele>
        <time>2022-09-11T07:46:05Z</time>
      </trkpt>
      <trkpt lat="49.16302" lon="1.91267">
        <ele>94.34</ele>
        <time>2022-09-11T07:46:10Z</time>
      </trkpt>
      <trkpt lat="49.16304" lon="1.91264">
        <ele>93.87</ele>
        <time>2022-09-11T07:46:13Z</time>
      </trkpt>
      <trkpt lat="49.16306" lon="1.91256">
        <ele>94.58</ele>
        <time>2022-09-11T07:46:17Z</time>
      </trkpt>
      <trkpt lat="49.16312" lon="1.91234">
        <ele>94.77</ele>
        <time>2022-09-11T07:46:30Z</time>
      </trkpt>
      <trkpt lat="49.16312" lon="1.91227">
        <ele>93.84</ele>
        <time>2022-09-11T07:46:34Z</time>
      </trkpt>
      <trkpt lat="49.16318" lon="1.91205">
        <ele>94.15</ele>
        <time>2022-09-11T07:46:48Z</time>
      </trkpt>
      <trkpt lat="49.16324" lon="1.91185">
        <ele>93.77</ele>
        <time>2022-09-11T07:47:01Z</time>
      </trkpt>
      <trkpt lat="49.16329" lon="1.91159">
        <ele>93.45</ele>
        <time>2022-09-11T07:47:16Z</time>
      </trkpt>
      <trkpt lat="49.16333" lon="1.91138">
        <ele>93.29</ele>
        <time>2022-09-11T07:47:29Z</time>
      </trkpt>
      <trkpt lat="49.16336" lon="1.91121">
        <ele>93.62</ele>
        <time>2022-09-11T07:47:39Z</time>
      </trkpt>
      <trkpt lat="49.16339" lon="1.91102">
        <ele>93.65</ele>
        <time>2022-09-11T07:47:52Z</time>
      </trkpt>
      <trkpt lat="49.16339" lon="1.911">
        <ele>93.32</ele>
        <time>2022-09-11T07:47:53Z</time>
      </trkpt>
      <trkpt lat="49.16344" lon="1.91075">
        <ele>92.79</ele>
        <time>2022-09-11T07:48:07Z</time>
      </trkpt>
      <trkpt lat="49.16344" lon="1.91069">
        <ele>93.24</ele>
        <time>2022-09-11T07:48:11Z</time>
      </trkpt>
      <trkpt lat="49.16344" lon="1.91065">
        <ele>92.49</ele>
        <time>2022-09-11T07:48:13Z</time>
      </trkpt>
      <trkpt lat="49.16348" lon="1.91046">
        <ele>92.56</ele>
        <time>2022-09-11T07:48:24Z</time>
      </trkpt>
      <trkpt lat="49.16352" lon="1.91025">
        <ele>92.8</ele>
        <time>2022-09-11T07:48:36Z</time>
      </trkpt>
      <trkpt lat="49.16353" lon="1.91013">
        <ele>92.9</ele>
        <time>2022-09-11T07:48:43Z</time>
      </trkpt>
      <trkpt lat="49.16356" lon="1.91002">
        <ele>93.29</ele>
        <time>2022-09-11T07:48:49Z</time>
      </trkpt>
      <trkpt lat="49.16361" lon="1.90975">
        <ele>93.23</ele>
        <time>2022-09-11T07:49:05Z</time>
      </trkpt>
      <trkpt lat="49.16365" lon="1.90955">
        <ele>93.09</ele>
        <time>2022-09-11T07:49:17Z</time>
      </trkpt>
      <trkpt lat="49.16367" lon="1.90941">
        <ele>95.88</ele>
        <time>2022-09-11T07:49:26Z</time>
      </trkpt>
      <trkpt lat="49.16368" lon="1.90936">
        <ele>92.96</ele>
        <time>2022-09-11T07:49:31Z</time>
      </trkpt>
      <trkpt lat="49.16367" lon="1.90935">
        <ele>93.05</ele>
        <time>2022-09-11T07:49:56Z</time>
      </trkpt>
      <trkpt lat="49.16369" lon="1.90934">
        <ele>93.37</ele>
        <time>2022-09-11T07:50:10Z</time>
      </trkpt>
      <trkpt lat="49.16371" lon="1.9092">
        <ele>93.11</ele>
        <time>2022-09-11T07:50:18Z</time>
      </trkpt>
      <trkpt lat="49.16373" lon="1.90914">
        <ele>92.96</ele>
        <time>2022-09-11T07:50:23Z</time>
      </trkpt>
      <trkpt lat="49.16376" lon="1.909">
        <ele>92.82</ele>
        <time>2022-09-11T07:50:35Z</time>
      </trkpt>
      <trkpt lat="49.16378" lon="1.90895">
        <ele>92.98</ele>
        <time>2022-09-11T07:50:39Z</time>
      </trkpt>
      <trkpt lat="49.16383" lon="1.90881">
        <ele>92.97</ele>
        <time>2022-09-11T07:50:50Z</time>
      </trkpt>
      <trkpt lat="49.16383" lon="1.90879">
        <ele>92.84</ele>
        <time>2022-09-11T07:50:51Z</time>
      </trkpt>
      <trkpt lat="49.16385" lon="1.90873">
        <ele>92.47</ele>
        <time>2022-09-11T07:50:55Z</time>
      </trkpt>
      <trkpt lat="49.16387" lon="1.90866">
        <ele>92.97</ele>
        <time>2022-09-11T07:51:00Z</time>
      </trkpt>
      <trkpt lat="49.16388" lon="1.90863">
        <ele>93.12</ele>
        <time>2022-09-11T07:51:02Z</time>
      </trkpt>
      <trkpt lat="49.16391" lon="1.90851">
        <ele>92.88</ele>
        <time>2022-09-11T07:51:10Z</time>
      </trkpt>
      <trkpt lat="49.16398" lon="1.9083">
        <ele>92.79</ele>
        <time>2022-09-11T07:51:23Z</time>
      </trkpt>
      <trkpt lat="49.16405" lon="1.90807">
        <ele>92.99</ele>
        <time>2022-09-11T07:51:38Z</time>
      </trkpt>
      <trkpt lat="49.16411" lon="1.9079">
        <ele>93.01</ele>
        <time>2022-09-11T07:51:49Z</time>
      </trkpt>
      <trkpt lat="49.16416" lon="1.90777">
        <ele>93.31</ele>
        <time>2022-09-11T07:51:59Z</time>
      </trkpt>
      <trkpt lat="49.16417" lon="1.90775">
        <ele>93.56</ele>
        <time>2022-09-11T07:52:00Z</time>
      </trkpt>
      <trkpt lat="49.16417" lon="1.90772">
        <ele>93.46</ele>
        <time>2022-09-11T07:52:02Z</time>
      </trkpt>
      <trkpt lat="49.16421" lon="1.90756">
        <ele>92.81</ele>
        <time>2022-09-11T07:52:12Z</time>
      </trkpt>
      <trkpt lat="49.16424" lon="1.9075">
        <ele>92.81</ele>
        <time>2022-09-11T07:52:16Z</time>
      </trkpt>
      <trkpt lat="49.16427" lon="1.90737">
        <ele>93.2</ele>
        <time>2022-09-11T07:52:24Z</time>
      </trkpt>
      <trkpt lat="49.16429" lon="1.90727">
        <ele>93.2</ele>
        <time>2022-09-11T07:52:30Z</time>
      </trkpt>
      <trkpt lat="49.16435" lon="1.90705">
        <ele>93.61</ele>
        <time>2022-09-11T07:52:44Z</time>
      </trkpt>
      <trkpt lat="49.16438" lon="1.90684">
        <ele>93</ele>
        <time>2022-09-11T07:52:57Z</time>
      </trkpt>
      <trkpt lat="49.16439" lon="1.90675">
        <ele>93.79</ele>
        <time>2022-09-11T07:53:02Z</time>
      </trkpt>
      <trkpt lat="49.16439" lon="1.90653">
        <ele>93.77</ele>
        <time>2022-09-11T07:53:15Z</time>
      </trkpt>
      <trkpt lat="49.16442" lon="1.90642">
        <ele>93.43</ele>
        <time>2022-09-11T07:53:26Z</time>
      </trkpt>
      <trkpt lat="49.16442" lon="1.90641">
        <ele>93.57</ele>
        <time>2022-09-11T07:53:27Z</time>
      </trkpt>
      <trkpt lat="49.16442" lon="1.90613">
        <ele>94.04</ele>
        <time>2022-09-11T07:53:42Z</time>
      </trkpt>
      <trkpt lat="49.16439" lon="1.90593">
        <ele>94.22</ele>
        <time>2022-09-11T07:53:54Z</time>
      </trkpt>
      <trkpt lat="49.16437" lon="1.9057">
        <ele>95.05</ele>
        <time>2022-09-11T07:54:06Z</time>
      </trkpt>
      <trkpt lat="49.16437" lon="1.90559">
        <ele>94.5</ele>
        <time>2022-09-11T07:54:12Z</time>
      </trkpt>
      <trkpt lat="49.16437" lon="1.90554">
        <ele>94.65</ele>
        <time>2022-09-11T07:54:15Z</time>
      </trkpt>
      <trkpt lat="49.16435" lon="1.90536">
        <ele>94.48</ele>
        <time>2022-09-11T07:54:25Z</time>
      </trkpt>
      <trkpt lat="49.16431" lon="1.90513">
        <ele>94.5</ele>
        <time>2022-09-11T07:54:38Z</time>
      </trkpt>
      <trkpt lat="49.16426" lon="1.90487">
        <ele>95.19</ele>
        <time>2022-09-11T07:54:53Z</time>
      </trkpt>
      <trkpt lat="49.16425" lon="1.90472">
        <ele>94.39</ele>
        <time>2022-09-11T07:55:02Z</time>
      </trkpt>
      <trkpt lat="49.16423" lon="1.90457">
        <ele>95.31</ele>
        <time>2022-09-11T07:55:10Z</time>
      </trkpt>
      <trkpt lat="49.16423" lon="1.90439">
        <ele>95.5</ele>
        <time>2022-09-11T07:55:20Z</time>
      </trkpt>
      <trkpt lat="49.16424" lon="1.90415">
        <ele>95.69</ele>
        <time>2022-09-11T07:55:33Z</time>
      </trkpt>
      <trkpt lat="49.16425" lon="1.90403">
        <ele>95.45</ele>
        <time>2022-09-11T07:55:40Z</time>
      </trkpt>
      <trkpt lat="49.16426" lon="1.9038">
        <ele>95.91</ele>
        <time>2022-09-11T07:55:55Z</time>
      </trkpt>
      <trkpt lat="49.16426" lon="1.90375">
        <ele>96.12</ele>
        <time>2022-09-11T07:55:58Z</time>
      </trkpt>
      <trkpt lat="49.16427" lon="1.90365">
        <ele>95.63</ele>
        <time>2022-09-11T07:56:04Z</time>
      </trkpt>
      <trkpt lat="49.16427" lon="1.90342">
        <ele>96.16</ele>
        <time>2022-09-11T07:56:16Z</time>
      </trkpt>
      <trkpt lat="49.16427" lon="1.90341">
        <ele>96.16</ele>
        <time>2022-09-11T07:56:17Z</time>
      </trkpt>
      <trkpt lat="49.16426" lon="1.90327">
        <ele>96.16</ele>
        <time>2022-09-11T07:56:25Z</time>
      </trkpt>
      <trkpt lat="49.16422" lon="1.90302">
        <ele>95.81</ele>
        <time>2022-09-11T07:56:40Z</time>
      </trkpt>
      <trkpt lat="49.1642" lon="1.90283">
        <ele>96.35</ele>
        <time>2022-09-11T07:56:51Z</time>
      </trkpt>
      <trkpt lat="49.16417" lon="1.9026">
        <ele>96.72</ele>
        <time>2022-09-11T07:57:04Z</time>
      </trkpt>
      <trkpt lat="49.16414" lon="1.90236">
        <ele>96.7</ele>
        <time>2022-09-11T07:57:18Z</time>
      </trkpt>
      <trkpt lat="49.1641" lon="1.90216">
        <ele>96.97</ele>
        <time>2022-09-11T07:57:31Z</time>
      </trkpt>
      <trkpt lat="49.16411" lon="1.90212">
        <ele>96.97</ele>
        <time>2022-09-11T07:57:35Z</time>
      </trkpt>
      <trkpt lat="49.1641" lon="1.90202">
        <ele>97.24</ele>
        <time>2022-09-11T07:57:40Z</time>
      </trkpt>
      <trkpt lat="49.16409" lon="1.90189">
        <ele>96.83</ele>
        <time>2022-09-11T07:57:48Z</time>
      </trkpt>
      <trkpt lat="49.16406" lon="1.9016">
        <ele>97.66</ele>
        <time>2022-09-11T07:58:03Z</time>
      </trkpt>
      <trkpt lat="49.16403" lon="1.90138">
        <ele>97.22</ele>
        <time>2022-09-11T07:58:15Z</time>
      </trkpt>
      <trkpt lat="49.16402" lon="1.90116">
        <ele>97.84</ele>
        <time>2022-09-11T07:58:27Z</time>
      </trkpt>
      <trkpt lat="49.16402" lon="1.90098">
        <ele>98.43</ele>
        <time>2022-09-11T07:58:37Z</time>
      </trkpt>
      <trkpt lat="49.16399" lon="1.90069">
        <ele>98.09</ele>
        <time>2022-09-11T07:58:52Z</time>
      </trkpt>
      <trkpt lat="49.16398" lon="1.90051">
        <ele>98.04</ele>
        <time>2022-09-11T07:59:03Z</time>
      </trkpt>
      <trkpt lat="49.16398" lon="1.90031">
        <ele>98.53</ele>
        <time>2022-09-11T07:59:15Z</time>
      </trkpt>
      <trkpt lat="49.16398" lon="1.90007">
        <ele>98.6</ele>
        <time>2022-09-11T07:59:28Z</time>
      </trkpt>
      <trkpt lat="49.16399" lon="1.89991">
        <ele>98.32</ele>
        <time>2022-09-11T07:59:37Z</time>
      </trkpt>
      <trkpt lat="49.16398" lon="1.89968">
        <ele>98.49</ele>
        <time>2022-09-11T07:59:49Z</time>
      </trkpt>
      <trkpt lat="49.16399" lon="1.89942">
        <ele>98.78</ele>
        <time>2022-09-11T08:00:03Z</time>
      </trkpt>
      <trkpt lat="49.16399" lon="1.89918">
        <ele>98.91</ele>
        <time>2022-09-11T08:00:16Z</time>
      </trkpt>
      <trkpt lat="49.16399" lon="1.89899">
        <ele>99.01</ele>
        <time>2022-09-11T08:00:26Z</time>
      </trkpt>
      <trkpt lat="49.16398" lon="1.8988">
        <ele>99.62</ele>
        <time>2022-09-11T08:00:37Z</time>
      </trkpt>
      <trkpt lat="49.16398" lon="1.89876">
        <ele>99.28</ele>
        <time>2022-09-11T08:00:40Z</time>
      </trkpt>
      <trkpt lat="49.16398" lon="1.89867">
        <ele>99.01</ele>
        <time>2022-09-11T08:00:45Z</time>
      </trkpt>
      <trkpt lat="49.16397" lon="1.89844">
        <ele>99.09</ele>
        <time>2022-09-11T08:00:59Z</time>
      </trkpt>
      <trkpt lat="49.16397" lon="1.89826">
        <ele>98.88</ele>
        <time>2022-09-11T08:01:09Z</time>
      </trkpt>
      <trkpt lat="49.16396" lon="1.89801">
        <ele>99.09</ele>
        <time>2022-09-11T08:01:23Z</time>
      </trkpt>
      <trkpt lat="49.16395" lon="1.89777">
        <ele>99.45</ele>
        <time>2022-09-11T08:01:36Z</time>
      </trkpt>
      <trkpt lat="49.16395" lon="1.89768">
        <ele>99.72</ele>
        <time>2022-09-11T08:01:41Z</time>
      </trkpt>
      <trkpt lat="49.16395" lon="1.89756">
        <ele>99.65</ele>
        <time>2022-09-11T08:01:47Z</time>
      </trkpt>
      <trkpt lat="49.16393" lon="1.89735">
        <ele>99.97</ele>
        <time>2022-09-11T08:01:59Z</time>
      </trkpt>
      <trkpt lat="49.16392" lon="1.89714">
        <ele>100.1</ele>
        <time>2022-09-11T08:02:10Z</time>
      </trkpt>
      <trkpt lat="49.16391" lon="1.89693">
        <ele>99.71</ele>
        <time>2022-09-11T08:02:23Z</time>
      </trkpt>
      <trkpt lat="49.1639" lon="1.89665">
        <ele>99.56</ele>
        <time>2022-09-11T08:02:38Z</time>
      </trkpt>
      <trkpt lat="49.16389" lon="1.89642">
        <ele>100.09</ele>
        <time>2022-09-11T08:02:55Z</time>
      </trkpt>
      <trkpt lat="49.1639" lon="1.89646">
        <ele>100.39</ele>
        <time>2022-09-11T08:03:17Z</time>
      </trkpt>
      <trkpt lat="49.1639" lon="1.89639">
        <ele>100.29</ele>
        <time>2022-09-11T08:03:24Z</time>
      </trkpt>
      <trkpt lat="49.16389" lon="1.89618">
        <ele>100.6</ele>
        <time>2022-09-11T08:03:37Z</time>
      </trkpt>
      <trkpt lat="49.16387" lon="1.89589">
        <ele>101.2</ele>
        <time>2022-09-11T08:03:52Z</time>
      </trkpt>
      <trkpt lat="49.16385" lon="1.8957">
        <ele>101.32</ele>
        <time>2022-09-11T08:04:03Z</time>
      </trkpt>
      <trkpt lat="49.16384" lon="1.89566">
        <ele>100.83</ele>
        <time>2022-09-11T08:04:06Z</time>
      </trkpt>
      <trkpt lat="49.16381" lon="1.89544">
        <ele>101.38</ele>
        <time>2022-09-11T08:04:19Z</time>
      </trkpt>
      <trkpt lat="49.16379" lon="1.8952">
        <ele>101.88</ele>
        <time>2022-09-11T08:04:33Z</time>
      </trkpt>
      <trkpt lat="49.16376" lon="1.89496">
        <ele>102.2</ele>
        <time>2022-09-11T08:04:46Z</time>
      </trkpt>
      <trkpt lat="49.16375" lon="1.89478">
        <ele>102.78</ele>
        <time>2022-09-11T08:04:59Z</time>
      </trkpt>
      <trkpt lat="49.16372" lon="1.89472">
        <ele>102.55</ele>
        <time>2022-09-11T08:05:14Z</time>
      </trkpt>
      <trkpt lat="49.16372" lon="1.89458">
        <ele>103.28</ele>
        <time>2022-09-11T08:05:25Z</time>
      </trkpt>
      <trkpt lat="49.16371" lon="1.89448">
        <ele>103.19</ele>
        <time>2022-09-11T08:05:38Z</time>
      </trkpt>
      <trkpt lat="49.1637" lon="1.89438">
        <ele>103.19</ele>
        <time>2022-09-11T08:05:45Z</time>
      </trkpt>
      <trkpt lat="49.1637" lon="1.89433">
        <ele>103.59</ele>
        <time>2022-09-11T08:05:48Z</time>
      </trkpt>
      <trkpt lat="49.16369" lon="1.89424">
        <ele>103.4</ele>
        <time>2022-09-11T08:05:54Z</time>
      </trkpt>
      <trkpt lat="49.16367" lon="1.89415">
        <ele>103.25</ele>
        <time>2022-09-11T08:06:06Z</time>
      </trkpt>
      <trkpt lat="49.16367" lon="1.89417">
        <ele>104.09</ele>
        <time>2022-09-11T08:06:21Z</time>
      </trkpt>
      <trkpt lat="49.16367" lon="1.8942">
        <ele>103.8</ele>
        <time>2022-09-11T08:06:38Z</time>
      </trkpt>
      <trkpt lat="49.16367" lon="1.89421">
        <ele>103.83</ele>
        <time>2022-09-11T08:06:51Z</time>
      </trkpt>
      <trkpt lat="49.16367" lon="1.89422">
        <ele>104.01</ele>
        <time>2022-09-11T08:07:12Z</time>
      </trkpt>
      <trkpt lat="49.16367" lon="1.89423">
        <ele>103.94</ele>
        <time>2022-09-11T08:07:36Z</time>
      </trkpt>
      <trkpt lat="49.16367" lon="1.89425">
        <ele>103.6</ele>
        <time>2022-09-11T08:07:54Z</time>
      </trkpt>
      <trkpt lat="49.16367" lon="1.89424">
        <ele>103.71</ele>
        <time>2022-09-11T08:08:18Z</time>
      </trkpt>
      <trkpt lat="49.16367" lon="1.89424">
        <ele>104.15</ele>
        <time>2022-09-11T08:08:40Z</time>
      </trkpt>
      <trkpt lat="49.16367" lon="1.89425">
        <ele>103.48</ele>
        <time>2022-09-11T08:08:59Z</time>
      </trkpt>
      <trkpt lat="49.16367" lon="1.89425">
        <ele>103.71</ele>
        <time>2022-09-11T08:09:22Z</time>
      </trkpt>
      <trkpt lat="49.16366" lon="1.89426">
        <ele>103.88</ele>
        <time>2022-09-11T08:09:41Z</time>
      </trkpt>
      <trkpt lat="49.16365" lon="1.89426">
        <ele>103.77</ele>
        <time>2022-09-11T08:10:01Z</time>
      </trkpt>
      <trkpt lat="49.16366" lon="1.89424">
        <ele>103.68</ele>
        <time>2022-09-11T08:10:17Z</time>
      </trkpt>
      <trkpt lat="49.16366" lon="1.89422">
        <ele>103.68</ele>
        <time>2022-09-11T08:10:35Z</time>
      </trkpt>
      <trkpt lat="49.16365" lon="1.89422">
        <ele>104.13</ele>
        <time>2022-09-11T08:10:48Z</time>
      </trkpt>
      <trkpt lat="49.16365" lon="1.89422">
        <ele>103.73</ele>
        <time>2022-09-11T08:11:04Z</time>
      </trkpt>
      <trkpt lat="49.16365" lon="1.89422">
        <ele>104.05</ele>
        <time>2022-09-11T08:11:21Z</time>
      </trkpt>
      <trkpt lat="49.16365" lon="1.89421">
        <ele>103.82</ele>
        <time>2022-09-11T08:11:45Z</time>
      </trkpt>
      <trkpt lat="49.16364" lon="1.89413">
        <ele>103.99</ele>
        <time>2022-09-11T08:12:03Z</time>
      </trkpt>
      <trkpt lat="49.16365" lon="1.89408">
        <ele>103.38</ele>
        <time>2022-09-11T08:12:15Z</time>
      </trkpt>
      <trkpt lat="49.16366" lon="1.8941">
        <ele>103.7</ele>
        <time>2022-09-11T08:12:28Z</time>
      </trkpt>
      <trkpt lat="49.16367" lon="1.89414">
        <ele>103.41</ele>
        <time>2022-09-11T08:12:45Z</time>
      </trkpt>
      <trkpt lat="49.16369" lon="1.89415">
        <ele>103.16</ele>
        <time>2022-09-11T08:13:03Z</time>
      </trkpt>
      <trkpt lat="49.16369" lon="1.89413">
        <ele>103.63</ele>
        <time>2022-09-11T08:13:27Z</time>
      </trkpt>
      <trkpt lat="49.16369" lon="1.89409">
        <ele>103.66</ele>
        <time>2022-09-11T08:13:30Z</time>
      </trkpt>
      <trkpt lat="49.16368" lon="1.89405">
        <ele>103.81</ele>
        <time>2022-09-11T08:13:32Z</time>
      </trkpt>
      <trkpt lat="49.16366" lon="1.89385">
        <ele>103.61</ele>
        <time>2022-09-11T08:13:43Z</time>
      </trkpt>
      <trkpt lat="49.16363" lon="1.89364">
        <ele>104.71</ele>
        <time>2022-09-11T08:13:55Z</time>
      </trkpt>
      <trkpt lat="49.16363" lon="1.89346">
        <ele>104.92</ele>
        <time>2022-09-11T08:14:05Z</time>
      </trkpt>
      <trkpt lat="49.16361" lon="1.89324">
        <ele>105.48</ele>
        <time>2022-09-11T08:14:18Z</time>
      </trkpt>
      <trkpt lat="49.16359" lon="1.89311">
        <ele>106.23</ele>
        <time>2022-09-11T08:14:26Z</time>
      </trkpt>
      <trkpt lat="49.16358" lon="1.89293">
        <ele>106.26</ele>
        <time>2022-09-11T08:14:40Z</time>
      </trkpt>
      <trkpt lat="49.16356" lon="1.89279">
        <ele>106.33</ele>
        <time>2022-09-11T08:14:51Z</time>
      </trkpt>
      <trkpt lat="49.16352" lon="1.89253">
        <ele>106.92</ele>
        <time>2022-09-11T08:15:04Z</time>
      </trkpt>
      <trkpt lat="49.16351" lon="1.89242">
        <ele>107.13</ele>
        <time>2022-09-11T08:15:10Z</time>
      </trkpt>
      <trkpt lat="49.16351" lon="1.89235">
        <ele>106.93</ele>
        <time>2022-09-11T08:15:14Z</time>
      </trkpt>
      <trkpt lat="49.1635" lon="1.89228">
        <ele>107.1</ele>
        <time>2022-09-11T08:15:18Z</time>
      </trkpt>
      <trkpt lat="49.16346" lon="1.89201">
        <ele>107.54</ele>
        <time>2022-09-11T08:15:32Z</time>
      </trkpt>
      <trkpt lat="49.16343" lon="1.89177">
        <ele>108.24</ele>
        <time>2022-09-11T08:15:45Z</time>
      </trkpt>
      <trkpt lat="49.16338" lon="1.89157">
        <ele>108.26</ele>
        <time>2022-09-11T08:15:57Z</time>
      </trkpt>
      <trkpt lat="49.16332" lon="1.89135">
        <ele>108.67</ele>
        <time>2022-09-11T08:16:10Z</time>
      </trkpt>
      <trkpt lat="49.16327" lon="1.89115">
        <ele>109.12</ele>
        <time>2022-09-11T08:16:22Z</time>
      </trkpt>
      <trkpt lat="49.16321" lon="1.89095">
        <ele>109.28</ele>
        <time>2022-09-11T08:16:34Z</time>
      </trkpt>
      <trkpt lat="49.16315" lon="1.89075">
        <ele>109.99</ele>
        <time>2022-09-11T08:16:46Z</time>
      </trkpt>
      <trkpt lat="49.16307" lon="1.89054">
        <ele>109.71</ele>
        <time>2022-09-11T08:16:59Z</time>
      </trkpt>
      <trkpt lat="49.163" lon="1.8903">
        <ele>110.33</ele>
        <time>2022-09-11T08:17:13Z</time>
      </trkpt>
      <trkpt lat="49.16293" lon="1.89008">
        <ele>110.34</ele>
        <time>2022-09-11T08:17:28Z</time>
      </trkpt>
      <trkpt lat="49.16291" lon="1.89">
        <ele>110.98</ele>
        <time>2022-09-11T08:17:39Z</time>
      </trkpt>
      <trkpt lat="49.16286" lon="1.8898">
        <ele>110.8</ele>
        <time>2022-09-11T08:17:53Z</time>
      </trkpt>
      <trkpt lat="49.16282" lon="1.88962">
        <ele>111.04</ele>
        <time>2022-09-11T08:18:04Z</time>
      </trkpt>
      <trkpt lat="49.16279" lon="1.88946">
        <ele>111.28</ele>
        <time>2022-09-11T08:18:14Z</time>
      </trkpt>
      <trkpt lat="49.16276" lon="1.88934">
        <ele>111.01</ele>
        <time>2022-09-11T08:18:21Z</time>
      </trkpt>
      <trkpt lat="49.16275" lon="1.88925">
        <ele>111.3</ele>
        <time>2022-09-11T08:18:26Z</time>
      </trkpt>
      <trkpt lat="49.16271" lon="1.88902">
        <ele>110.9</ele>
        <time>2022-09-11T08:18:39Z</time>
      </trkpt>
      <trkpt lat="49.16271" lon="1.88896">
        <ele>110.69</ele>
        <time>2022-09-11T08:18:43Z</time>
      </trkpt>
      <trkpt lat="49.16271" lon="1.88891">
        <ele>110.65</ele>
        <time>2022-09-11T08:18:46Z</time>
      </trkpt>
      <trkpt lat="49.16268" lon="1.8887">
        <ele>110.86</ele>
        <time>2022-09-11T08:18:59Z</time>
      </trkpt>
      <trkpt lat="49.16264" lon="1.88851">
        <ele>110.86</ele>
        <time>2022-09-11T08:19:09Z</time>
      </trkpt>
      <trkpt lat="49.16263" lon="1.88826">
        <ele>111.19</ele>
        <time>2022-09-11T08:19:23Z</time>
      </trkpt>
      <trkpt lat="49.16261" lon="1.88802">
        <ele>110.91</ele>
        <time>2022-09-11T08:19:37Z</time>
      </trkpt>
      <trkpt lat="49.16258" lon="1.88779">
        <ele>110.61</ele>
        <time>2022-09-11T08:19:50Z</time>
      </trkpt>
      <trkpt lat="49.16256" lon="1.88754">
        <ele>110.76</ele>
        <time>2022-09-11T08:20:03Z</time>
      </trkpt>
      <trkpt lat="49.16254" lon="1.88732">
        <ele>110.88</ele>
        <time>2022-09-11T08:20:15Z</time>
      </trkpt>
      <trkpt lat="49.16251" lon="1.88711">
        <ele>110.8</ele>
        <time>2022-09-11T08:20:27Z</time>
      </trkpt>
      <trkpt lat="49.16248" lon="1.88693">
        <ele>110.19</ele>
        <time>2022-09-11T08:20:38Z</time>
      </trkpt>
      <trkpt lat="49.16248" lon="1.88692">
        <ele>110.68</ele>
        <time>2022-09-11T08:20:39Z</time>
      </trkpt>
      <trkpt lat="49.16242" lon="1.88664">
        <ele>110.14</ele>
        <time>2022-09-11T08:20:55Z</time>
      </trkpt>
      <trkpt lat="49.16241" lon="1.88656">
        <ele>110.17</ele>
        <time>2022-09-11T08:21:00Z</time>
      </trkpt>
      <trkpt lat="49.16235" lon="1.88633">
        <ele>110.63</ele>
        <time>2022-09-11T08:21:14Z</time>
      </trkpt>
      <trkpt lat="49.16231" lon="1.88616">
        <ele>109.87</ele>
        <time>2022-09-11T08:21:24Z</time>
      </trkpt>
      <trkpt lat="49.1623" lon="1.88608">
        <ele>110.24</ele>
        <time>2022-09-11T08:21:29Z</time>
      </trkpt>
      <trkpt lat="49.16228" lon="1.88599">
        <ele>110.23</ele>
        <time>2022-09-11T08:21:34Z</time>
      </trkpt>
      <trkpt lat="49.16221" lon="1.88573">
        <ele>109.99</ele>
        <time>2022-09-11T08:21:50Z</time>
      </trkpt>
      <trkpt lat="49.16215" lon="1.88549">
        <ele>110.71</ele>
        <time>2022-09-11T08:22:05Z</time>
      </trkpt>
      <trkpt lat="49.16211" lon="1.88529">
        <ele>110.12</ele>
        <time>2022-09-11T08:22:16Z</time>
      </trkpt>
      <trkpt lat="49.16207" lon="1.8851">
        <ele>110.06</ele>
        <time>2022-09-11T08:22:27Z</time>
      </trkpt>
      <trkpt lat="49.16203" lon="1.88492">
        <ele>110.13</ele>
        <time>2022-09-11T08:22:38Z</time>
      </trkpt>
      <trkpt lat="49.16198" lon="1.88473">
        <ele>109.93</ele>
        <time>2022-09-11T08:22:49Z</time>
      </trkpt>
      <trkpt lat="49.16193" lon="1.88456">
        <ele>110.32</ele>
        <time>2022-09-11T08:23:00Z</time>
      </trkpt>
      <trkpt lat="49.16188" lon="1.88439">
        <ele>110.22</ele>
        <time>2022-09-11T08:23:11Z</time>
      </trkpt>
      <trkpt lat="49.16184" lon="1.88419">
        <ele>109.73</ele>
        <time>2022-09-11T08:23:22Z</time>
      </trkpt>
      <trkpt lat="49.16181" lon="1.88407">
        <ele>110.22</ele>
        <time>2022-09-11T08:23:30Z</time>
      </trkpt>
      <trkpt lat="49.16176" lon="1.88386">
        <ele>110.2</ele>
        <time>2022-09-11T08:23:42Z</time>
      </trkpt>
      <trkpt lat="49.16172" lon="1.88369">
        <ele>111.4</ele>
        <time>2022-09-11T08:23:52Z</time>
      </trkpt>
      <trkpt lat="49.16166" lon="1.88349">
        <ele>110.68</ele>
        <time>2022-09-11T08:24:06Z</time>
      </trkpt>
      <trkpt lat="49.1616" lon="1.88323">
        <ele>110.68</ele>
        <time>2022-09-11T08:24:22Z</time>
      </trkpt>
      <trkpt lat="49.16157" lon="1.88306">
        <ele>111.61</ele>
        <time>2022-09-11T08:24:33Z</time>
      </trkpt>
      <trkpt lat="49.16155" lon="1.88294">
        <ele>112.01</ele>
        <time>2022-09-11T08:24:45Z</time>
      </trkpt>
      <trkpt lat="49.16152" lon="1.88293">
        <ele>111.41</ele>
        <time>2022-09-11T08:24:57Z</time>
      </trkpt>
      <trkpt lat="49.16148" lon="1.88291">
        <ele>111.98</ele>
        <time>2022-09-11T08:25:03Z</time>
      </trkpt>
      <trkpt lat="49.16145" lon="1.88292">
        <ele>111.47</ele>
        <time>2022-09-11T08:25:06Z</time>
      </trkpt>
      <trkpt lat="49.16141" lon="1.88291">
        <ele>111.86</ele>
        <time>2022-09-11T08:25:18Z</time>
      </trkpt>
      <trkpt lat="49.16141" lon="1.88291">
        <ele>111.58</ele>
        <time>2022-09-11T08:25:33Z</time>
      </trkpt>
      <trkpt lat="49.1614" lon="1.88288">
        <ele>111.6</ele>
        <time>2022-09-11T08:25:53Z</time>
      </trkpt>
      <trkpt lat="49.16146" lon="1.88262">
        <ele>111.82</ele>
        <time>2022-09-11T08:26:07Z</time>
      </trkpt>
      <trkpt lat="49.16148" lon="1.88231">
        <ele>111.98</ele>
        <time>2022-09-11T08:26:24Z</time>
      </trkpt>
      <trkpt lat="49.16146" lon="1.88213">
        <ele>111.99</ele>
        <time>2022-09-11T08:26:34Z</time>
      </trkpt>
      <trkpt lat="49.16147" lon="1.88197">
        <ele>111.7</ele>
        <time>2022-09-11T08:26:47Z</time>
      </trkpt>
      <trkpt lat="49.16147" lon="1.88189">
        <ele>111.83</ele>
        <time>2022-09-11T08:26:53Z</time>
      </trkpt>
      <trkpt lat="49.16147" lon="1.88176">
        <ele>111.92</ele>
        <time>2022-09-11T08:27:06Z</time>
      </trkpt>
      <trkpt lat="49.16147" lon="1.88167">
        <ele>112.01</ele>
        <time>2022-09-11T08:27:14Z</time>
      </trkpt>
      <trkpt lat="49.16147" lon="1.88146">
        <ele>111.82</ele>
        <time>2022-09-11T08:27:27Z</time>
      </trkpt>
      <trkpt lat="49.16149" lon="1.88132">
        <ele>111.91</ele>
        <time>2022-09-11T08:27:35Z</time>
      </trkpt>
      <trkpt lat="49.16149" lon="1.88117">
        <ele>111.98</ele>
        <time>2022-09-11T08:27:46Z</time>
      </trkpt>
      <trkpt lat="49.16149" lon="1.88112">
        <ele>111.91</ele>
        <time>2022-09-11T08:27:50Z</time>
      </trkpt>
      <trkpt lat="49.1615" lon="1.88096">
        <ele>112.44</ele>
        <time>2022-09-11T08:28:01Z</time>
      </trkpt>
      <trkpt lat="49.16151" lon="1.88087">
        <ele>112.08</ele>
        <time>2022-09-11T08:28:07Z</time>
      </trkpt>
      <trkpt lat="49.16153" lon="1.88066">
        <ele>112.56</ele>
        <time>2022-09-11T08:28:20Z</time>
      </trkpt>
      <trkpt lat="49.16154" lon="1.8805">
        <ele>112.28</ele>
        <time>2022-09-11T08:28:32Z</time>
      </trkpt>
      <trkpt lat="49.16156" lon="1.88033">
        <ele>112.07</ele>
        <time>2022-09-11T08:28:43Z</time>
      </trkpt>
      <trkpt lat="49.16157" lon="1.88009">
        <ele>112.08</ele>
        <time>2022-09-11T08:28:59Z</time>
      </trkpt>
      <trkpt lat="49.16157" lon="1.87991">
        <ele>112.29</ele>
        <time>2022-09-11T08:29:10Z</time>
      </trkpt>
      <trkpt lat="49.16158" lon="1.87964">
        <ele>111.42</ele>
        <time>2022-09-11T08:29:26Z</time>
      </trkpt>
      <trkpt lat="49.1616" lon="1.87936">
        <ele>112.04</ele>
        <time>2022-09-11T08:29:44Z</time>
      </trkpt>
      <trkpt lat="49.1616" lon="1.87917">
        <ele>111.45</ele>
        <time>2022-09-11T08:29:55Z</time>
      </trkpt>
      <trkpt lat="49.16161" lon="1.87897">
        <ele>111.8</ele>
        <time>2022-09-11T08:30:07Z</time>
      </trkpt>
      <trkpt lat="49.16162" lon="1.87874">
        <ele>111.61</ele>
        <time>2022-09-11T08:30:20Z</time>
      </trkpt>
      <trkpt lat="49.16162" lon="1.87866">
        <ele>111.28</ele>
        <time>2022-09-11T08:30:30Z</time>
      </trkpt>
      <trkpt lat="49.16162" lon="1.87866">
        <ele>111.47</ele>
        <time>2022-09-11T08:30:48Z</time>
      </trkpt>
      <trkpt lat="49.16162" lon="1.87867">
        <ele>110.84</ele>
        <time>2022-09-11T08:31:14Z</time>
      </trkpt>
      <trkpt lat="49.16162" lon="1.87866">
        <ele>111.71</ele>
        <time>2022-09-11T08:31:34Z</time>
      </trkpt>
      <trkpt lat="49.16162" lon="1.87864">
        <ele>111.36</ele>
        <time>2022-09-11T08:31:39Z</time>
      </trkpt>
      <trkpt lat="49.16162" lon="1.87857">
        <ele>111.13</ele>
        <time>2022-09-11T08:31:43Z</time>
      </trkpt>
      <trkpt lat="49.1616" lon="1.87832">
        <ele>109.82</ele>
        <time>2022-09-11T08:31:57Z</time>
      </trkpt>
      <trkpt lat="49.16158" lon="1.8781">
        <ele>109.79</ele>
        <time>2022-09-11T08:32:09Z</time>
      </trkpt>
      <trkpt lat="49.16157" lon="1.87789">
        <ele>109.71</ele>
        <time>2022-09-11T08:32:21Z</time>
      </trkpt>
      <trkpt lat="49.16155" lon="1.87771">
        <ele>109.54</ele>
        <time>2022-09-11T08:32:33Z</time>
      </trkpt>
      <trkpt lat="49.16154" lon="1.87768">
        <ele>109.66</ele>
        <time>2022-09-11T08:32:44Z</time>
      </trkpt>
      <trkpt lat="49.16154" lon="1.87766">
        <ele>109.82</ele>
        <time>2022-09-11T08:32:45Z</time>
      </trkpt>
      <trkpt lat="49.16153" lon="1.87748">
        <ele>110.08</ele>
        <time>2022-09-11T08:32:59Z</time>
      </trkpt>
      <trkpt lat="49.16151" lon="1.87726">
        <ele>109.69</ele>
        <time>2022-09-11T08:33:12Z</time>
      </trkpt>
      <trkpt lat="49.16148" lon="1.87707">
        <ele>109.67</ele>
        <time>2022-09-11T08:33:24Z</time>
      </trkpt>
      <trkpt lat="49.16144" lon="1.87684">
        <ele>109.02</ele>
        <time>2022-09-11T08:33:37Z</time>
      </trkpt>
      <trkpt lat="49.1614" lon="1.87664">
        <ele>108.51</ele>
        <time>2022-09-11T08:33:50Z</time>
      </trkpt>
      <trkpt lat="49.16136" lon="1.87641">
        <ele>108.33</ele>
        <time>2022-09-11T08:34:02Z</time>
      </trkpt>
      <trkpt lat="49.1613" lon="1.87618">
        <ele>108.62</ele>
        <time>2022-09-11T08:34:15Z</time>
      </trkpt>
      <trkpt lat="49.16125" lon="1.87599">
        <ele>108.04</ele>
        <time>2022-09-11T08:34:27Z</time>
      </trkpt>
      <trkpt lat="49.16119" lon="1.8758">
        <ele>107.88</ele>
        <time>2022-09-11T08:34:39Z</time>
      </trkpt>
      <trkpt lat="49.16114" lon="1.87561">
        <ele>107.75</ele>
        <time>2022-09-11T08:34:50Z</time>
      </trkpt>
      <trkpt lat="49.16105" lon="1.87534">
        <ele>106.97</ele>
        <time>2022-09-11T08:35:06Z</time>
      </trkpt>
      <trkpt lat="49.16099" lon="1.87513">
        <ele>107.44</ele>
        <time>2022-09-11T08:35:19Z</time>
      </trkpt>
      <trkpt lat="49.16093" lon="1.87493">
        <ele>107.28</ele>
        <time>2022-09-11T08:35:31Z</time>
      </trkpt>
      <trkpt lat="49.16088" lon="1.8747">
        <ele>106.76</ele>
        <time>2022-09-11T08:35:44Z</time>
      </trkpt>
      <trkpt lat="49.1608" lon="1.87442">
        <ele>106.55</ele>
        <time>2022-09-11T08:36:00Z</time>
      </trkpt>
      <trkpt lat="49.16074" lon="1.87422">
        <ele>106.01</ele>
        <time>2022-09-11T08:36:12Z</time>
      </trkpt>
      <trkpt lat="49.16068" lon="1.87404">
        <ele>105.64</ele>
        <time>2022-09-11T08:36:23Z</time>
      </trkpt>
      <trkpt lat="49.16061" lon="1.8738">
        <ele>105.75</ele>
        <time>2022-09-11T08:36:37Z</time>
      </trkpt>
      <trkpt lat="49.16055" lon="1.87359">
        <ele>105.55</ele>
        <time>2022-09-11T08:36:51Z</time>
      </trkpt>
      <trkpt lat="49.16052" lon="1.87352">
        <ele>106.07</ele>
        <time>2022-09-11T08:37:03Z</time>
      </trkpt>
      <trkpt lat="49.16051" lon="1.87352">
        <ele>105.56</ele>
        <time>2022-09-11T08:37:16Z</time>
      </trkpt>
      <trkpt lat="49.1605" lon="1.87353">
        <ele>105.87</ele>
        <time>2022-09-11T08:37:33Z</time>
      </trkpt>
      <trkpt lat="49.16047" lon="1.8736">
        <ele>105.4</ele>
        <time>2022-09-11T08:37:38Z</time>
      </trkpt>
      <trkpt lat="49.16041" lon="1.87367">
        <ele>105.78</ele>
        <time>2022-09-11T08:37:46Z</time>
      </trkpt>
      <trkpt lat="49.16031" lon="1.8738">
        <ele>105.68</ele>
        <time>2022-09-11T08:37:58Z</time>
      </trkpt>
      <trkpt lat="49.16021" lon="1.87394">
        <ele>105.87</ele>
        <time>2022-09-11T08:38:10Z</time>
      </trkpt>
      <trkpt lat="49.1601" lon="1.87408">
        <ele>105.85</ele>
        <time>2022-09-11T08:38:22Z</time>
      </trkpt>
      <trkpt lat="49.16007" lon="1.87414">
        <ele>105.93</ele>
        <time>2022-09-11T08:38:26Z</time>
      </trkpt>
      <trkpt lat="49.16004" lon="1.87421">
        <ele>105.76</ele>
        <time>2022-09-11T08:38:31Z</time>
      </trkpt>
      <trkpt lat="49.15992" lon="1.87439">
        <ele>106.04</ele>
        <time>2022-09-11T08:38:46Z</time>
      </trkpt>
      <trkpt lat="49.15983" lon="1.8745">
        <ele>106.56</ele>
        <time>2022-09-11T08:38:57Z</time>
      </trkpt>
      <trkpt lat="49.15971" lon="1.87469">
        <ele>106.33</ele>
        <time>2022-09-11T08:39:11Z</time>
      </trkpt>
      <trkpt lat="49.15958" lon="1.87488">
        <ele>106.11</ele>
        <time>2022-09-11T08:39:27Z</time>
      </trkpt>
      <trkpt lat="49.15946" lon="1.87503">
        <ele>106.92</ele>
        <time>2022-09-11T08:39:40Z</time>
      </trkpt>
      <trkpt lat="49.15935" lon="1.87517">
        <ele>106.53</ele>
        <time>2022-09-11T08:39:53Z</time>
      </trkpt>
      <trkpt lat="49.15924" lon="1.87531">
        <ele>107.55</ele>
        <time>2022-09-11T08:40:05Z</time>
      </trkpt>
      <trkpt lat="49.15914" lon="1.87545">
        <ele>107.79</ele>
        <time>2022-09-11T08:40:17Z</time>
      </trkpt>
      <trkpt lat="49.15901" lon="1.8756">
        <ele>108.33</ele>
        <time>2022-09-11T08:40:31Z</time>
      </trkpt>
      <trkpt lat="49.159" lon="1.87562">
        <ele>108.22</ele>
        <time>2022-09-11T08:40:38Z</time>
      </trkpt>
      <trkpt lat="49.15898" lon="1.87564">
        <ele>108.72</ele>
        <time>2022-09-11T08:40:40Z</time>
      </trkpt>
      <trkpt lat="49.15886" lon="1.87577">
        <ele>108.11</ele>
        <time>2022-09-11T08:40:53Z</time>
      </trkpt>
      <trkpt lat="49.15877" lon="1.87588">
        <ele>108.77</ele>
        <time>2022-09-11T08:41:03Z</time>
      </trkpt>
      <trkpt lat="49.15863" lon="1.87606">
        <ele>109.04</ele>
        <time>2022-09-11T08:41:18Z</time>
      </trkpt>
      <trkpt lat="49.1585" lon="1.87619">
        <ele>110.12</ele>
        <time>2022-09-11T08:41:31Z</time>
      </trkpt>
      <trkpt lat="49.15842" lon="1.87628">
        <ele>109.79</ele>
        <time>2022-09-11T08:41:40Z</time>
      </trkpt>
      <trkpt lat="49.15827" lon="1.87645">
        <ele>110.74</ele>
        <time>2022-09-11T08:41:56Z</time>
      </trkpt>
      <trkpt lat="49.15812" lon="1.87662">
        <ele>110.27</ele>
        <time>2022-09-11T08:42:12Z</time>
      </trkpt>
      <trkpt lat="49.15799" lon="1.87678">
        <ele>110.28</ele>
        <time>2022-09-11T08:42:26Z</time>
      </trkpt>
      <trkpt lat="49.15787" lon="1.87693">
        <ele>110.32</ele>
        <time>2022-09-11T08:42:40Z</time>
      </trkpt>
      <trkpt lat="49.15779" lon="1.87702">
        <ele>110.35</ele>
        <time>2022-09-11T08:42:49Z</time>
      </trkpt>
      <trkpt lat="49.15772" lon="1.8771">
        <ele>110.36</ele>
        <time>2022-09-11T08:42:56Z</time>
      </trkpt>
      <trkpt lat="49.15758" lon="1.87727">
        <ele>110.2</ele>
        <time>2022-09-11T08:43:12Z</time>
      </trkpt>
      <trkpt lat="49.15746" lon="1.87744">
        <ele>110.37</ele>
        <time>2022-09-11T08:43:27Z</time>
      </trkpt>
      <trkpt lat="49.15734" lon="1.87762">
        <ele>110.14</ele>
        <time>2022-09-11T08:43:41Z</time>
      </trkpt>
      <trkpt lat="49.15724" lon="1.87775">
        <ele>109.89</ele>
        <time>2022-09-11T08:43:53Z</time>
      </trkpt>
      <trkpt lat="49.1571" lon="1.8779">
        <ele>110.84</ele>
        <time>2022-09-11T08:44:07Z</time>
      </trkpt>
      <trkpt lat="49.15698" lon="1.87807">
        <ele>110.24</ele>
        <time>2022-09-11T08:44:21Z</time>
      </trkpt>
      <trkpt lat="49.15687" lon="1.8782">
        <ele>110.06</ele>
        <time>2022-09-11T08:44:33Z</time>
      </trkpt>
      <trkpt lat="49.15673" lon="1.87838">
        <ele>110.54</ele>
        <time>2022-09-11T08:44:48Z</time>
      </trkpt>
      <trkpt lat="49.15663" lon="1.87853">
        <ele>110.88</ele>
        <time>2022-09-11T08:45:00Z</time>
      </trkpt>
      <trkpt lat="49.15654" lon="1.87868">
        <ele>110.43</ele>
        <time>2022-09-11T08:45:11Z</time>
      </trkpt>
      <trkpt lat="49.15645" lon="1.8788">
        <ele>110.55</ele>
        <time>2022-09-11T08:45:21Z</time>
      </trkpt>
      <trkpt lat="49.15637" lon="1.87895">
        <ele>109.92</ele>
        <time>2022-09-11T08:45:32Z</time>
      </trkpt>
      <trkpt lat="49.15628" lon="1.87911">
        <ele>110.2</ele>
        <time>2022-09-11T08:45:44Z</time>
      </trkpt>
      <trkpt lat="49.15618" lon="1.8793">
        <ele>110.26</ele>
        <time>2022-09-11T08:45:58Z</time>
      </trkpt>
      <trkpt lat="49.15618" lon="1.87932">
        <ele>110.26</ele>
        <time>2022-09-11T08:45:59Z</time>
      </trkpt>
      <trkpt lat="49.15615" lon="1.8794">
        <ele>109.91</ele>
        <time>2022-09-11T08:46:04Z</time>
      </trkpt>
      <trkpt lat="49.15607" lon="1.87958">
        <ele>110.55</ele>
        <time>2022-09-11T08:46:15Z</time>
      </trkpt>
      <trkpt lat="49.15599" lon="1.87977">
        <ele>110.2</ele>
        <time>2022-09-11T08:46:28Z</time>
      </trkpt>
      <trkpt lat="49.15592" lon="1.87996">
        <ele>109.84</ele>
        <time>2022-09-11T08:46:40Z</time>
      </trkpt>
      <trkpt lat="49.15587" lon="1.8802">
        <ele>109.57</ele>
        <time>2022-09-11T08:46:53Z</time>
      </trkpt>
      <trkpt lat="49.15581" lon="1.88044">
        <ele>109.5</ele>
        <time>2022-09-11T08:47:06Z</time>
      </trkpt>
      <trkpt lat="49.15577" lon="1.88064">
        <ele>108.77</ele>
        <time>2022-09-11T08:47:18Z</time>
      </trkpt>
      <trkpt lat="49.15574" lon="1.88081">
        <ele>108.31</ele>
        <time>2022-09-11T08:47:28Z</time>
      </trkpt>
      <trkpt lat="49.15569" lon="1.88101">
        <ele>108.68</ele>
        <time>2022-09-11T08:47:40Z</time>
      </trkpt>
      <trkpt lat="49.15564" lon="1.88126">
        <ele>108.73</ele>
        <time>2022-09-11T08:47:55Z</time>
      </trkpt>
      <trkpt lat="49.15557" lon="1.88152">
        <ele>107.85</ele>
        <time>2022-09-11T08:48:10Z</time>
      </trkpt>
      <trkpt lat="49.15553" lon="1.88169">
        <ele>107.88</ele>
        <time>2022-09-11T08:48:22Z</time>
      </trkpt>
      <trkpt lat="49.15548" lon="1.88186">
        <ele>108.16</ele>
        <time>2022-09-11T08:48:33Z</time>
      </trkpt>
      <trkpt lat="49.15543" lon="1.88205">
        <ele>108.74</ele>
        <time>2022-09-11T08:48:45Z</time>
      </trkpt>
      <trkpt lat="49.15539" lon="1.88218">
        <ele>108.73</ele>
        <time>2022-09-11T08:48:56Z</time>
      </trkpt>
      <trkpt lat="49.15539" lon="1.8822">
        <ele>109.35</ele>
        <time>2022-09-11T08:49:11Z</time>
      </trkpt>
      <trkpt lat="49.15534" lon="1.88221">
        <ele>108.49</ele>
        <time>2022-09-11T08:49:22Z</time>
      </trkpt>
      <trkpt lat="49.15533" lon="1.88221">
        <ele>108.59</ele>
        <time>2022-09-11T08:49:43Z</time>
      </trkpt>
      <trkpt lat="49.15531" lon="1.88223">
        <ele>108.56</ele>
        <time>2022-09-11T08:49:58Z</time>
      </trkpt>
      <trkpt lat="49.15528" lon="1.88231">
        <ele>108.53</ele>
        <time>2022-09-11T08:50:05Z</time>
      </trkpt>
      <trkpt lat="49.15522" lon="1.88251">
        <ele>107.99</ele>
        <time>2022-09-11T08:50:19Z</time>
      </trkpt>
      <trkpt lat="49.15521" lon="1.88252">
        <ele>108.01</ele>
        <time>2022-09-11T08:50:20Z</time>
      </trkpt>
      <trkpt lat="49.15517" lon="1.88263">
        <ele>107.62</ele>
        <time>2022-09-11T08:50:31Z</time>
      </trkpt>
      <trkpt lat="49.15514" lon="1.88265">
        <ele>107.51</ele>
        <time>2022-09-11T08:50:50Z</time>
      </trkpt>
      <trkpt lat="49.15512" lon="1.88267">
        <ele>107.23</ele>
        <time>2022-09-11T08:51:04Z</time>
      </trkpt>
      <trkpt lat="49.15515" lon="1.88269">
        <ele>107.59</ele>
        <time>2022-09-11T08:51:21Z</time>
      </trkpt>
      <trkpt lat="49.15514" lon="1.88268">
        <ele>107.19</ele>
        <time>2022-09-11T08:51:36Z</time>
      </trkpt>
      <trkpt lat="49.15513" lon="1.8827">
        <ele>107.54</ele>
        <time>2022-09-11T08:51:49Z</time>
      </trkpt>
      <trkpt lat="49.15513" lon="1.88269">
        <ele>107.21</ele>
        <time>2022-09-11T08:52:04Z</time>
      </trkpt>
      <trkpt lat="49.15513" lon="1.8827">
        <ele>107.21</ele>
        <time>2022-09-11T08:52:17Z</time>
      </trkpt>
      <trkpt lat="49.15512" lon="1.8827">
        <ele>107.35</ele>
        <time>2022-09-11T08:52:45Z</time>
      </trkpt>
      <trkpt lat="49.15509" lon="1.8827">
        <ele>107.48</ele>
        <time>2022-09-11T08:52:57Z</time>
      </trkpt>
      <trkpt lat="49.15509" lon="1.8827">
        <ele>106.96</ele>
        <time>2022-09-11T08:53:06Z</time>
      </trkpt>
      <trkpt lat="49.15511" lon="1.8827">
        <ele>107.08</ele>
        <time>2022-09-11T08:53:16Z</time>
      </trkpt>
      <trkpt lat="49.15512" lon="1.88273">
        <ele>106.59</ele>
        <time>2022-09-11T08:53:30Z</time>
      </trkpt>
      <trkpt lat="49.1551" lon="1.88273">
        <ele>107.04</ele>
        <time>2022-09-11T08:53:44Z</time>
      </trkpt>
      <trkpt lat="49.15507" lon="1.88275">
        <ele>106.98</ele>
        <time>2022-09-11T08:54:02Z</time>
      </trkpt>
      <trkpt lat="49.15504" lon="1.88282">
        <ele>107</ele>
        <time>2022-09-11T08:54:19Z</time>
      </trkpt>
      <trkpt lat="49.15501" lon="1.88286">
        <ele>107.16</ele>
        <time>2022-09-11T08:54:25Z</time>
      </trkpt>
      <trkpt lat="49.15497" lon="1.88293">
        <ele>106.9</ele>
        <time>2022-09-11T08:54:31Z</time>
      </trkpt>
      <trkpt lat="49.15492" lon="1.88303">
        <ele>106.61</ele>
        <time>2022-09-11T08:54:39Z</time>
      </trkpt>
      <trkpt lat="49.15484" lon="1.88317">
        <ele>106.87</ele>
        <time>2022-09-11T08:54:50Z</time>
      </trkpt>
      <trkpt lat="49.15482" lon="1.88322">
        <ele>106.81</ele>
        <time>2022-09-11T08:54:54Z</time>
      </trkpt>
      <trkpt lat="49.15482" lon="1.88327">
        <ele>106.6</ele>
        <time>2022-09-11T08:54:57Z</time>
      </trkpt>
      <trkpt lat="49.15482" lon="1.88335">
        <ele>107.01</ele>
        <time>2022-09-11T08:55:01Z</time>
      </trkpt>
      <trkpt lat="49.15479" lon="1.88341">
        <ele>106.47</ele>
        <time>2022-09-11T08:55:13Z</time>
      </trkpt>
      <trkpt lat="49.15472" lon="1.88341">
        <ele>106.47</ele>
        <time>2022-09-11T08:55:25Z</time>
      </trkpt>
      <trkpt lat="49.15472" lon="1.88341">
        <ele>106.22</ele>
        <time>2022-09-11T08:55:26Z</time>
      </trkpt>
      <trkpt lat="49.15464" lon="1.88346">
        <ele>106.53</ele>
        <time>2022-09-11T08:55:34Z</time>
      </trkpt>
      <trkpt lat="49.15452" lon="1.88358">
        <ele>106.73</ele>
        <time>2022-09-11T08:55:47Z</time>
      </trkpt>
      <trkpt lat="49.15437" lon="1.88372">
        <ele>106.08</ele>
        <time>2022-09-11T08:56:01Z</time>
      </trkpt>
      <trkpt lat="49.15433" lon="1.88382">
        <ele>105.6</ele>
        <time>2022-09-11T08:56:12Z</time>
      </trkpt>
      <trkpt lat="49.15435" lon="1.88386">
        <ele>105.73</ele>
        <time>2022-09-11T08:56:27Z</time>
      </trkpt>
      <trkpt lat="49.15433" lon="1.88388">
        <ele>104.94</ele>
        <time>2022-09-11T08:56:37Z</time>
      </trkpt>
      <trkpt lat="49.1543" lon="1.88391">
        <ele>105.39</ele>
        <time>2022-09-11T08:56:40Z</time>
      </trkpt>
      <trkpt lat="49.15423" lon="1.88399">
        <ele>105.24</ele>
        <time>2022-09-11T08:56:50Z</time>
      </trkpt>
      <trkpt lat="49.15417" lon="1.88407">
        <ele>105.42</ele>
        <time>2022-09-11T08:57:03Z</time>
      </trkpt>
      <trkpt lat="49.15409" lon="1.88417">
        <ele>105.15</ele>
        <time>2022-09-11T08:57:18Z</time>
      </trkpt>
      <trkpt lat="49.15399" lon="1.88429">
        <ele>104.79</ele>
        <time>2022-09-11T08:57:32Z</time>
      </trkpt>
      <trkpt lat="49.15389" lon="1.8844">
        <ele>104.5</ele>
        <time>2022-09-11T08:57:45Z</time>
      </trkpt>
      <trkpt lat="49.15387" lon="1.88442">
        <ele>104.5</ele>
        <time>2022-09-11T08:57:47Z</time>
      </trkpt>
      <trkpt lat="49.15381" lon="1.88449">
        <ele>104.45</ele>
        <time>2022-09-11T08:57:59Z</time>
      </trkpt>
      <trkpt lat="49.15377" lon="1.88454">
        <ele>104.24</ele>
        <time>2022-09-11T08:58:03Z</time>
      </trkpt>
      <trkpt lat="49.15367" lon="1.88464">
        <ele>103.69</ele>
        <time>2022-09-11T08:58:13Z</time>
      </trkpt>
      <trkpt lat="49.15357" lon="1.88475">
        <ele>104.62</ele>
        <time>2022-09-11T08:58:25Z</time>
      </trkpt>
      <trkpt lat="49.15355" lon="1.88476">
        <ele>103.58</ele>
        <time>2022-09-11T08:58:31Z</time>
      </trkpt>
      <trkpt lat="49.15341" lon="1.88488">
        <ele>103.06</ele>
        <time>2022-09-11T08:58:44Z</time>
      </trkpt>
      <trkpt lat="49.15329" lon="1.88501">
        <ele>103.33</ele>
        <time>2022-09-11T08:58:56Z</time>
      </trkpt>
      <trkpt lat="49.15317" lon="1.88513">
        <ele>103.55</ele>
        <time>2022-09-11T08:59:09Z</time>
      </trkpt>
      <trkpt lat="49.15306" lon="1.88523">
        <ele>103.52</ele>
        <time>2022-09-11T08:59:19Z</time>
      </trkpt>
      <trkpt lat="49.15295" lon="1.88531">
        <ele>103.26</ele>
        <time>2022-09-11T08:59:30Z</time>
      </trkpt>
      <trkpt lat="49.1529" lon="1.8854">
        <ele>103.31</ele>
        <time>2022-09-11T08:59:38Z</time>
      </trkpt>
      <trkpt lat="49.15281" lon="1.8855">
        <ele>103.37</ele>
        <time>2022-09-11T08:59:50Z</time>
      </trkpt>
      <trkpt lat="49.15271" lon="1.88562">
        <ele>102.85</ele>
        <time>2022-09-11T09:00:03Z</time>
      </trkpt>
      <trkpt lat="49.15261" lon="1.88573">
        <ele>102.92</ele>
        <time>2022-09-11T09:00:15Z</time>
      </trkpt>
      <trkpt lat="49.15254" lon="1.88578">
        <ele>103.18</ele>
        <time>2022-09-11T09:00:23Z</time>
      </trkpt>
      <trkpt lat="49.1524" lon="1.88591">
        <ele>102.79</ele>
        <time>2022-09-11T09:00:37Z</time>
      </trkpt>
      <trkpt lat="49.1523" lon="1.88601">
        <ele>101.84</ele>
        <time>2022-09-11T09:00:50Z</time>
      </trkpt>
      <trkpt lat="49.15217" lon="1.88611">
        <ele>102.16</ele>
        <time>2022-09-11T09:01:03Z</time>
      </trkpt>
      <trkpt lat="49.15206" lon="1.88621">
        <ele>101.47</ele>
        <time>2022-09-11T09:01:16Z</time>
      </trkpt>
      <trkpt lat="49.15194" lon="1.88631">
        <ele>101.49</ele>
        <time>2022-09-11T09:01:30Z</time>
      </trkpt>
      <trkpt lat="49.15193" lon="1.88632">
        <ele>101.91</ele>
        <time>2022-09-11T09:01:31Z</time>
      </trkpt>
      <trkpt lat="49.15187" lon="1.88636">
        <ele>101.37</ele>
        <time>2022-09-11T09:01:37Z</time>
      </trkpt>
      <trkpt lat="49.15175" lon="1.88647">
        <ele>100.88</ele>
        <time>2022-09-11T09:01:53Z</time>
      </trkpt>
      <trkpt lat="49.15163" lon="1.88655">
        <ele>100.98</ele>
        <time>2022-09-11T09:02:07Z</time>
      </trkpt>
      <trkpt lat="49.15147" lon="1.88662">
        <ele>100.72</ele>
        <time>2022-09-11T09:02:16Z</time>
      </trkpt>
      <trkpt lat="49.15137" lon="1.88672">
        <ele>100.51</ele>
        <time>2022-09-11T09:02:27Z</time>
      </trkpt>
      <trkpt lat="49.15135" lon="1.88676">
        <ele>100.47</ele>
        <time>2022-09-11T09:02:34Z</time>
      </trkpt>
      <trkpt lat="49.15134" lon="1.88689">
        <ele>100.75</ele>
        <time>2022-09-11T09:02:42Z</time>
      </trkpt>
      <trkpt lat="49.15136" lon="1.88706">
        <ele>101.26</ele>
        <time>2022-09-11T09:02:54Z</time>
      </trkpt>
      <trkpt lat="49.15131" lon="1.88721">
        <ele>101.61</ele>
        <time>2022-09-11T09:03:09Z</time>
      </trkpt>
      <trkpt lat="49.15129" lon="1.88722">
        <ele>101.27</ele>
        <time>2022-09-11T09:03:25Z</time>
      </trkpt>
      <trkpt lat="49.15128" lon="1.88718">
        <ele>101.39</ele>
        <time>2022-09-11T09:03:38Z</time>
      </trkpt>
      <trkpt lat="49.15124" lon="1.88718">
        <ele>100.99</ele>
        <time>2022-09-11T09:04:02Z</time>
      </trkpt>
      <trkpt lat="49.15124" lon="1.88719">
        <ele>101.21</ele>
        <time>2022-09-11T09:04:12Z</time>
      </trkpt>
      <trkpt lat="49.1512" lon="1.88721">
        <ele>101.27</ele>
        <time>2022-09-11T09:04:28Z</time>
      </trkpt>
      <trkpt lat="49.15123" lon="1.88716">
        <ele>101.15</ele>
        <time>2022-09-11T09:04:43Z</time>
      </trkpt>
      <trkpt lat="49.15123" lon="1.88715">
        <ele>101.06</ele>
        <time>2022-09-11T09:04:57Z</time>
      </trkpt>
      <trkpt lat="49.15124" lon="1.88714">
        <ele>100.89</ele>
        <time>2022-09-11T09:05:14Z</time>
      </trkpt>
      <trkpt lat="49.15122" lon="1.88704">
        <ele>100.89</ele>
        <time>2022-09-11T09:05:27Z</time>
      </trkpt>
      <trkpt lat="49.15122" lon="1.88701">
        <ele>100.82</ele>
        <time>2022-09-11T09:05:29Z</time>
      </trkpt>
      <trkpt lat="49.1512" lon="1.88696">
        <ele>100.85</ele>
        <time>2022-09-11T09:05:39Z</time>
      </trkpt>
      <trkpt lat="49.15119" lon="1.88694">
        <ele>100.8</ele>
        <time>2022-09-11T09:06:00Z</time>
      </trkpt>
      <trkpt lat="49.15116" lon="1.88694">
        <ele>101.05</ele>
        <time>2022-09-11T09:06:17Z</time>
      </trkpt>
      <trkpt lat="49.15113" lon="1.88693">
        <ele>100.99</ele>
        <time>2022-09-11T09:06:35Z</time>
      </trkpt>
      <trkpt lat="49.15115" lon="1.88691">
        <ele>100.81</ele>
        <time>2022-09-11T09:06:58Z</time>
      </trkpt>
      <trkpt lat="49.15111" lon="1.88688">
        <ele>100.77</ele>
        <time>2022-09-11T09:07:12Z</time>
      </trkpt>
      <trkpt lat="49.15111" lon="1.88684">
        <ele>100.41</ele>
        <time>2022-09-11T09:07:17Z</time>
      </trkpt>
      <trkpt lat="49.15111" lon="1.88681">
        <ele>100.43</ele>
        <time>2022-09-11T09:07:20Z</time>
      </trkpt>
      <trkpt lat="49.1511" lon="1.88675">
        <ele>100.81</ele>
        <time>2022-09-11T09:07:26Z</time>
      </trkpt>
      <trkpt lat="49.1511" lon="1.88674">
        <ele>100.84</ele>
        <time>2022-09-11T09:07:38Z</time>
      </trkpt>
      <trkpt lat="49.15107" lon="1.88674">
        <ele>100.99</ele>
        <time>2022-09-11T09:07:51Z</time>
      </trkpt>
      <trkpt lat="49.15102" lon="1.88676">
        <ele>101.08</ele>
        <time>2022-09-11T09:08:03Z</time>
      </trkpt>
      <trkpt lat="49.15098" lon="1.88675">
        <ele>101.44</ele>
        <time>2022-09-11T09:08:07Z</time>
      </trkpt>
      <trkpt lat="49.1509" lon="1.88671">
        <ele>101.24</ele>
        <time>2022-09-11T09:08:17Z</time>
      </trkpt>
      <trkpt lat="49.15078" lon="1.88661">
        <ele>101.37</ele>
        <time>2022-09-11T09:08:29Z</time>
      </trkpt>
      <trkpt lat="49.15074" lon="1.88658">
        <ele>101.53</ele>
        <time>2022-09-11T09:08:33Z</time>
      </trkpt>
      <trkpt lat="49.1507" lon="1.88655">
        <ele>100.82</ele>
        <time>2022-09-11T09:08:38Z</time>
      </trkpt>
      <trkpt lat="49.15068" lon="1.88653">
        <ele>100.98</ele>
        <time>2022-09-11T09:08:40Z</time>
      </trkpt>
      <trkpt lat="49.15057" lon="1.88643">
        <ele>100.71</ele>
        <time>2022-09-11T09:08:51Z</time>
      </trkpt>
      <trkpt lat="49.15049" lon="1.88633">
        <ele>100.63</ele>
        <time>2022-09-11T09:09:00Z</time>
      </trkpt>
      <trkpt lat="49.15038" lon="1.88622">
        <ele>100.4</ele>
        <time>2022-09-11T09:09:11Z</time>
      </trkpt>
      <trkpt lat="49.15029" lon="1.88606">
        <ele>100.32</ele>
        <time>2022-09-11T09:09:22Z</time>
      </trkpt>
      <trkpt lat="49.1502" lon="1.88593">
        <ele>100.12</ele>
        <time>2022-09-11T09:09:33Z</time>
      </trkpt>
      <trkpt lat="49.1501" lon="1.88588">
        <ele>99.6</ele>
        <time>2022-09-11T09:09:45Z</time>
      </trkpt>
      <trkpt lat="49.1501" lon="1.88588">
        <ele>99.88</ele>
        <time>2022-09-11T09:10:02Z</time>
      </trkpt>
      <trkpt lat="49.15008" lon="1.88589">
        <ele>99.84</ele>
        <time>2022-09-11T09:10:15Z</time>
      </trkpt>
      <trkpt lat="49.15008" lon="1.88591">
        <ele>100.22</ele>
        <time>2022-09-11T09:10:17Z</time>
      </trkpt>
      <trkpt lat="49.15004" lon="1.88597">
        <ele>100.07</ele>
        <time>2022-09-11T09:10:22Z</time>
      </trkpt>
      <trkpt lat="49.14997" lon="1.88604">
        <ele>99.73</ele>
        <time>2022-09-11T09:10:33Z</time>
      </trkpt>
      <trkpt lat="49.14988" lon="1.88613">
        <ele>100.43</ele>
        <time>2022-09-11T09:10:44Z</time>
      </trkpt>
      <trkpt lat="49.14982" lon="1.88618">
        <ele>101.02</ele>
        <time>2022-09-11T09:10:57Z</time>
      </trkpt>
      <trkpt lat="49.14981" lon="1.88618">
        <ele>100.96</ele>
        <time>2022-09-11T09:11:13Z</time>
      </trkpt>
      <trkpt lat="49.14979" lon="1.88618">
        <ele>100.81</ele>
        <time>2022-09-11T09:11:32Z</time>
      </trkpt>
      <trkpt lat="49.1498" lon="1.8862">
        <ele>101.21</ele>
        <time>2022-09-11T09:11:54Z</time>
      </trkpt>
      <trkpt lat="49.14979" lon="1.88621">
        <ele>100.8</ele>
        <time>2022-09-11T09:12:15Z</time>
      </trkpt>
      <trkpt lat="49.14978" lon="1.88627">
        <ele>101.17</ele>
        <time>2022-09-11T09:12:32Z</time>
      </trkpt>
      <trkpt lat="49.14976" lon="1.88635">
        <ele>101.63</ele>
        <time>2022-09-11T09:12:38Z</time>
      </trkpt>
      <trkpt lat="49.14972" lon="1.88657">
        <ele>101.61</ele>
        <time>2022-09-11T09:12:52Z</time>
      </trkpt>
      <trkpt lat="49.14971" lon="1.88674">
        <ele>101.69</ele>
        <time>2022-09-11T09:13:02Z</time>
      </trkpt>
      <trkpt lat="49.14973" lon="1.88692">
        <ele>101.97</ele>
        <time>2022-09-11T09:13:13Z</time>
      </trkpt>
      <trkpt lat="49.14973" lon="1.88707">
        <ele>101.71</ele>
        <time>2022-09-11T09:13:22Z</time>
      </trkpt>
      <trkpt lat="49.14971" lon="1.88718">
        <ele>102.63</ele>
        <time>2022-09-11T09:13:34Z</time>
      </trkpt>
      <trkpt lat="49.1497" lon="1.88742">
        <ele>102.46</ele>
        <time>2022-09-11T09:13:48Z</time>
      </trkpt>
      <trkpt lat="49.14971" lon="1.8876">
        <ele>102.26</ele>
        <time>2022-09-11T09:13:59Z</time>
      </trkpt>
      <trkpt lat="49.14971" lon="1.88776">
        <ele>102.13</ele>
        <time>2022-09-11T09:14:08Z</time>
      </trkpt>
      <trkpt lat="49.14971" lon="1.88783">
        <ele>102.69</ele>
        <time>2022-09-11T09:14:12Z</time>
      </trkpt>
      <trkpt lat="49.14973" lon="1.88807">
        <ele>101.74</ele>
        <time>2022-09-11T09:14:26Z</time>
      </trkpt>
      <trkpt lat="49.14974" lon="1.8881">
        <ele>102.1</ele>
        <time>2022-09-11T09:14:28Z</time>
      </trkpt>
      <trkpt lat="49.14975" lon="1.88828">
        <ele>101.67</ele>
        <time>2022-09-11T09:14:39Z</time>
      </trkpt>
      <trkpt lat="49.14975" lon="1.88845">
        <ele>101.67</ele>
        <time>2022-09-11T09:14:48Z</time>
      </trkpt>
      <trkpt lat="49.14974" lon="1.8886">
        <ele>101.4</ele>
        <time>2022-09-11T09:14:59Z</time>
      </trkpt>
      <trkpt lat="49.14974" lon="1.88878">
        <ele>101.52</ele>
        <time>2022-09-11T09:15:12Z</time>
      </trkpt>
      <trkpt lat="49.14974" lon="1.88887">
        <ele>100.52</ele>
        <time>2022-09-11T09:15:18Z</time>
      </trkpt>
      <trkpt lat="49.14974" lon="1.88892">
        <ele>100.75</ele>
        <time>2022-09-11T09:15:21Z</time>
      </trkpt>
      <trkpt lat="49.14973" lon="1.88914">
        <ele>101.13</ele>
        <time>2022-09-11T09:15:34Z</time>
      </trkpt>
      <trkpt lat="49.14972" lon="1.88936">
        <ele>101.24</ele>
        <time>2022-09-11T09:15:47Z</time>
      </trkpt>
      <trkpt lat="49.14971" lon="1.88942">
        <ele>99.33</ele>
        <time>2022-09-11T09:15:50Z</time>
      </trkpt>
      <trkpt lat="49.14969" lon="1.88955">
        <ele>100.8</ele>
        <time>2022-09-11T09:15:58Z</time>
      </trkpt>
      <trkpt lat="49.14967" lon="1.88977">
        <ele>100.68</ele>
        <time>2022-09-11T09:16:11Z</time>
      </trkpt>
      <trkpt lat="49.14967" lon="1.88978">
        <ele>100.29</ele>
        <time>2022-09-11T09:16:12Z</time>
      </trkpt>
      <trkpt lat="49.14966" lon="1.88993">
        <ele>100.29</ele>
        <time>2022-09-11T09:16:21Z</time>
      </trkpt>
      <trkpt lat="49.1496" lon="1.89019">
        <ele>100.11</ele>
        <time>2022-09-11T09:16:36Z</time>
      </trkpt>
      <trkpt lat="49.14957" lon="1.89034">
        <ele>99.92</ele>
        <time>2022-09-11T09:16:46Z</time>
      </trkpt>
      <trkpt lat="49.14953" lon="1.89052">
        <ele>100</ele>
        <time>2022-09-11T09:16:59Z</time>
      </trkpt>
      <trkpt lat="49.1495" lon="1.89067">
        <ele>99.92</ele>
        <time>2022-09-11T09:17:08Z</time>
      </trkpt>
      <trkpt lat="49.14948" lon="1.89076">
        <ele>100.28</ele>
        <time>2022-09-11T09:17:14Z</time>
      </trkpt>
      <trkpt lat="49.14948" lon="1.89079">
        <ele>99.71</ele>
        <time>2022-09-11T09:17:16Z</time>
      </trkpt>
      <trkpt lat="49.14946" lon="1.89091">
        <ele>100.68</ele>
        <time>2022-09-11T09:17:28Z</time>
      </trkpt>
      <trkpt lat="49.14945" lon="1.89095">
        <ele>99.88</ele>
        <time>2022-09-11T09:17:34Z</time>
      </trkpt>
      <trkpt lat="49.14944" lon="1.89098">
        <ele>99.86</ele>
        <time>2022-09-11T09:17:36Z</time>
      </trkpt>
      <trkpt lat="49.14943" lon="1.89106">
        <ele>99.83</ele>
        <time>2022-09-11T09:17:41Z</time>
      </trkpt>
      <trkpt lat="49.14939" lon="1.8912">
        <ele>99.83</ele>
        <time>2022-09-11T09:17:50Z</time>
      </trkpt>
      <trkpt lat="49.14935" lon="1.89138">
        <ele>99.46</ele>
        <time>2022-09-11T09:18:02Z</time>
      </trkpt>
      <trkpt lat="49.1493" lon="1.89162">
        <ele>99.62</ele>
        <time>2022-09-11T09:18:16Z</time>
      </trkpt>
      <trkpt lat="49.14924" lon="1.89193">
        <ele>98.97</ele>
        <time>2022-09-11T09:18:35Z</time>
      </trkpt>
      <trkpt lat="49.14921" lon="1.89212">
        <ele>99.51</ele>
        <time>2022-09-11T09:18:46Z</time>
      </trkpt>
      <trkpt lat="49.14917" lon="1.89234">
        <ele>99.92</ele>
        <time>2022-09-11T09:18:59Z</time>
      </trkpt>
      <trkpt lat="49.14915" lon="1.89249">
        <ele>99.93</ele>
        <time>2022-09-11T09:19:09Z</time>
      </trkpt>
      <trkpt lat="49.14912" lon="1.89268">
        <ele>99.84</ele>
        <time>2022-09-11T09:19:20Z</time>
      </trkpt>
      <trkpt lat="49.14908" lon="1.89293">
        <ele>99.26</ele>
        <time>2022-09-11T09:19:35Z</time>
      </trkpt>
      <trkpt lat="49.14905" lon="1.89308">
        <ele>99.13</ele>
        <time>2022-09-11T09:19:44Z</time>
      </trkpt>
      <trkpt lat="49.14899" lon="1.89328">
        <ele>98.29</ele>
        <time>2022-09-11T09:19:56Z</time>
      </trkpt>
      <trkpt lat="49.14894" lon="1.89349">
        <ele>98.41</ele>
        <time>2022-09-11T09:20:08Z</time>
      </trkpt>
      <trkpt lat="49.14889" lon="1.89365">
        <ele>98.71</ele>
        <time>2022-09-11T09:20:20Z</time>
      </trkpt>
      <trkpt lat="49.14886" lon="1.8938">
        <ele>98.22</ele>
        <time>2022-09-11T09:20:31Z</time>
      </trkpt>
      <trkpt lat="49.1488" lon="1.89397">
        <ele>98.43</ele>
        <time>2022-09-11T09:20:41Z</time>
      </trkpt>
      <trkpt lat="49.14871" lon="1.89416">
        <ele>97.56</ele>
        <time>2022-09-11T09:20:54Z</time>
      </trkpt>
      <trkpt lat="49.14869" lon="1.89422">
        <ele>97.63</ele>
        <time>2022-09-11T09:20:58Z</time>
      </trkpt>
      <trkpt lat="49.14865" lon="1.89431">
        <ele>97.69</ele>
        <time>2022-09-11T09:21:07Z</time>
      </trkpt>
      <trkpt lat="49.14859" lon="1.89448">
        <ele>97.03</ele>
        <time>2022-09-11T09:21:18Z</time>
      </trkpt>
      <trkpt lat="49.14852" lon="1.89474">
        <ele>96.91</ele>
        <time>2022-09-11T09:21:33Z</time>
      </trkpt>
      <trkpt lat="49.1485" lon="1.89479">
        <ele>96.82</ele>
        <time>2022-09-11T09:21:42Z</time>
      </trkpt>
      <trkpt lat="49.14849" lon="1.89482">
        <ele>95.99</ele>
        <time>2022-09-11T09:21:44Z</time>
      </trkpt>
      <trkpt lat="49.14847" lon="1.89508">
        <ele>95.96</ele>
        <time>2022-09-11T09:21:59Z</time>
      </trkpt>
      <trkpt lat="49.14847" lon="1.89533">
        <ele>95.81</ele>
        <time>2022-09-11T09:22:13Z</time>
      </trkpt>
      <trkpt lat="49.14848" lon="1.89546">
        <ele>95.35</ele>
        <time>2022-09-11T09:22:21Z</time>
      </trkpt>
      <trkpt lat="49.14848" lon="1.89549">
        <ele>95.34</ele>
        <time>2022-09-11T09:22:23Z</time>
      </trkpt>
      <trkpt lat="49.14849" lon="1.89575">
        <ele>95.18</ele>
        <time>2022-09-11T09:22:37Z</time>
      </trkpt>
      <trkpt lat="49.14849" lon="1.89597">
        <ele>95.71</ele>
        <time>2022-09-11T09:22:49Z</time>
      </trkpt>
      <trkpt lat="49.14848" lon="1.89614">
        <ele>94.88</ele>
        <time>2022-09-11T09:23:01Z</time>
      </trkpt>
      <trkpt lat="49.14848" lon="1.89615">
        <ele>95.17</ele>
        <time>2022-09-11T09:23:02Z</time>
      </trkpt>
      <trkpt lat="49.14848" lon="1.89622">
        <ele>95.42</ele>
        <time>2022-09-11T09:23:06Z</time>
      </trkpt>
      <trkpt lat="49.14846" lon="1.89646">
        <ele>95.38</ele>
        <time>2022-09-11T09:23:18Z</time>
      </trkpt>
      <trkpt lat="49.14842" lon="1.89668">
        <ele>95.21</ele>
        <time>2022-09-11T09:23:31Z</time>
      </trkpt>
      <trkpt lat="49.14835" lon="1.89694">
        <ele>95.43</ele>
        <time>2022-09-11T09:23:46Z</time>
      </trkpt>
      <trkpt lat="49.14828" lon="1.89714">
        <ele>94.94</ele>
        <time>2022-09-11T09:24:00Z</time>
      </trkpt>
      <trkpt lat="49.1482" lon="1.8973">
        <ele>95.87</ele>
        <time>2022-09-11T09:24:12Z</time>
      </trkpt>
      <trkpt lat="49.14812" lon="1.89752">
        <ele>95.65</ele>
        <time>2022-09-11T09:24:26Z</time>
      </trkpt>
      <trkpt lat="49.14805" lon="1.89772">
        <ele>96.06</ele>
        <time>2022-09-11T09:24:39Z</time>
      </trkpt>
      <trkpt lat="49.14794" lon="1.89792">
        <ele>96.33</ele>
        <time>2022-09-11T09:24:54Z</time>
      </trkpt>
      <trkpt lat="49.14785" lon="1.89814">
        <ele>96.5</ele>
        <time>2022-09-11T09:25:08Z</time>
      </trkpt>
      <trkpt lat="49.14777" lon="1.89833">
        <ele>96.63</ele>
        <time>2022-09-11T09:25:21Z</time>
      </trkpt>
      <trkpt lat="49.14767" lon="1.89851">
        <ele>96.79</ele>
        <time>2022-09-11T09:25:34Z</time>
      </trkpt>
      <trkpt lat="49.14757" lon="1.89873">
        <ele>96.08</ele>
        <time>2022-09-11T09:25:49Z</time>
      </trkpt>
      <trkpt lat="49.14749" lon="1.89889">
        <ele>96.22</ele>
        <time>2022-09-11T09:26:00Z</time>
      </trkpt>
      <trkpt lat="49.14741" lon="1.89905">
        <ele>95.86</ele>
        <time>2022-09-11T09:26:12Z</time>
      </trkpt>
      <trkpt lat="49.14733" lon="1.89924">
        <ele>95.93</ele>
        <time>2022-09-11T09:26:25Z</time>
      </trkpt>
      <trkpt lat="49.14725" lon="1.89942">
        <ele>95.66</ele>
        <time>2022-09-11T09:26:37Z</time>
      </trkpt>
      <trkpt lat="49.14717" lon="1.89963">
        <ele>95.41</ele>
        <time>2022-09-11T09:26:51Z</time>
      </trkpt>
      <trkpt lat="49.1471" lon="1.89983">
        <ele>95.42</ele>
        <time>2022-09-11T09:27:03Z</time>
      </trkpt>
      <trkpt lat="49.14705" lon="1.9">
        <ele>95.17</ele>
        <time>2022-09-11T09:27:13Z</time>
      </trkpt>
      <trkpt lat="49.14698" lon="1.90018">
        <ele>94.19</ele>
        <time>2022-09-11T09:27:24Z</time>
      </trkpt>
      <trkpt lat="49.1469" lon="1.90034">
        <ele>94.22</ele>
        <time>2022-09-11T09:27:35Z</time>
      </trkpt>
      <trkpt lat="49.14679" lon="1.90046">
        <ele>95.01</ele>
        <time>2022-09-11T09:27:47Z</time>
      </trkpt>
      <trkpt lat="49.14662" lon="1.90055">
        <ele>95.17</ele>
        <time>2022-09-11T09:28:01Z</time>
      </trkpt>
      <trkpt lat="49.14661" lon="1.90056">
        <ele>95</ele>
        <time>2022-09-11T09:28:02Z</time>
      </trkpt>
      <trkpt lat="49.14646" lon="1.90062">
        <ele>95.19</ele>
        <time>2022-09-11T09:28:15Z</time>
      </trkpt>
      <trkpt lat="49.14631" lon="1.90067">
        <ele>95.15</ele>
        <time>2022-09-11T09:28:29Z</time>
      </trkpt>
      <trkpt lat="49.14626" lon="1.90067">
        <ele>95.04</ele>
        <time>2022-09-11T09:28:33Z</time>
      </trkpt>
      <trkpt lat="49.14612" lon="1.90073">
        <ele>95.24</ele>
        <time>2022-09-11T09:28:46Z</time>
      </trkpt>
      <trkpt lat="49.14598" lon="1.90085">
        <ele>95.16</ele>
        <time>2022-09-11T09:29:01Z</time>
      </trkpt>
      <trkpt lat="49.14589" lon="1.901">
        <ele>95.25</ele>
        <time>2022-09-11T09:29:12Z</time>
      </trkpt>
      <trkpt lat="49.14579" lon="1.90113">
        <ele>95.65</ele>
        <time>2022-09-11T09:29:23Z</time>
      </trkpt>
      <trkpt lat="49.14571" lon="1.90128">
        <ele>95.67</ele>
        <time>2022-09-11T09:29:33Z</time>
      </trkpt>
      <trkpt lat="49.14568" lon="1.90144">
        <ele>96.04</ele>
        <time>2022-09-11T09:29:43Z</time>
      </trkpt>
      <trkpt lat="49.14568" lon="1.90154">
        <ele>96.28</ele>
        <time>2022-09-11T09:29:54Z</time>
      </trkpt>
      <trkpt lat="49.14564" lon="1.90161">
        <ele>95.4</ele>
        <time>2022-09-11T09:30:00Z</time>
      </trkpt>
      <trkpt lat="49.14557" lon="1.90169">
        <ele>95.76</ele>
        <time>2022-09-11T09:30:11Z</time>
      </trkpt>
      <trkpt lat="49.14561" lon="1.90167">
        <ele>95.51</ele>
        <time>2022-09-11T09:30:21Z</time>
      </trkpt>
      <trkpt lat="49.14566" lon="1.90167">
        <ele>95.31</ele>
        <time>2022-09-11T09:30:37Z</time>
      </trkpt>
      <trkpt lat="49.14568" lon="1.90167">
        <ele>95.41</ele>
        <time>2022-09-11T09:30:51Z</time>
      </trkpt>
      <trkpt lat="49.14558" lon="1.90174">
        <ele>95.67</ele>
        <time>2022-09-11T09:31:04Z</time>
      </trkpt>
      <trkpt lat="49.14549" lon="1.90186">
        <ele>94.93</ele>
        <time>2022-09-11T09:31:17Z</time>
      </trkpt>
      <trkpt lat="49.14539" lon="1.90209">
        <ele>93.83</ele>
        <time>2022-09-11T09:31:33Z</time>
      </trkpt>
      <trkpt lat="49.14533" lon="1.90225">
        <ele>94.64</ele>
        <time>2022-09-11T09:31:45Z</time>
      </trkpt>
      <trkpt lat="49.14533" lon="1.90227">
        <ele>94.64</ele>
        <time>2022-09-11T09:31:46Z</time>
      </trkpt>
      <trkpt lat="49.14532" lon="1.9025">
        <ele>93.65</ele>
        <time>2022-09-11T09:31:59Z</time>
      </trkpt>
      <trkpt lat="49.14532" lon="1.90276">
        <ele>93.49</ele>
        <time>2022-09-11T09:32:13Z</time>
      </trkpt>
      <trkpt lat="49.14534" lon="1.90287">
        <ele>93.24</ele>
        <time>2022-09-11T09:32:23Z</time>
      </trkpt>
      <trkpt lat="49.14534" lon="1.90294">
        <ele>92.9</ele>
        <time>2022-09-11T09:32:32Z</time>
      </trkpt>
      <trkpt lat="49.14534" lon="1.90314">
        <ele>92.62</ele>
        <time>2022-09-11T09:32:46Z</time>
      </trkpt>
      <trkpt lat="49.14529" lon="1.90344">
        <ele>92.75</ele>
        <time>2022-09-11T09:33:01Z</time>
      </trkpt>
      <trkpt lat="49.14525" lon="1.90362">
        <ele>91.87</ele>
        <time>2022-09-11T09:33:13Z</time>
      </trkpt>
      <trkpt lat="49.14523" lon="1.90373">
        <ele>91.98</ele>
        <time>2022-09-11T09:33:20Z</time>
      </trkpt>
      <trkpt lat="49.1452" lon="1.90382">
        <ele>92.07</ele>
        <time>2022-09-11T09:33:25Z</time>
      </trkpt>
      <trkpt lat="49.14523" lon="1.90391">
        <ele>91.89</ele>
        <time>2022-09-11T09:33:36Z</time>
      </trkpt>
      <trkpt lat="49.14519" lon="1.90414">
        <ele>91.76</ele>
        <time>2022-09-11T09:33:49Z</time>
      </trkpt>
      <trkpt lat="49.14511" lon="1.90441">
        <ele>91.23</ele>
        <time>2022-09-11T09:34:06Z</time>
      </trkpt>
      <trkpt lat="49.14505" lon="1.90459">
        <ele>90.93</ele>
        <time>2022-09-11T09:34:17Z</time>
      </trkpt>
      <trkpt lat="49.14495" lon="1.90486">
        <ele>91.12</ele>
        <time>2022-09-11T09:34:35Z</time>
      </trkpt>
      <trkpt lat="49.14487" lon="1.90507">
        <ele>90.64</ele>
        <time>2022-09-11T09:34:50Z</time>
      </trkpt>
      <trkpt lat="49.14483" lon="1.90519">
        <ele>90.31</ele>
        <time>2022-09-11T09:34:58Z</time>
      </trkpt>
      <trkpt lat="49.14477" lon="1.90537">
        <ele>90.28</ele>
        <time>2022-09-11T09:35:10Z</time>
      </trkpt>
      <trkpt lat="49.14473" lon="1.90546">
        <ele>90.4</ele>
        <time>2022-09-11T09:35:16Z</time>
      </trkpt>
      <trkpt lat="49.14469" lon="1.90561">
        <ele>90.5</ele>
        <time>2022-09-11T09:35:26Z</time>
      </trkpt>
      <trkpt lat="49.14464" lon="1.90578">
        <ele>90.33</ele>
        <time>2022-09-11T09:35:38Z</time>
      </trkpt>
      <trkpt lat="49.14457" lon="1.90602">
        <ele>89.71</ele>
        <time>2022-09-11T09:35:55Z</time>
      </trkpt>
      <trkpt lat="49.14452" lon="1.90619">
        <ele>89.41</ele>
        <time>2022-09-11T09:36:07Z</time>
      </trkpt>
      <trkpt lat="49.14446" lon="1.9064">
        <ele>89.6</ele>
        <time>2022-09-11T09:36:20Z</time>
      </trkpt>
      <trkpt lat="49.1444" lon="1.90662">
        <ele>89.49</ele>
        <time>2022-09-11T09:36:34Z</time>
      </trkpt>
      <trkpt lat="49.14433" lon="1.90685">
        <ele>89.12</ele>
        <time>2022-09-11T09:36:48Z</time>
      </trkpt>
      <trkpt lat="49.14427" lon="1.90704">
        <ele>89.11</ele>
        <time>2022-09-11T09:37:01Z</time>
      </trkpt>
      <trkpt lat="49.14426" lon="1.9071">
        <ele>88.71</ele>
        <time>2022-09-11T09:37:16Z</time>
      </trkpt>
      <trkpt lat="49.14422" lon="1.90724">
        <ele>88.14</ele>
        <time>2022-09-11T09:37:34Z</time>
      </trkpt>
      <trkpt lat="49.14418" lon="1.90738">
        <ele>88.34</ele>
        <time>2022-09-11T09:37:44Z</time>
      </trkpt>
      <trkpt lat="49.14414" lon="1.90755">
        <ele>88.69</ele>
        <time>2022-09-11T09:37:55Z</time>
      </trkpt>
      <trkpt lat="49.14408" lon="1.90775">
        <ele>88.84</ele>
        <time>2022-09-11T09:38:07Z</time>
      </trkpt>
      <trkpt lat="49.14402" lon="1.908">
        <ele>88.95</ele>
        <time>2022-09-11T09:38:23Z</time>
      </trkpt>
      <trkpt lat="49.14399" lon="1.90817">
        <ele>87.97</ele>
        <time>2022-09-11T09:38:34Z</time>
      </trkpt>
      <trkpt lat="49.14394" lon="1.9084">
        <ele>88.56</ele>
        <time>2022-09-11T09:38:48Z</time>
      </trkpt>
      <trkpt lat="49.14389" lon="1.90861">
        <ele>87.77</ele>
        <time>2022-09-11T09:39:01Z</time>
      </trkpt>
      <trkpt lat="49.14384" lon="1.90889">
        <ele>88.01</ele>
        <time>2022-09-11T09:39:18Z</time>
      </trkpt>
      <trkpt lat="49.14378" lon="1.90915">
        <ele>88</ele>
        <time>2022-09-11T09:39:35Z</time>
      </trkpt>
      <trkpt lat="49.14374" lon="1.90939">
        <ele>87.69</ele>
        <time>2022-09-11T09:39:50Z</time>
      </trkpt>
      <trkpt lat="49.14369" lon="1.90958">
        <ele>87.37</ele>
        <time>2022-09-11T09:40:03Z</time>
      </trkpt>
      <trkpt lat="49.14366" lon="1.90977">
        <ele>86.54</ele>
        <time>2022-09-11T09:40:17Z</time>
      </trkpt>
      <trkpt lat="49.14363" lon="1.90994">
        <ele>86.06</ele>
        <time>2022-09-11T09:40:28Z</time>
      </trkpt>
      <trkpt lat="49.14359" lon="1.91014">
        <ele>86.75</ele>
        <time>2022-09-11T09:40:39Z</time>
      </trkpt>
      <trkpt lat="49.14354" lon="1.91036">
        <ele>85.82</ele>
        <time>2022-09-11T09:40:52Z</time>
      </trkpt>
      <trkpt lat="49.14348" lon="1.9106">
        <ele>86.09</ele>
        <time>2022-09-11T09:41:06Z</time>
      </trkpt>
      <trkpt lat="49.14343" lon="1.91077">
        <ele>85.26</ele>
        <time>2022-09-11T09:41:18Z</time>
      </trkpt>
      <trkpt lat="49.14339" lon="1.91096">
        <ele>85.61</ele>
        <time>2022-09-11T09:41:29Z</time>
      </trkpt>
      <trkpt lat="49.14332" lon="1.91117">
        <ele>84.84</ele>
        <time>2022-09-11T09:41:42Z</time>
      </trkpt>
      <trkpt lat="49.14322" lon="1.91135">
        <ele>84.88</ele>
        <time>2022-09-11T09:41:55Z</time>
      </trkpt>
      <trkpt lat="49.14311" lon="1.91151">
        <ele>84.68</ele>
        <time>2022-09-11T09:42:09Z</time>
      </trkpt>
      <trkpt lat="49.14301" lon="1.91164">
        <ele>84.56</ele>
        <time>2022-09-11T09:42:21Z</time>
      </trkpt>
      <trkpt lat="49.143" lon="1.91165">
        <ele>84.21</ele>
        <time>2022-09-11T09:42:22Z</time>
      </trkpt>
      <trkpt lat="49.14292" lon="1.91174">
        <ele>84.6</ele>
        <time>2022-09-11T09:42:33Z</time>
      </trkpt>
      <trkpt lat="49.14289" lon="1.91176">
        <ele>84.31</ele>
        <time>2022-09-11T09:42:47Z</time>
      </trkpt>
      <trkpt lat="49.14287" lon="1.91173">
        <ele>84.15</ele>
        <time>2022-09-11T09:43:02Z</time>
      </trkpt>
      <trkpt lat="49.14286" lon="1.91174">
        <ele>84.69</ele>
        <time>2022-09-11T09:43:19Z</time>
      </trkpt>
      <trkpt lat="49.14283" lon="1.91167">
        <ele>84.37</ele>
        <time>2022-09-11T09:43:32Z</time>
      </trkpt>
      <trkpt lat="49.14275" lon="1.9115">
        <ele>83.51</ele>
        <time>2022-09-11T09:43:45Z</time>
      </trkpt>
      <trkpt lat="49.14272" lon="1.91143">
        <ele>83.52</ele>
        <time>2022-09-11T09:43:50Z</time>
      </trkpt>
      <trkpt lat="49.14264" lon="1.9113">
        <ele>83.5</ele>
        <time>2022-09-11T09:44:01Z</time>
      </trkpt>
      <trkpt lat="49.14257" lon="1.91117">
        <ele>83.16</ele>
        <time>2022-09-11T09:44:11Z</time>
      </trkpt>
      <trkpt lat="49.14246" lon="1.91099">
        <ele>83.48</ele>
        <time>2022-09-11T09:44:25Z</time>
      </trkpt>
      <trkpt lat="49.14237" lon="1.91084">
        <ele>83.23</ele>
        <time>2022-09-11T09:44:37Z</time>
      </trkpt>
      <trkpt lat="49.14228" lon="1.91071">
        <ele>83.72</ele>
        <time>2022-09-11T09:44:48Z</time>
      </trkpt>
      <trkpt lat="49.14216" lon="1.91054">
        <ele>84.08</ele>
        <time>2022-09-11T09:45:01Z</time>
      </trkpt>
      <trkpt lat="49.14207" lon="1.91041">
        <ele>85.31</ele>
        <time>2022-09-11T09:45:12Z</time>
      </trkpt>
      <trkpt lat="49.14197" lon="1.91027">
        <ele>85.51</ele>
        <time>2022-09-11T09:45:24Z</time>
      </trkpt>
      <trkpt lat="49.14187" lon="1.9101">
        <ele>85.84</ele>
        <time>2022-09-11T09:45:38Z</time>
      </trkpt>
      <trkpt lat="49.14179" lon="1.90994">
        <ele>86.32</ele>
        <time>2022-09-11T09:45:50Z</time>
      </trkpt>
      <trkpt lat="49.1417" lon="1.90975">
        <ele>86.92</ele>
        <time>2022-09-11T09:46:03Z</time>
      </trkpt>
      <trkpt lat="49.14163" lon="1.90964">
        <ele>87.21</ele>
        <time>2022-09-11T09:46:12Z</time>
      </trkpt>
      <trkpt lat="49.14154" lon="1.90947">
        <ele>87.69</ele>
        <time>2022-09-11T09:46:24Z</time>
      </trkpt>
      <trkpt lat="49.14145" lon="1.90928">
        <ele>87.79</ele>
        <time>2022-09-11T09:46:37Z</time>
      </trkpt>
      <trkpt lat="49.14137" lon="1.90912">
        <ele>88.08</ele>
        <time>2022-09-11T09:46:49Z</time>
      </trkpt>
      <trkpt lat="49.14127" lon="1.90893">
        <ele>88.2</ele>
        <time>2022-09-11T09:47:03Z</time>
      </trkpt>
      <trkpt lat="49.14118" lon="1.90875">
        <ele>88.7</ele>
        <time>2022-09-11T09:47:16Z</time>
      </trkpt>
      <trkpt lat="49.14107" lon="1.90852">
        <ele>88.88</ele>
        <time>2022-09-11T09:47:31Z</time>
      </trkpt>
      <trkpt lat="49.14098" lon="1.90829">
        <ele>89.23</ele>
        <time>2022-09-11T09:47:46Z</time>
      </trkpt>
      <trkpt lat="49.14089" lon="1.90809">
        <ele>89.48</ele>
        <time>2022-09-11T09:47:59Z</time>
      </trkpt>
      <trkpt lat="49.14079" lon="1.90784">
        <ele>89.76</ele>
        <time>2022-09-11T09:48:14Z</time>
      </trkpt>
      <trkpt lat="49.14069" lon="1.90761">
        <ele>89.73</ele>
        <time>2022-09-11T09:48:29Z</time>
      </trkpt>
      <trkpt lat="49.14064" lon="1.90751">
        <ele>90.03</ele>
        <time>2022-09-11T09:48:36Z</time>
      </trkpt>
      <trkpt lat="49.14054" lon="1.90732">
        <ele>89.99</ele>
        <time>2022-09-11T09:48:49Z</time>
      </trkpt>
      <trkpt lat="49.14048" lon="1.90718">
        <ele>90.16</ele>
        <time>2022-09-11T09:48:59Z</time>
      </trkpt>
      <trkpt lat="49.1404" lon="1.907">
        <ele>89.77</ele>
        <time>2022-09-11T09:49:11Z</time>
      </trkpt>
      <trkpt lat="49.1403" lon="1.90681">
        <ele>89.9</ele>
        <time>2022-09-11T09:49:24Z</time>
      </trkpt>
      <trkpt lat="49.14021" lon="1.9066">
        <ele>89.73</ele>
        <time>2022-09-11T09:49:38Z</time>
      </trkpt>
      <trkpt lat="49.14011" lon="1.90638">
        <ele>90.87</ele>
        <time>2022-09-11T09:49:53Z</time>
      </trkpt>
      <trkpt lat="49.1401" lon="1.90637">
        <ele>90.7</ele>
        <time>2022-09-11T09:49:54Z</time>
      </trkpt>
      <trkpt lat="49.14002" lon="1.90621">
        <ele>90.58</ele>
        <time>2022-09-11T09:50:06Z</time>
      </trkpt>
      <trkpt lat="49.13994" lon="1.906">
        <ele>90.57</ele>
        <time>2022-09-11T09:50:19Z</time>
      </trkpt>
      <trkpt lat="49.13986" lon="1.90579">
        <ele>90.6</ele>
        <time>2022-09-11T09:50:33Z</time>
      </trkpt>
      <trkpt lat="49.1398" lon="1.90563">
        <ele>89.87</ele>
        <time>2022-09-11T09:50:43Z</time>
      </trkpt>
      <trkpt lat="49.13972" lon="1.90541">
        <ele>90.37</ele>
        <time>2022-09-11T09:50:57Z</time>
      </trkpt>
      <trkpt lat="49.13972" lon="1.90539">
        <ele>90.31</ele>
        <time>2022-09-11T09:50:58Z</time>
      </trkpt>
      <trkpt lat="49.13966" lon="1.9052">
        <ele>89.41</ele>
        <time>2022-09-11T09:51:10Z</time>
      </trkpt>
      <trkpt lat="49.13959" lon="1.90504">
        <ele>89.42</ele>
        <time>2022-09-11T09:51:22Z</time>
      </trkpt>
      <trkpt lat="49.13957" lon="1.90503">
        <ele>89.53</ele>
        <time>2022-09-11T09:51:36Z</time>
      </trkpt>
      <trkpt lat="49.13949" lon="1.90497">
        <ele>88.7</ele>
        <time>2022-09-11T09:51:50Z</time>
      </trkpt>
      <trkpt lat="49.13942" lon="1.90495">
        <ele>88.51</ele>
        <time>2022-09-11T09:51:59Z</time>
      </trkpt>
      <trkpt lat="49.13929" lon="1.90496">
        <ele>87.89</ele>
        <time>2022-09-11T09:52:11Z</time>
      </trkpt>
      <trkpt lat="49.13915" lon="1.90506">
        <ele>86.76</ele>
        <time>2022-09-11T09:52:26Z</time>
      </trkpt>
      <trkpt lat="49.13901" lon="1.90517">
        <ele>84.95</ele>
        <time>2022-09-11T09:52:40Z</time>
      </trkpt>
      <trkpt lat="49.1389" lon="1.90526">
        <ele>83.81</ele>
        <time>2022-09-11T09:52:51Z</time>
      </trkpt>
      <trkpt lat="49.1388" lon="1.90534">
        <ele>82.41</ele>
        <time>2022-09-11T09:53:01Z</time>
      </trkpt>
      <trkpt lat="49.13869" lon="1.9054">
        <ele>81.76</ele>
        <time>2022-09-11T09:53:11Z</time>
      </trkpt>
      <trkpt lat="49.13856" lon="1.90546">
        <ele>80.39</ele>
        <time>2022-09-11T09:53:24Z</time>
      </trkpt>
      <trkpt lat="49.13839" lon="1.90551">
        <ele>79.12</ele>
        <time>2022-09-11T09:53:38Z</time>
      </trkpt>
      <trkpt lat="49.13826" lon="1.90557">
        <ele>78.15</ele>
        <time>2022-09-11T09:53:50Z</time>
      </trkpt>
      <trkpt lat="49.13824" lon="1.9056">
        <ele>78</ele>
        <time>2022-09-11T09:53:53Z</time>
      </trkpt>
      <trkpt lat="49.13822" lon="1.90564">
        <ele>78.13</ele>
        <time>2022-09-11T09:54:04Z</time>
      </trkpt>
      <trkpt lat="49.13819" lon="1.90573">
        <ele>77.56</ele>
        <time>2022-09-11T09:54:18Z</time>
      </trkpt>
      <trkpt lat="49.13819" lon="1.9059">
        <ele>77.5</ele>
        <time>2022-09-11T09:54:31Z</time>
      </trkpt>
      <trkpt lat="49.13819" lon="1.90612">
        <ele>77.16</ele>
        <time>2022-09-11T09:54:47Z</time>
      </trkpt>
      <trkpt lat="49.13819" lon="1.90613">
        <ele>77.23</ele>
        <time>2022-09-11T09:54:48Z</time>
      </trkpt>
      <trkpt lat="49.1382" lon="1.90637">
        <ele>76.59</ele>
        <time>2022-09-11T09:55:02Z</time>
      </trkpt>
      <trkpt lat="49.13821" lon="1.90656">
        <ele>76.76</ele>
        <time>2022-09-11T09:55:14Z</time>
      </trkpt>
      <trkpt lat="49.13825" lon="1.90677">
        <ele>77.24</ele>
        <time>2022-09-11T09:55:27Z</time>
      </trkpt>
      <trkpt lat="49.1383" lon="1.90699">
        <ele>77.62</ele>
        <time>2022-09-11T09:55:42Z</time>
      </trkpt>
      <trkpt lat="49.13832" lon="1.90719">
        <ele>77.27</ele>
        <time>2022-09-11T09:55:55Z</time>
      </trkpt>
      <trkpt lat="49.13833" lon="1.90737">
        <ele>78.5</ele>
        <time>2022-09-11T09:56:06Z</time>
      </trkpt>
      <trkpt lat="49.13837" lon="1.90736">
        <ele>78.37</ele>
        <time>2022-09-11T09:56:15Z</time>
      </trkpt>
      <trkpt lat="49.13837" lon="1.90735">
        <ele>78.2</ele>
        <time>2022-09-11T09:56:27Z</time>
      </trkpt>
      <trkpt lat="49.13837" lon="1.90742">
        <ele>78.02</ele>
        <time>2022-09-11T09:56:36Z</time>
      </trkpt>
      <trkpt lat="49.13838" lon="1.90744">
        <ele>78.6</ele>
        <time>2022-09-11T09:56:38Z</time>
      </trkpt>
      <trkpt lat="49.13837" lon="1.90749">
        <ele>78.43</ele>
        <time>2022-09-11T09:56:41Z</time>
      </trkpt>
      <trkpt lat="49.13837" lon="1.90773">
        <ele>79.73</ele>
        <time>2022-09-11T09:56:55Z</time>
      </trkpt>
      <trkpt lat="49.1384" lon="1.90771">
        <ele>79.65</ele>
        <time>2022-09-11T09:57:08Z</time>
      </trkpt>
      <trkpt lat="49.1384" lon="1.90767">
        <ele>79.61</ele>
        <time>2022-09-11T09:57:22Z</time>
      </trkpt>
      <trkpt lat="49.1384" lon="1.90761">
        <ele>79.15</ele>
        <time>2022-09-11T09:57:33Z</time>
      </trkpt>
      <trkpt lat="49.1384" lon="1.90756">
        <ele>79.46</ele>
        <time>2022-09-11T09:57:46Z</time>
      </trkpt>
      <trkpt lat="49.13842" lon="1.9075">
        <ele>78.52</ele>
        <time>2022-09-11T09:58:02Z</time>
      </trkpt>
      <trkpt lat="49.13844" lon="1.90753">
        <ele>77.53</ele>
        <time>2022-09-11T09:58:16Z</time>
      </trkpt>
      <trkpt lat="49.13842" lon="1.90764">
        <ele>77.64</ele>
        <time>2022-09-11T09:58:30Z</time>
      </trkpt>
      <trkpt lat="49.13844" lon="1.90762">
        <ele>77.95</ele>
        <time>2022-09-11T09:58:53Z</time>
      </trkpt>
      <trkpt lat="49.13845" lon="1.90767">
        <ele>78.04</ele>
        <time>2022-09-11T09:59:15Z</time>
      </trkpt>
      <trkpt lat="49.13842" lon="1.90769">
        <ele>77.64</ele>
        <time>2022-09-11T09:59:30Z</time>
      </trkpt>
      <trkpt lat="49.13843" lon="1.90769">
        <ele>77.81</ele>
        <time>2022-09-11T09:59:36Z</time>
      </trkpt>
      <trkpt lat="49.13845" lon="1.90765">
        <ele>78</ele>
        <time>2022-09-11T09:59:53Z</time>
      </trkpt>
      <trkpt lat="49.13848" lon="1.90764">
        <ele>77.85</ele>
        <time>2022-09-11T10:00:12Z</time>
      </trkpt>
      <trkpt lat="49.13846" lon="1.90762">
        <ele>78.29</ele>
        <time>2022-09-11T10:00:29Z</time>
      </trkpt>
      <trkpt lat="49.13845" lon="1.90762">
        <ele>78.04</ele>
        <time>2022-09-11T10:00:40Z</time>
      </trkpt>
      <trkpt lat="49.13842" lon="1.90764">
        <ele>78.23</ele>
        <time>2022-09-11T10:00:52Z</time>
      </trkpt>
      <trkpt lat="49.13843" lon="1.90764">
        <ele>78.11</ele>
        <time>2022-09-11T10:01:04Z</time>
      </trkpt>
      <trkpt lat="49.13844" lon="1.90765">
        <ele>77.89</ele>
        <time>2022-09-11T10:01:07Z</time>
      </trkpt>
      <trkpt lat="49.13846" lon="1.90765">
        <ele>77.85</ele>
        <time>2022-09-11T10:01:16Z</time>
      </trkpt>
      <trkpt lat="49.13844" lon="1.90764">
        <ele>78.06</ele>
        <time>2022-09-11T10:01:28Z</time>
      </trkpt>
      <trkpt lat="49.13842" lon="1.90765">
        <ele>78.13</ele>
        <time>2022-09-11T10:01:38Z</time>
      </trkpt>
      <trkpt lat="49.13841" lon="1.90761">
        <ele>77.91</ele>
        <time>2022-09-11T10:01:50Z</time>
      </trkpt>
      <trkpt lat="49.1384" lon="1.90763">
        <ele>77.93</ele>
        <time>2022-09-11T10:02:12Z</time>
      </trkpt>
      <trkpt lat="49.13843" lon="1.90764">
        <ele>78</ele>
        <time>2022-09-11T10:02:29Z</time>
      </trkpt>
      <trkpt lat="49.13845" lon="1.90764">
        <ele>78.17</ele>
        <time>2022-09-11T10:02:51Z</time>
      </trkpt>
      <trkpt lat="49.13844" lon="1.90763">
        <ele>77.99</ele>
        <time>2022-09-11T10:03:17Z</time>
      </trkpt>
      <trkpt lat="49.13845" lon="1.90768">
        <ele>77.81</ele>
        <time>2022-09-11T10:03:42Z</time>
      </trkpt>
      <trkpt lat="49.13844" lon="1.90768">
        <ele>78.06</ele>
        <time>2022-09-11T10:04:05Z</time>
      </trkpt>
      <trkpt lat="49.13842" lon="1.90763">
        <ele>77.96</ele>
        <time>2022-09-11T10:04:30Z</time>
      </trkpt>
      <trkpt lat="49.13845" lon="1.90764">
        <ele>77.83</ele>
        <time>2022-09-11T10:04:50Z</time>
      </trkpt>
      <trkpt lat="49.13843" lon="1.90764">
        <ele>77.56</ele>
        <time>2022-09-11T10:05:14Z</time>
      </trkpt>
      <trkpt lat="49.13845" lon="1.90765">
        <ele>78.2</ele>
        <time>2022-09-11T10:05:36Z</time>
      </trkpt>
      <trkpt lat="49.13846" lon="1.90769">
        <ele>78.26</ele>
        <time>2022-09-11T10:05:50Z</time>
      </trkpt>
      <trkpt lat="49.13848" lon="1.90773">
        <ele>77.92</ele>
        <time>2022-09-11T10:06:08Z</time>
      </trkpt>
      <trkpt lat="49.13848" lon="1.90773">
        <ele>78.49</ele>
        <time>2022-09-11T10:06:28Z</time>
      </trkpt>
      <trkpt lat="49.13849" lon="1.90775">
        <ele>77.96</ele>
        <time>2022-09-11T10:06:46Z</time>
      </trkpt>
      <trkpt lat="49.13849" lon="1.90775">
        <ele>77.38</ele>
        <time>2022-09-11T10:07:03Z</time>
      </trkpt>
      <trkpt lat="49.13849" lon="1.90775">
        <ele>77.84</ele>
        <time>2022-09-11T10:07:24Z</time>
      </trkpt>
      <trkpt lat="49.13849" lon="1.90775">
        <ele>78.19</ele>
        <time>2022-09-11T10:07:41Z</time>
      </trkpt>
      <trkpt lat="49.13848" lon="1.90775">
        <ele>77.69</ele>
        <time>2022-09-11T10:07:56Z</time>
      </trkpt>
      <trkpt lat="49.13847" lon="1.90773">
        <ele>77.83</ele>
        <time>2022-09-11T10:08:09Z</time>
      </trkpt>
      <trkpt lat="49.13847" lon="1.90773">
        <ele>78.26</ele>
        <time>2022-09-11T10:08:14Z</time>
      </trkpt>
      <trkpt lat="49.13847" lon="1.90773">
        <ele>77.75</ele>
        <time>2022-09-11T10:08:24Z</time>
      </trkpt>
      <trkpt lat="49.13845" lon="1.90774">
        <ele>77.61</ele>
        <time>2022-09-11T10:08:47Z</time>
      </trkpt>
      <trkpt lat="49.13844" lon="1.90775">
        <ele>77.61</ele>
        <time>2022-09-11T10:09:03Z</time>
      </trkpt>
      <trkpt lat="49.13843" lon="1.90776">
        <ele>77.56</ele>
        <time>2022-09-11T10:09:13Z</time>
      </trkpt>
      <trkpt lat="49.13841" lon="1.9077">
        <ele>77.86</ele>
        <time>2022-09-11T10:09:31Z</time>
      </trkpt>
      <trkpt lat="49.13841" lon="1.90763">
        <ele>77.1</ele>
        <time>2022-09-11T10:09:49Z</time>
      </trkpt>
      <trkpt lat="49.1384" lon="1.90764">
        <ele>77.12</ele>
        <time>2022-09-11T10:10:14Z</time>
      </trkpt>
      <trkpt lat="49.1384" lon="1.90764">
        <ele>77.31</ele>
        <time>2022-09-11T10:10:39Z</time>
      </trkpt>
      <trkpt lat="49.13839" lon="1.90764">
        <ele>76.87</ele>
        <time>2022-09-11T10:11:05Z</time>
      </trkpt>
      <trkpt lat="49.13839" lon="1.90762">
        <ele>77.34</ele>
        <time>2022-09-11T10:11:29Z</time>
      </trkpt>
      <trkpt lat="49.13845" lon="1.90759">
        <ele>76.63</ele>
        <time>2022-09-11T10:11:41Z</time>
      </trkpt>
      <trkpt lat="49.13849" lon="1.9076">
        <ele>76.67</ele>
        <time>2022-09-11T10:11:59Z</time>
      </trkpt>
      <trkpt lat="49.13852" lon="1.90771">
        <ele>75.74</ele>
        <time>2022-09-11T10:12:10Z</time>
      </trkpt>
      <trkpt lat="49.13859" lon="1.90783">
        <ele>75.21</ele>
        <time>2022-09-11T10:12:21Z</time>
      </trkpt>
      <trkpt lat="49.13862" lon="1.90783">
        <ele>74.63</ele>
        <time>2022-09-11T10:12:45Z</time>
      </trkpt>
      <trkpt lat="49.13854" lon="1.90781">
        <ele>75.5</ele>
        <time>2022-09-11T10:13:01Z</time>
      </trkpt>
      <trkpt lat="49.13847" lon="1.90779">
        <ele>76.57</ele>
        <time>2022-09-11T10:13:16Z</time>
      </trkpt>
      <trkpt lat="49.13843" lon="1.90775">
        <ele>76.64</ele>
        <time>2022-09-11T10:13:37Z</time>
      </trkpt>
      <trkpt lat="49.13842" lon="1.90764">
        <ele>76.27</ele>
        <time>2022-09-11T10:13:52Z</time>
      </trkpt>
      <trkpt lat="49.13841" lon="1.90763">
        <ele>76.06</ele>
        <time>2022-09-11T10:14:05Z</time>
      </trkpt>
      <trkpt lat="49.1384" lon="1.90764">
        <ele>76.83</ele>
        <time>2022-09-11T10:14:24Z</time>
      </trkpt>
      <trkpt lat="49.1384" lon="1.90763">
        <ele>75.94</ele>
        <time>2022-09-11T10:14:25Z</time>
      </trkpt>
      <trkpt lat="49.1384" lon="1.90764">
        <ele>76.16</ele>
        <time>2022-09-11T10:14:47Z</time>
      </trkpt>
      <trkpt lat="49.13839" lon="1.90764">
        <ele>76.31</ele>
        <time>2022-09-11T10:15:08Z</time>
      </trkpt>
      <trkpt lat="49.13839" lon="1.90764">
        <ele>76.09</ele>
        <time>2022-09-11T10:15:19Z</time>
      </trkpt>
      <trkpt lat="49.1384" lon="1.90765">
        <ele>76.33</ele>
        <time>2022-09-11T10:15:43Z</time>
      </trkpt>
      <trkpt lat="49.13839" lon="1.90764">
        <ele>75.92</ele>
        <time>2022-09-11T10:15:44Z</time>
      </trkpt>
      <trkpt lat="49.1384" lon="1.90765">
        <ele>76.1</ele>
        <time>2022-09-11T10:15:55Z</time>
      </trkpt>
      <trkpt lat="49.13839" lon="1.90763">
        <ele>75.94</ele>
        <time>2022-09-11T10:16:19Z</time>
      </trkpt>
      <trkpt lat="49.13839" lon="1.90764">
        <ele>76.1</ele>
        <time>2022-09-11T10:16:36Z</time>
      </trkpt>
      <trkpt lat="49.13842" lon="1.90763">
        <ele>76.07</ele>
        <time>2022-09-11T10:16:54Z</time>
      </trkpt>
      <trkpt lat="49.13843" lon="1.90767">
        <ele>75.97</ele>
        <time>2022-09-11T10:17:22Z</time>
      </trkpt>
      <trkpt lat="49.1384" lon="1.90759">
        <ele>76.24</ele>
        <time>2022-09-11T10:17:58Z</time>
      </trkpt>
      <trkpt lat="49.1384" lon="1.90759">
        <ele>75.92</ele>
        <time>2022-09-11T10:18:03Z</time>
      </trkpt>
      <trkpt lat="49.13839" lon="1.9076">
        <ele>76</ele>
        <time>2022-09-11T10:18:27Z</time>
      </trkpt>
      <trkpt lat="49.1384" lon="1.90762">
        <ele>75.68</ele>
        <time>2022-09-11T10:18:46Z</time>
      </trkpt>
      <trkpt lat="49.13844" lon="1.90762">
        <ele>76.13</ele>
        <time>2022-09-11T10:18:58Z</time>
      </trkpt>
      <trkpt lat="49.13842" lon="1.9077">
        <ele>75.82</ele>
        <time>2022-09-11T10:19:15Z</time>
      </trkpt>
      <trkpt lat="49.13844" lon="1.90771">
        <ele>75.46</ele>
        <time>2022-09-11T10:19:28Z</time>
      </trkpt>
      <trkpt lat="49.13846" lon="1.90772">
        <ele>75.54</ele>
        <time>2022-09-11T10:19:46Z</time>
      </trkpt>
      <trkpt lat="49.13846" lon="1.90774">
        <ele>75.53</ele>
        <time>2022-09-11T10:20:00Z</time>
      </trkpt>
      <trkpt lat="49.13846" lon="1.90776">
        <ele>75.82</ele>
        <time>2022-09-11T10:20:17Z</time>
      </trkpt>
      <trkpt lat="49.13846" lon="1.90775">
        <ele>74.94</ele>
        <time>2022-09-11T10:20:39Z</time>
      </trkpt>
      <trkpt lat="49.13846" lon="1.90777">
        <ele>75.06</ele>
        <time>2022-09-11T10:20:57Z</time>
      </trkpt>
      <trkpt lat="49.13845" lon="1.90773">
        <ele>74.93</ele>
        <time>2022-09-11T10:21:14Z</time>
      </trkpt>
      <trkpt lat="49.13842" lon="1.90764">
        <ele>74.83</ele>
        <time>2022-09-11T10:21:28Z</time>
      </trkpt>
      <trkpt lat="49.13841" lon="1.90763">
        <ele>75.31</ele>
        <time>2022-09-11T10:21:50Z</time>
      </trkpt>
      <trkpt lat="49.1384" lon="1.90762">
        <ele>74.69</ele>
        <time>2022-09-11T10:22:10Z</time>
      </trkpt>
      <trkpt lat="49.13843" lon="1.90762">
        <ele>75.52</ele>
        <time>2022-09-11T10:22:27Z</time>
      </trkpt>
      <trkpt lat="49.13843" lon="1.90764">
        <ele>75.24</ele>
        <time>2022-09-11T10:22:45Z</time>
      </trkpt>
      <trkpt lat="49.13842" lon="1.90763">
        <ele>75.44</ele>
        <time>2022-09-11T10:23:04Z</time>
      </trkpt>
      <trkpt lat="49.13843" lon="1.90763">
        <ele>75.84</ele>
        <time>2022-09-11T10:23:27Z</time>
      </trkpt>
      <trkpt lat="49.1384" lon="1.90761">
        <ele>75.16</ele>
        <time>2022-09-11T10:23:55Z</time>
      </trkpt>
      <trkpt lat="49.1384" lon="1.90761">
        <ele>74.98</ele>
        <time>2022-09-11T10:24:16Z</time>
      </trkpt>
      <trkpt lat="49.13842" lon="1.90761">
        <ele>74.19</ele>
        <time>2022-09-11T10:24:44Z</time>
      </trkpt>
      <trkpt lat="49.13841" lon="1.9076">
        <ele>74.23</ele>
        <time>2022-09-11T10:25:06Z</time>
      </trkpt>
      <trkpt lat="49.1384" lon="1.90758">
        <ele>74.13</ele>
        <time>2022-09-11T10:25:36Z</time>
      </trkpt>
      <trkpt lat="49.1384" lon="1.90758">
        <ele>74.41</ele>
        <time>2022-09-11T10:26:00Z</time>
      </trkpt>
      <trkpt lat="49.13841" lon="1.90758">
        <ele>74.13</ele>
        <time>2022-09-11T10:26:23Z</time>
      </trkpt>
      <trkpt lat="49.13841" lon="1.90758">
        <ele>74.23</ele>
        <time>2022-09-11T10:26:55Z</time>
      </trkpt>
      <trkpt lat="49.13841" lon="1.90758">
        <ele>74.19</ele>
        <time>2022-09-11T10:27:31Z</time>
      </trkpt>
      <trkpt lat="49.13841" lon="1.90759">
        <ele>74.09</ele>
        <time>2022-09-11T10:28:08Z</time>
      </trkpt>
      <trkpt lat="49.13841" lon="1.90759">
        <ele>73.9</ele>
        <time>2022-09-11T10:28:37Z</time>
      </trkpt>
      <trkpt lat="49.13841" lon="1.90759">
        <ele>73.97</ele>
        <time>2022-09-11T10:29:08Z</time>
      </trkpt>
      <trkpt lat="49.13842" lon="1.90758">
        <ele>73.79</ele>
        <time>2022-09-11T10:29:54Z</time>
      </trkpt>
      <trkpt lat="49.13842" lon="1.90758">
        <ele>74.19</ele>
        <time>2022-09-11T10:30:37Z</time>
      </trkpt>
      <trkpt lat="49.13842" lon="1.90757">
        <ele>74.04</ele>
        <time>2022-09-11T10:31:00Z</time>
      </trkpt>
      <trkpt lat="49.13843" lon="1.90757">
        <ele>73.69</ele>
        <time>2022-09-11T10:31:27Z</time>
      </trkpt>
      <trkpt lat="49.13843" lon="1.90757">
        <ele>74.15</ele>
        <time>2022-09-11T10:31:58Z</time>
      </trkpt>
      <trkpt lat="49.13842" lon="1.90755">
        <ele>74.34</ele>
        <time>2022-09-11T10:32:47Z</time>
      </trkpt>
      <trkpt lat="49.13842" lon="1.90756">
        <ele>73.65</ele>
        <time>2022-09-11T10:33:21Z</time>
      </trkpt>
      <trkpt lat="49.13843" lon="1.90756">
        <ele>74.19</ele>
        <time>2022-09-11T10:33:52Z</time>
      </trkpt>
      <trkpt lat="49.13842" lon="1.90756">
        <ele>74.05</ele>
        <time>2022-09-11T10:34:42Z</time>
      </trkpt>
      <trkpt lat="49.13842" lon="1.90757">
        <ele>73.63</ele>
        <time>2022-09-11T10:35:23Z</time>
      </trkpt>
      <trkpt lat="49.13842" lon="1.90757">
        <ele>74.21</ele>
        <time>2022-09-11T10:36:02Z</time>
      </trkpt>
      <trkpt lat="49.13841" lon="1.90756">
        <ele>73.64</ele>
        <time>2022-09-11T10:36:44Z</time>
      </trkpt>
      <trkpt lat="49.13841" lon="1.90756">
        <ele>73.76</ele>
        <time>2022-09-11T10:37:10Z</time>
      </trkpt>
      <trkpt lat="49.13841" lon="1.90756">
        <ele>74.04</ele>
        <time>2022-09-11T10:37:32Z</time>
      </trkpt>
      <trkpt lat="49.13841" lon="1.90756">
        <ele>74.24</ele>
        <time>2022-09-11T10:38:08Z</time>
      </trkpt>
      <trkpt lat="49.13841" lon="1.90757">
        <ele>74.45</ele>
        <time>2022-09-11T10:38:35Z</time>
      </trkpt>
      <trkpt lat="49.13842" lon="1.90763">
        <ele>74.52</ele>
        <time>2022-09-11T10:38:48Z</time>
      </trkpt>
      <trkpt lat="49.13842" lon="1.90766">
        <ele>74.68</ele>
        <time>2022-09-11T10:39:03Z</time>
      </trkpt>
      <trkpt lat="49.13845" lon="1.90765">
        <ele>74.74</ele>
        <time>2022-09-11T10:39:19Z</time>
      </trkpt>
      <trkpt lat="49.13845" lon="1.90764">
        <ele>74.62</ele>
        <time>2022-09-11T10:39:37Z</time>
      </trkpt>
      <trkpt lat="49.13844" lon="1.90764">
        <ele>74.83</ele>
        <time>2022-09-11T10:39:58Z</time>
      </trkpt>
      <trkpt lat="49.13844" lon="1.90761">
        <ele>74.75</ele>
        <time>2022-09-11T10:40:12Z</time>
      </trkpt>
      <trkpt lat="49.13844" lon="1.90763">
        <ele>74.89</ele>
        <time>2022-09-11T10:40:30Z</time>
      </trkpt>
      <trkpt lat="49.13844" lon="1.90762">
        <ele>74.98</ele>
        <time>2022-09-11T10:40:50Z</time>
      </trkpt>
      <trkpt lat="49.13844" lon="1.90765">
        <ele>74.77</ele>
        <time>2022-09-11T10:41:11Z</time>
      </trkpt>
      <trkpt lat="49.13842" lon="1.9076">
        <ele>75.37</ele>
        <time>2022-09-11T10:41:32Z</time>
      </trkpt>
      <trkpt lat="49.13842" lon="1.90754">
        <ele>75.04</ele>
        <time>2022-09-11T10:41:45Z</time>
      </trkpt>
      <trkpt lat="49.13842" lon="1.90754">
        <ele>75.34</ele>
        <time>2022-09-11T10:42:01Z</time>
      </trkpt>
      <trkpt lat="49.13842" lon="1.90758">
        <ele>75.48</ele>
        <time>2022-09-11T10:42:14Z</time>
      </trkpt>
      <trkpt lat="49.13844" lon="1.90759">
        <ele>74.93</ele>
        <time>2022-09-11T10:42:29Z</time>
      </trkpt>
      <trkpt lat="49.13847" lon="1.90753">
        <ele>75.17</ele>
        <time>2022-09-11T10:42:40Z</time>
      </trkpt>
      <trkpt lat="49.13845" lon="1.90756">
        <ele>74.66</ele>
        <time>2022-09-11T10:42:59Z</time>
      </trkpt>
      <trkpt lat="49.13844" lon="1.90757">
        <ele>74.67</ele>
        <time>2022-09-11T10:43:22Z</time>
      </trkpt>
      <trkpt lat="49.13843" lon="1.90755">
        <ele>74.47</ele>
        <time>2022-09-11T10:43:38Z</time>
      </trkpt>
      <trkpt lat="49.13838" lon="1.90748">
        <ele>75.9</ele>
        <time>2022-09-11T10:43:52Z</time>
      </trkpt>
      <trkpt lat="49.13838" lon="1.9075">
        <ele>76.24</ele>
        <time>2022-09-11T10:44:15Z</time>
      </trkpt>
      <trkpt lat="49.13838" lon="1.90754">
        <ele>76.54</ele>
        <time>2022-09-11T10:44:26Z</time>
      </trkpt>
      <trkpt lat="49.13837" lon="1.9077">
        <ele>76.97</ele>
        <time>2022-09-11T10:44:44Z</time>
      </trkpt>
      <trkpt lat="49.13838" lon="1.90783">
        <ele>77.78</ele>
        <time>2022-09-11T10:44:56Z</time>
      </trkpt>
      <trkpt lat="49.13837" lon="1.90793">
        <ele>78.61</ele>
        <time>2022-09-11T10:45:07Z</time>
      </trkpt>
      <trkpt lat="49.13834" lon="1.90813">
        <ele>78.98</ele>
        <time>2022-09-11T10:45:24Z</time>
      </trkpt>
      <trkpt lat="49.1383" lon="1.90817">
        <ele>80.47</ele>
        <time>2022-09-11T10:45:30Z</time>
      </trkpt>
      <trkpt lat="49.13833" lon="1.90812">
        <ele>79.83</ele>
        <time>2022-09-11T10:45:51Z</time>
      </trkpt>
      <trkpt lat="49.13829" lon="1.90819">
        <ele>80.9</ele>
        <time>2022-09-11T10:46:02Z</time>
      </trkpt>
      <trkpt lat="49.13828" lon="1.90819">
        <ele>80.67</ele>
        <time>2022-09-11T10:46:03Z</time>
      </trkpt>
      <trkpt lat="49.13821" lon="1.90828">
        <ele>81.21</ele>
        <time>2022-09-11T10:46:15Z</time>
      </trkpt>
      <trkpt lat="49.13811" lon="1.90839">
        <ele>83.08</ele>
        <time>2022-09-11T10:46:31Z</time>
      </trkpt>
      <trkpt lat="49.13801" lon="1.90846">
        <ele>84.15</ele>
        <time>2022-09-11T10:46:47Z</time>
      </trkpt>
      <trkpt lat="49.13798" lon="1.90851">
        <ele>84.67</ele>
        <time>2022-09-11T10:46:52Z</time>
      </trkpt>
      <trkpt lat="49.13792" lon="1.90861">
        <ele>85.78</ele>
        <time>2022-09-11T10:47:05Z</time>
      </trkpt>
      <trkpt lat="49.13791" lon="1.90865">
        <ele>85.63</ele>
        <time>2022-09-11T10:47:21Z</time>
      </trkpt>
      <trkpt lat="49.1379" lon="1.90868">
        <ele>85.56</ele>
        <time>2022-09-11T10:47:26Z</time>
      </trkpt>
      <trkpt lat="49.13779" lon="1.90876">
        <ele>86.32</ele>
        <time>2022-09-11T10:47:38Z</time>
      </trkpt>
      <trkpt lat="49.13772" lon="1.90883">
        <ele>85.98</ele>
        <time>2022-09-11T10:47:45Z</time>
      </trkpt>
      <trkpt lat="49.13766" lon="1.90896">
        <ele>86.26</ele>
        <time>2022-09-11T10:47:57Z</time>
      </trkpt>
      <trkpt lat="49.13759" lon="1.90913">
        <ele>86.52</ele>
        <time>2022-09-11T10:48:08Z</time>
      </trkpt>
      <trkpt lat="49.13755" lon="1.90921">
        <ele>86.64</ele>
        <time>2022-09-11T10:48:14Z</time>
      </trkpt>
      <trkpt lat="49.13752" lon="1.90924">
        <ele>87.18</ele>
        <time>2022-09-11T10:48:18Z</time>
      </trkpt>
      <trkpt lat="49.1374" lon="1.90941">
        <ele>87.36</ele>
        <time>2022-09-11T10:48:31Z</time>
      </trkpt>
      <trkpt lat="49.13732" lon="1.90954">
        <ele>87.6</ele>
        <time>2022-09-11T10:48:43Z</time>
      </trkpt>
      <trkpt lat="49.13725" lon="1.90969">
        <ele>87.89</ele>
        <time>2022-09-11T10:48:55Z</time>
      </trkpt>
      <trkpt lat="49.13718" lon="1.90983">
        <ele>88.04</ele>
        <time>2022-09-11T10:49:04Z</time>
      </trkpt>
      <trkpt lat="49.13712" lon="1.90993">
        <ele>88.58</ele>
        <time>2022-09-11T10:49:12Z</time>
      </trkpt>
      <trkpt lat="49.13708" lon="1.91002">
        <ele>88.53</ele>
        <time>2022-09-11T10:49:18Z</time>
      </trkpt>
      <trkpt lat="49.13698" lon="1.91022">
        <ele>87.46</ele>
        <time>2022-09-11T10:49:32Z</time>
      </trkpt>
      <trkpt lat="49.13684" lon="1.91049">
        <ele>87.48</ele>
        <time>2022-09-11T10:49:51Z</time>
      </trkpt>
      <trkpt lat="49.13671" lon="1.9107">
        <ele>87.3</ele>
        <time>2022-09-11T10:50:07Z</time>
      </trkpt>
      <trkpt lat="49.13659" lon="1.9109">
        <ele>86.13</ele>
        <time>2022-09-11T10:50:22Z</time>
      </trkpt>
      <trkpt lat="49.13646" lon="1.91109">
        <ele>86.79</ele>
        <time>2022-09-11T10:50:38Z</time>
      </trkpt>
      <trkpt lat="49.13636" lon="1.91121">
        <ele>86.8</ele>
        <time>2022-09-11T10:50:50Z</time>
      </trkpt>
      <trkpt lat="49.13625" lon="1.91135">
        <ele>85.77</ele>
        <time>2022-09-11T10:51:04Z</time>
      </trkpt>
      <trkpt lat="49.13606" lon="1.91158">
        <ele>86.33</ele>
        <time>2022-09-11T10:51:26Z</time>
      </trkpt>
      <trkpt lat="49.13592" lon="1.91175">
        <ele>85.82</ele>
        <time>2022-09-11T10:51:42Z</time>
      </trkpt>
      <trkpt lat="49.13579" lon="1.91191">
        <ele>86.59</ele>
        <time>2022-09-11T10:51:58Z</time>
      </trkpt>
      <trkpt lat="49.13583" lon="1.91217">
        <ele>86.74</ele>
        <time>2022-09-11T10:52:14Z</time>
      </trkpt>
      <trkpt lat="49.13591" lon="1.91238">
        <ele>86.31</ele>
        <time>2022-09-11T10:52:28Z</time>
      </trkpt>
      <trkpt lat="49.13597" lon="1.91254">
        <ele>86.4</ele>
        <time>2022-09-11T10:52:39Z</time>
      </trkpt>
      <trkpt lat="49.13599" lon="1.9126">
        <ele>86.06</ele>
        <time>2022-09-11T10:52:43Z</time>
      </trkpt>
      <trkpt lat="49.13601" lon="1.91267">
        <ele>85.89</ele>
        <time>2022-09-11T10:52:47Z</time>
      </trkpt>
      <trkpt lat="49.13605" lon="1.91276">
        <ele>85.41</ele>
        <time>2022-09-11T10:52:57Z</time>
      </trkpt>
      <trkpt lat="49.13607" lon="1.91282">
        <ele>86.12</ele>
        <time>2022-09-11T10:53:08Z</time>
      </trkpt>
      <trkpt lat="49.1361" lon="1.91291">
        <ele>85.57</ele>
        <time>2022-09-11T10:53:19Z</time>
      </trkpt>
      <trkpt lat="49.13613" lon="1.91302">
        <ele>85.07</ele>
        <time>2022-09-11T10:53:26Z</time>
      </trkpt>
      <trkpt lat="49.13616" lon="1.91307">
        <ele>85.73</ele>
        <time>2022-09-11T10:53:30Z</time>
      </trkpt>
      <trkpt lat="49.1362" lon="1.91323">
        <ele>85.28</ele>
        <time>2022-09-11T10:53:39Z</time>
      </trkpt>
      <trkpt lat="49.13625" lon="1.91334">
        <ele>85.32</ele>
        <time>2022-09-11T10:53:46Z</time>
      </trkpt>
      <trkpt lat="49.13628" lon="1.91347">
        <ele>85.08</ele>
        <time>2022-09-11T10:53:53Z</time>
      </trkpt>
      <trkpt lat="49.13636" lon="1.91369">
        <ele>84.15</ele>
        <time>2022-09-11T10:54:07Z</time>
      </trkpt>
      <trkpt lat="49.13645" lon="1.91391">
        <ele>84.06</ele>
        <time>2022-09-11T10:54:20Z</time>
      </trkpt>
      <trkpt lat="49.1365" lon="1.91403">
        <ele>84.28</ele>
        <time>2022-09-11T10:54:27Z</time>
      </trkpt>
      <trkpt lat="49.13657" lon="1.91425">
        <ele>83.18</ele>
        <time>2022-09-11T10:54:40Z</time>
      </trkpt>
      <trkpt lat="49.13662" lon="1.91443">
        <ele>83.02</ele>
        <time>2022-09-11T10:54:51Z</time>
      </trkpt>
      <trkpt lat="49.1367" lon="1.91466">
        <ele>83.38</ele>
        <time>2022-09-11T10:55:05Z</time>
      </trkpt>
      <trkpt lat="49.13675" lon="1.91482">
        <ele>82.52</ele>
        <time>2022-09-11T10:55:15Z</time>
      </trkpt>
      <trkpt lat="49.13681" lon="1.91496">
        <ele>82.25</ele>
        <time>2022-09-11T10:55:24Z</time>
      </trkpt>
      <trkpt lat="49.13689" lon="1.91517">
        <ele>82.13</ele>
        <time>2022-09-11T10:55:38Z</time>
      </trkpt>
      <trkpt lat="49.13695" lon="1.91533">
        <ele>81.45</ele>
        <time>2022-09-11T10:55:49Z</time>
      </trkpt>
      <trkpt lat="49.13695" lon="1.91535">
        <ele>81.19</ele>
        <time>2022-09-11T10:55:50Z</time>
      </trkpt>
      <trkpt lat="49.13704" lon="1.91553">
        <ele>80.18</ele>
        <time>2022-09-11T10:56:03Z</time>
      </trkpt>
      <trkpt lat="49.13705" lon="1.91557">
        <ele>79.83</ele>
        <time>2022-09-11T10:56:06Z</time>
      </trkpt>
      <trkpt lat="49.13712" lon="1.91575">
        <ele>78.75</ele>
        <time>2022-09-11T10:56:21Z</time>
      </trkpt>
      <trkpt lat="49.13717" lon="1.9159">
        <ele>78.11</ele>
        <time>2022-09-11T10:56:32Z</time>
      </trkpt>
      <trkpt lat="49.13723" lon="1.91607">
        <ele>77.56</ele>
        <time>2022-09-11T10:56:47Z</time>
      </trkpt>
      <trkpt lat="49.13729" lon="1.91618">
        <ele>77.34</ele>
        <time>2022-09-11T10:56:59Z</time>
      </trkpt>
      <trkpt lat="49.13732" lon="1.91625">
        <ele>76.27</ele>
        <time>2022-09-11T10:57:05Z</time>
      </trkpt>
      <trkpt lat="49.13735" lon="1.91633">
        <ele>75.86</ele>
        <time>2022-09-11T10:57:10Z</time>
      </trkpt>
      <trkpt lat="49.13737" lon="1.91639">
        <ele>75.15</ele>
        <time>2022-09-11T10:57:14Z</time>
      </trkpt>
      <trkpt lat="49.13741" lon="1.9165">
        <ele>73.22</ele>
        <time>2022-09-11T10:57:25Z</time>
      </trkpt>
      <trkpt lat="49.13746" lon="1.91664">
        <ele>70.16</ele>
        <time>2022-09-11T10:57:42Z</time>
      </trkpt>
      <trkpt lat="49.13752" lon="1.91695">
        <ele>67.28</ele>
        <time>2022-09-11T10:57:57Z</time>
      </trkpt>
      <trkpt lat="49.13758" lon="1.91717">
        <ele>64.14</ele>
        <time>2022-09-11T10:58:10Z</time>
      </trkpt>
      <trkpt lat="49.13762" lon="1.91727">
        <ele>62.65</ele>
        <time>2022-09-11T10:58:17Z</time>
      </trkpt>
      <trkpt lat="49.1377" lon="1.91745">
        <ele>61.36</ele>
        <time>2022-09-11T10:58:30Z</time>
      </trkpt>
      <trkpt lat="49.13779" lon="1.91759">
        <ele>58.24</ele>
        <time>2022-09-11T10:58:47Z</time>
      </trkpt>
      <trkpt lat="49.13772" lon="1.91764">
        <ele>58.91</ele>
        <time>2022-09-11T10:59:06Z</time>
      </trkpt>
      <trkpt lat="49.13761" lon="1.91759">
        <ele>59.35</ele>
        <time>2022-09-11T10:59:24Z</time>
      </trkpt>
      <trkpt lat="49.13746" lon="1.91761">
        <ele>59.84</ele>
        <time>2022-09-11T10:59:41Z</time>
      </trkpt>
      <trkpt lat="49.13738" lon="1.91768">
        <ele>59.13</ele>
        <time>2022-09-11T10:59:52Z</time>
      </trkpt>
      <trkpt lat="49.13731" lon="1.91773">
        <ele>58.69</ele>
        <time>2022-09-11T11:00:00Z</time>
      </trkpt>
      <trkpt lat="49.13723" lon="1.91781">
        <ele>58.66</ele>
        <time>2022-09-11T11:00:07Z</time>
      </trkpt>
      <trkpt lat="49.13714" lon="1.9179">
        <ele>58.04</ele>
        <time>2022-09-11T11:00:20Z</time>
      </trkpt>
      <trkpt lat="49.13702" lon="1.91794">
        <ele>57.64</ele>
        <time>2022-09-11T11:00:33Z</time>
      </trkpt>
      <trkpt lat="49.13701" lon="1.91795">
        <ele>57.72</ele>
        <time>2022-09-11T11:00:35Z</time>
      </trkpt>
      <trkpt lat="49.13686" lon="1.91814">
        <ele>56.82</ele>
        <time>2022-09-11T11:00:55Z</time>
      </trkpt>
      <trkpt lat="49.13671" lon="1.91829">
        <ele>56.63</ele>
        <time>2022-09-11T11:01:10Z</time>
      </trkpt>
      <trkpt lat="49.13658" lon="1.91846">
        <ele>56.5</ele>
        <time>2022-09-11T11:01:27Z</time>
      </trkpt>
      <trkpt lat="49.13652" lon="1.91862">
        <ele>56.25</ele>
        <time>2022-09-11T11:01:43Z</time>
      </trkpt>
      <trkpt lat="49.1364" lon="1.91874">
        <ele>56.72</ele>
        <time>2022-09-11T11:02:02Z</time>
      </trkpt>
      <trkpt lat="49.1363" lon="1.9189">
        <ele>55.86</ele>
        <time>2022-09-11T11:02:17Z</time>
      </trkpt>
      <trkpt lat="49.13619" lon="1.91902">
        <ele>55.78</ele>
        <time>2022-09-11T11:02:33Z</time>
      </trkpt>
      <trkpt lat="49.13616" lon="1.91908">
        <ele>55.67</ele>
        <time>2022-09-11T11:02:36Z</time>
      </trkpt>
      <trkpt lat="49.13612" lon="1.91917">
        <ele>55.4</ele>
        <time>2022-09-11T11:02:57Z</time>
      </trkpt>
      <trkpt lat="49.13606" lon="1.9192">
        <ele>55.27</ele>
        <time>2022-09-11T11:03:13Z</time>
      </trkpt>
      <trkpt lat="49.13589" lon="1.91939">
        <ele>55.22</ele>
        <time>2022-09-11T11:03:32Z</time>
      </trkpt>
      <trkpt lat="49.13578" lon="1.91951">
        <ele>54.72</ele>
        <time>2022-09-11T11:03:43Z</time>
      </trkpt>
      <trkpt lat="49.13569" lon="1.91965">
        <ele>54.72</ele>
        <time>2022-09-11T11:03:58Z</time>
      </trkpt>
      <trkpt lat="49.13563" lon="1.91981">
        <ele>54.4</ele>
        <time>2022-09-11T11:04:16Z</time>
      </trkpt>
      <trkpt lat="49.13553" lon="1.92">
        <ele>54.69</ele>
        <time>2022-09-11T11:04:29Z</time>
      </trkpt>
      <trkpt lat="49.13546" lon="1.9201">
        <ele>54.35</ele>
        <time>2022-09-11T11:04:40Z</time>
      </trkpt>
      <trkpt lat="49.1354" lon="1.92018">
        <ele>54.4</ele>
        <time>2022-09-11T11:04:52Z</time>
      </trkpt>
      <trkpt lat="49.13538" lon="1.92028">
        <ele>54.54</ele>
        <time>2022-09-11T11:05:09Z</time>
      </trkpt>
      <trkpt lat="49.13536" lon="1.92038">
        <ele>53.98</ele>
        <time>2022-09-11T11:05:23Z</time>
      </trkpt>
      <trkpt lat="49.13533" lon="1.92039">
        <ele>53.98</ele>
        <time>2022-09-11T11:05:40Z</time>
      </trkpt>
      <trkpt lat="49.13528" lon="1.9205">
        <ele>53.87</ele>
        <time>2022-09-11T11:05:54Z</time>
      </trkpt>
      <trkpt lat="49.13521" lon="1.92064">
        <ele>54.33</ele>
        <time>2022-09-11T11:06:06Z</time>
      </trkpt>
      <trkpt lat="49.13514" lon="1.92075">
        <ele>53.72</ele>
        <time>2022-09-11T11:06:17Z</time>
      </trkpt>
      <trkpt lat="49.13505" lon="1.92084">
        <ele>54.31</ele>
        <time>2022-09-11T11:06:32Z</time>
      </trkpt>
      <trkpt lat="49.13502" lon="1.92104">
        <ele>53.35</ele>
        <time>2022-09-11T11:06:49Z</time>
      </trkpt>
      <trkpt lat="49.13495" lon="1.9212">
        <ele>53.6</ele>
        <time>2022-09-11T11:07:05Z</time>
      </trkpt>
      <trkpt lat="49.13488" lon="1.92144">
        <ele>53.6</ele>
        <time>2022-09-11T11:07:21Z</time>
      </trkpt>
      <trkpt lat="49.13478" lon="1.92166">
        <ele>53.39</ele>
        <time>2022-09-11T11:07:36Z</time>
      </trkpt>
      <trkpt lat="49.1347" lon="1.92195">
        <ele>53.25</ele>
        <time>2022-09-11T11:07:55Z</time>
      </trkpt>
      <trkpt lat="49.13464" lon="1.92219">
        <ele>53.01</ele>
        <time>2022-09-11T11:08:10Z</time>
      </trkpt>
      <trkpt lat="49.13461" lon="1.92238">
        <ele>52.9</ele>
        <time>2022-09-11T11:08:26Z</time>
      </trkpt>
      <trkpt lat="49.13454" lon="1.92258">
        <ele>52.43</ele>
        <time>2022-09-11T11:08:38Z</time>
      </trkpt>
      <trkpt lat="49.13447" lon="1.92281">
        <ele>53</ele>
        <time>2022-09-11T11:08:54Z</time>
      </trkpt>
      <trkpt lat="49.13437" lon="1.92304">
        <ele>52.32</ele>
        <time>2022-09-11T11:09:12Z</time>
      </trkpt>
      <trkpt lat="49.13429" lon="1.92331">
        <ele>52.39</ele>
        <time>2022-09-11T11:09:26Z</time>
      </trkpt>
      <trkpt lat="49.13421" lon="1.9235">
        <ele>52.35</ele>
        <time>2022-09-11T11:09:43Z</time>
      </trkpt>
      <trkpt lat="49.13415" lon="1.92375">
        <ele>52.13</ele>
        <time>2022-09-11T11:09:57Z</time>
      </trkpt>
      <trkpt lat="49.13404" lon="1.92397">
        <ele>51.54</ele>
        <time>2022-09-11T11:10:13Z</time>
      </trkpt>
      <trkpt lat="49.13396" lon="1.92418">
        <ele>51.61</ele>
        <time>2022-09-11T11:10:29Z</time>
      </trkpt>
      <trkpt lat="49.13389" lon="1.92441">
        <ele>51.4</ele>
        <time>2022-09-11T11:10:46Z</time>
      </trkpt>
      <trkpt lat="49.13383" lon="1.92468">
        <ele>51.28</ele>
        <time>2022-09-11T11:11:01Z</time>
      </trkpt>
      <trkpt lat="49.13377" lon="1.92487">
        <ele>50.69</ele>
        <time>2022-09-11T11:11:13Z</time>
      </trkpt>
      <trkpt lat="49.13371" lon="1.92515">
        <ele>49.64</ele>
        <time>2022-09-11T11:11:30Z</time>
      </trkpt>
      <trkpt lat="49.13364" lon="1.92544">
        <ele>49.21</ele>
        <time>2022-09-11T11:11:47Z</time>
      </trkpt>
      <trkpt lat="49.1336" lon="1.92573">
        <ele>49.96</ele>
        <time>2022-09-11T11:12:03Z</time>
      </trkpt>
      <trkpt lat="49.13359" lon="1.92603">
        <ele>49.1</ele>
        <time>2022-09-11T11:12:17Z</time>
      </trkpt>
      <trkpt lat="49.13354" lon="1.92628">
        <ele>50.28</ele>
        <time>2022-09-11T11:12:30Z</time>
      </trkpt>
      <trkpt lat="49.13347" lon="1.92643">
        <ele>50.76</ele>
        <time>2022-09-11T11:12:44Z</time>
      </trkpt>
      <trkpt lat="49.13342" lon="1.92669">
        <ele>50.69</ele>
        <time>2022-09-11T11:12:59Z</time>
      </trkpt>
      <trkpt lat="49.13338" lon="1.9269">
        <ele>52.22</ele>
        <time>2022-09-11T11:13:09Z</time>
      </trkpt>
      <trkpt lat="49.13337" lon="1.92698">
        <ele>52.26</ele>
        <time>2022-09-11T11:13:30Z</time>
      </trkpt>
      <trkpt lat="49.13333" lon="1.92698">
        <ele>52.24</ele>
        <time>2022-09-11T11:13:49Z</time>
      </trkpt>
      <trkpt lat="49.13334" lon="1.92697">
        <ele>52.21</ele>
        <time>2022-09-11T11:14:11Z</time>
      </trkpt>
      <trkpt lat="49.13333" lon="1.927">
        <ele>52.13</ele>
        <time>2022-09-11T11:14:30Z</time>
      </trkpt>
      <trkpt lat="49.13336" lon="1.92699">
        <ele>51.96</ele>
        <time>2022-09-11T11:14:52Z</time>
      </trkpt>
      <trkpt lat="49.13332" lon="1.9271">
        <ele>51.68</ele>
        <time>2022-09-11T11:15:01Z</time>
      </trkpt>
      <trkpt lat="49.1333" lon="1.92717">
        <ele>51.02</ele>
        <time>2022-09-11T11:15:06Z</time>
      </trkpt>
      <trkpt lat="49.1333" lon="1.92742">
        <ele>50.59</ele>
        <time>2022-09-11T11:15:20Z</time>
      </trkpt>
      <trkpt lat="49.13333" lon="1.92762">
        <ele>49.79</ele>
        <time>2022-09-11T11:15:32Z</time>
      </trkpt>
      <trkpt lat="49.13342" lon="1.92786">
        <ele>49.43</ele>
        <time>2022-09-11T11:15:47Z</time>
      </trkpt>
      <trkpt lat="49.13352" lon="1.92807">
        <ele>49.02</ele>
        <time>2022-09-11T11:15:59Z</time>
      </trkpt>
      <trkpt lat="49.13356" lon="1.92813">
        <ele>48.47</ele>
        <time>2022-09-11T11:16:05Z</time>
      </trkpt>
      <trkpt lat="49.13364" lon="1.92828">
        <ele>48.4</ele>
        <time>2022-09-11T11:16:18Z</time>
      </trkpt>
      <trkpt lat="49.1337" lon="1.92837">
        <ele>48.27</ele>
        <time>2022-09-11T11:16:31Z</time>
      </trkpt>
      <trkpt lat="49.13372" lon="1.92839">
        <ele>48.38</ele>
        <time>2022-09-11T11:16:33Z</time>
      </trkpt>
      <trkpt lat="49.13381" lon="1.92852">
        <ele>48.79</ele>
        <time>2022-09-11T11:16:45Z</time>
      </trkpt>
      <trkpt lat="49.13391" lon="1.92869">
        <ele>48.83</ele>
        <time>2022-09-11T11:16:58Z</time>
      </trkpt>
      <trkpt lat="49.13397" lon="1.92879">
        <ele>48.71</ele>
        <time>2022-09-11T11:17:08Z</time>
      </trkpt>
      <trkpt lat="49.13407" lon="1.92897">
        <ele>48.87</ele>
        <time>2022-09-11T11:17:21Z</time>
      </trkpt>
      <trkpt lat="49.13415" lon="1.92908">
        <ele>49.34</ele>
        <time>2022-09-11T11:17:32Z</time>
      </trkpt>
      <trkpt lat="49.13418" lon="1.92912">
        <ele>49.34</ele>
        <time>2022-09-11T11:17:40Z</time>
      </trkpt>
      <trkpt lat="49.13421" lon="1.92914">
        <ele>48.9</ele>
        <time>2022-09-11T11:17:42Z</time>
      </trkpt>
      <trkpt lat="49.13432" lon="1.9293">
        <ele>49.28</ele>
        <time>2022-09-11T11:17:54Z</time>
      </trkpt>
      <trkpt lat="49.13435" lon="1.92939">
        <ele>50.06</ele>
        <time>2022-09-11T11:18:00Z</time>
      </trkpt>
      <trkpt lat="49.13438" lon="1.92959">
        <ele>49.61</ele>
        <time>2022-09-11T11:18:12Z</time>
      </trkpt>
      <trkpt lat="49.13437" lon="1.92973">
        <ele>51.19</ele>
        <time>2022-09-11T11:18:24Z</time>
      </trkpt>
      <trkpt lat="49.13437" lon="1.9298">
        <ele>51.31</ele>
        <time>2022-09-11T11:18:33Z</time>
      </trkpt>
      <trkpt lat="49.13434" lon="1.9299">
        <ele>51.84</ele>
        <time>2022-09-11T11:18:38Z</time>
      </trkpt>
      <trkpt lat="49.13423" lon="1.93011">
        <ele>52.69</ele>
        <time>2022-09-11T11:18:51Z</time>
      </trkpt>
      <trkpt lat="49.13412" lon="1.93031">
        <ele>53.74</ele>
        <time>2022-09-11T11:19:06Z</time>
      </trkpt>
      <trkpt lat="49.13398" lon="1.9305">
        <ele>54.83</ele>
        <time>2022-09-11T11:19:23Z</time>
      </trkpt>
      <trkpt lat="49.13396" lon="1.93052">
        <ele>55.23</ele>
        <time>2022-09-11T11:19:25Z</time>
      </trkpt>
      <trkpt lat="49.13387" lon="1.93065">
        <ele>55.9</ele>
        <time>2022-09-11T11:19:37Z</time>
      </trkpt>
      <trkpt lat="49.1338" lon="1.93075">
        <ele>56.61</ele>
        <time>2022-09-11T11:19:46Z</time>
      </trkpt>
      <trkpt lat="49.13378" lon="1.93077">
        <ele>56.73</ele>
        <time>2022-09-11T11:19:48Z</time>
      </trkpt>
      <trkpt lat="49.13368" lon="1.93091">
        <ele>57.48</ele>
        <time>2022-09-11T11:20:00Z</time>
      </trkpt>
      <trkpt lat="49.13357" lon="1.931">
        <ele>58.32</ele>
        <time>2022-09-11T11:20:11Z</time>
      </trkpt>
      <trkpt lat="49.13343" lon="1.93108">
        <ele>59.38</ele>
        <time>2022-09-11T11:20:23Z</time>
      </trkpt>
      <trkpt lat="49.13329" lon="1.93118">
        <ele>60.6</ele>
        <time>2022-09-11T11:20:36Z</time>
      </trkpt>
      <trkpt lat="49.13311" lon="1.93131">
        <ele>61.58</ele>
        <time>2022-09-11T11:20:53Z</time>
      </trkpt>
      <trkpt lat="49.13293" lon="1.93142">
        <ele>62.47</ele>
        <time>2022-09-11T11:21:09Z</time>
      </trkpt>
      <trkpt lat="49.13279" lon="1.93153">
        <ele>63.72</ele>
        <time>2022-09-11T11:21:23Z</time>
      </trkpt>
      <trkpt lat="49.13268" lon="1.93161">
        <ele>64.3</ele>
        <time>2022-09-11T11:21:34Z</time>
      </trkpt>
      <trkpt lat="49.13259" lon="1.93171">
        <ele>65.61</ele>
        <time>2022-09-11T11:21:43Z</time>
      </trkpt>
      <trkpt lat="49.13247" lon="1.93193">
        <ele>65.13</ele>
        <time>2022-09-11T11:22:00Z</time>
      </trkpt>
      <trkpt lat="49.13246" lon="1.93196">
        <ele>66.83</ele>
        <time>2022-09-11T11:22:02Z</time>
      </trkpt>
      <trkpt lat="49.13239" lon="1.9322">
        <ele>67.57</ele>
        <time>2022-09-11T11:22:18Z</time>
      </trkpt>
      <trkpt lat="49.13239" lon="1.93231">
        <ele>67.66</ele>
        <time>2022-09-11T11:22:25Z</time>
      </trkpt>
      <trkpt lat="49.13239" lon="1.93253">
        <ele>69.21</ele>
        <time>2022-09-11T11:22:39Z</time>
      </trkpt>
      <trkpt lat="49.13243" lon="1.9327">
        <ele>70.03</ele>
        <time>2022-09-11T11:22:51Z</time>
      </trkpt>
      <trkpt lat="49.13245" lon="1.93275">
        <ele>70.04</ele>
        <time>2022-09-11T11:22:55Z</time>
      </trkpt>
      <trkpt lat="49.13253" lon="1.93296">
        <ele>71.34</ele>
        <time>2022-09-11T11:23:09Z</time>
      </trkpt>
      <trkpt lat="49.13259" lon="1.9331">
        <ele>72.15</ele>
        <time>2022-09-11T11:23:19Z</time>
      </trkpt>
      <trkpt lat="49.13263" lon="1.93317">
        <ele>71.9</ele>
        <time>2022-09-11T11:23:26Z</time>
      </trkpt>
      <trkpt lat="49.13267" lon="1.93323">
        <ele>72.14</ele>
        <time>2022-09-11T11:23:31Z</time>
      </trkpt>
      <trkpt lat="49.13287" lon="1.93334">
        <ele>73.57</ele>
        <time>2022-09-11T11:23:49Z</time>
      </trkpt>
      <trkpt lat="49.13296" lon="1.93338">
        <ele>73.69</ele>
        <time>2022-09-11T11:24:00Z</time>
      </trkpt>
      <trkpt lat="49.13312" lon="1.93339">
        <ele>74.09</ele>
        <time>2022-09-11T11:24:14Z</time>
      </trkpt>
      <trkpt lat="49.13325" lon="1.93338">
        <ele>74.15</ele>
        <time>2022-09-11T11:24:27Z</time>
      </trkpt>
      <trkpt lat="49.13342" lon="1.93333">
        <ele>74.88</ele>
        <time>2022-09-11T11:24:41Z</time>
      </trkpt>
      <trkpt lat="49.13358" lon="1.9333">
        <ele>75.13</ele>
        <time>2022-09-11T11:24:54Z</time>
      </trkpt>
      <trkpt lat="49.13369" lon="1.93325">
        <ele>75.16</ele>
        <time>2022-09-11T11:25:04Z</time>
      </trkpt>
      <trkpt lat="49.13382" lon="1.93323">
        <ele>75.34</ele>
        <time>2022-09-11T11:25:15Z</time>
      </trkpt>
      <trkpt lat="49.13406" lon="1.93317">
        <ele>75.59</ele>
        <time>2022-09-11T11:25:35Z</time>
      </trkpt>
      <trkpt lat="49.13423" lon="1.93313">
        <ele>75.61</ele>
        <time>2022-09-11T11:25:49Z</time>
      </trkpt>
      <trkpt lat="49.13443" lon="1.93308">
        <ele>76.16</ele>
        <time>2022-09-11T11:26:06Z</time>
      </trkpt>
      <trkpt lat="49.13461" lon="1.93304">
        <ele>76.12</ele>
        <time>2022-09-11T11:26:23Z</time>
      </trkpt>
      <trkpt lat="49.13462" lon="1.93304">
        <ele>76.12</ele>
        <time>2022-09-11T11:26:24Z</time>
      </trkpt>
      <trkpt lat="49.13468" lon="1.93303">
        <ele>76.33</ele>
        <time>2022-09-11T11:26:29Z</time>
      </trkpt>
      <trkpt lat="49.13473" lon="1.93302">
        <ele>76.75</ele>
        <time>2022-09-11T11:26:34Z</time>
      </trkpt>
      <trkpt lat="49.13491" lon="1.93305">
        <ele>76.84</ele>
        <time>2022-09-11T11:26:50Z</time>
      </trkpt>
      <trkpt lat="49.135" lon="1.93309">
        <ele>77.06</ele>
        <time>2022-09-11T11:27:05Z</time>
      </trkpt>
      <trkpt lat="49.13507" lon="1.93314">
        <ele>77.47</ele>
        <time>2022-09-11T11:27:19Z</time>
      </trkpt>
      <trkpt lat="49.13516" lon="1.93325">
        <ele>77.18</ele>
        <time>2022-09-11T11:27:31Z</time>
      </trkpt>
      <trkpt lat="49.13526" lon="1.93336">
        <ele>76.75</ele>
        <time>2022-09-11T11:27:42Z</time>
      </trkpt>
      <trkpt lat="49.13538" lon="1.93351">
        <ele>76.58</ele>
        <time>2022-09-11T11:27:57Z</time>
      </trkpt>
      <trkpt lat="49.13545" lon="1.93362">
        <ele>76.67</ele>
        <time>2022-09-11T11:28:06Z</time>
      </trkpt>
      <trkpt lat="49.13554" lon="1.93376">
        <ele>76.46</ele>
        <time>2022-09-11T11:28:18Z</time>
      </trkpt>
      <trkpt lat="49.13566" lon="1.93393">
        <ele>76.2</ele>
        <time>2022-09-11T11:28:33Z</time>
      </trkpt>
      <trkpt lat="49.13567" lon="1.93395">
        <ele>75.97</ele>
        <time>2022-09-11T11:28:35Z</time>
      </trkpt>
      <trkpt lat="49.13571" lon="1.934">
        <ele>76.19</ele>
        <time>2022-09-11T11:28:40Z</time>
      </trkpt>
      <trkpt lat="49.13578" lon="1.93409">
        <ele>76.3</ele>
        <time>2022-09-11T11:28:49Z</time>
      </trkpt>
      <trkpt lat="49.1358" lon="1.93412">
        <ele>75.61</ele>
        <time>2022-09-11T11:28:53Z</time>
      </trkpt>
      <trkpt lat="49.13587" lon="1.93418">
        <ele>75.83</ele>
        <time>2022-09-11T11:29:01Z</time>
      </trkpt>
      <trkpt lat="49.13589" lon="1.93423">
        <ele>76.05</ele>
        <time>2022-09-11T11:29:05Z</time>
      </trkpt>
      <trkpt lat="49.13592" lon="1.93425">
        <ele>76</ele>
        <time>2022-09-11T11:29:08Z</time>
      </trkpt>
      <trkpt lat="49.13596" lon="1.93429">
        <ele>76.07</ele>
        <time>2022-09-11T11:29:12Z</time>
      </trkpt>
      <trkpt lat="49.13605" lon="1.93445">
        <ele>75.33</ele>
        <time>2022-09-11T11:29:24Z</time>
      </trkpt>
      <trkpt lat="49.13619" lon="1.93458">
        <ele>74.08</ele>
        <time>2022-09-11T11:29:39Z</time>
      </trkpt>
      <trkpt lat="49.13628" lon="1.93468">
        <ele>73.84</ele>
        <time>2022-09-11T11:29:49Z</time>
      </trkpt>
      <trkpt lat="49.13639" lon="1.9348">
        <ele>73.39</ele>
        <time>2022-09-11T11:30:02Z</time>
      </trkpt>
      <trkpt lat="49.13654" lon="1.9349">
        <ele>72.36</ele>
        <time>2022-09-11T11:30:16Z</time>
      </trkpt>
      <trkpt lat="49.13669" lon="1.935">
        <ele>71.41</ele>
        <time>2022-09-11T11:30:29Z</time>
      </trkpt>
      <trkpt lat="49.13672" lon="1.93501">
        <ele>71.22</ele>
        <time>2022-09-11T11:30:32Z</time>
      </trkpt>
      <trkpt lat="49.1368" lon="1.93504">
        <ele>70.44</ele>
        <time>2022-09-11T11:30:39Z</time>
      </trkpt>
      <trkpt lat="49.13683" lon="1.93506">
        <ele>70.29</ele>
        <time>2022-09-11T11:30:42Z</time>
      </trkpt>
      <trkpt lat="49.13687" lon="1.93511">
        <ele>69.87</ele>
        <time>2022-09-11T11:30:47Z</time>
      </trkpt>
      <trkpt lat="49.1369" lon="1.9352">
        <ele>69.69</ele>
        <time>2022-09-11T11:30:52Z</time>
      </trkpt>
      <trkpt lat="49.13691" lon="1.93527">
        <ele>69.36</ele>
        <time>2022-09-11T11:30:56Z</time>
      </trkpt>
      <trkpt lat="49.13692" lon="1.9353">
        <ele>69.02</ele>
        <time>2022-09-11T11:30:58Z</time>
      </trkpt>
      <trkpt lat="49.13692" lon="1.9355">
        <ele>68.3</ele>
        <time>2022-09-11T11:31:12Z</time>
      </trkpt>
      <trkpt lat="49.1369" lon="1.93564">
        <ele>67.54</ele>
        <time>2022-09-11T11:31:21Z</time>
      </trkpt>
      <trkpt lat="49.13688" lon="1.93567">
        <ele>66.85</ele>
        <time>2022-09-11T11:31:23Z</time>
      </trkpt>
      <trkpt lat="49.13687" lon="1.93577">
        <ele>67.04</ele>
        <time>2022-09-11T11:31:30Z</time>
      </trkpt>
      <trkpt lat="49.13686" lon="1.93582">
        <ele>66.64</ele>
        <time>2022-09-11T11:31:33Z</time>
      </trkpt>
      <trkpt lat="49.13685" lon="1.9359">
        <ele>65.69</ele>
        <time>2022-09-11T11:31:38Z</time>
      </trkpt>
      <trkpt lat="49.13684" lon="1.93593">
        <ele>66.17</ele>
        <time>2022-09-11T11:31:40Z</time>
      </trkpt>
      <trkpt lat="49.13679" lon="1.93613">
        <ele>65.79</ele>
        <time>2022-09-11T11:31:53Z</time>
      </trkpt>
      <trkpt lat="49.13678" lon="1.93629">
        <ele>64.52</ele>
        <time>2022-09-11T11:32:04Z</time>
      </trkpt>
      <trkpt lat="49.13676" lon="1.9365">
        <ele>63.84</ele>
        <time>2022-09-11T11:32:17Z</time>
      </trkpt>
      <trkpt lat="49.13675" lon="1.93673">
        <ele>62.77</ele>
        <time>2022-09-11T11:32:31Z</time>
      </trkpt>
      <trkpt lat="49.13672" lon="1.93698">
        <ele>61.32</ele>
        <time>2022-09-11T11:32:46Z</time>
      </trkpt>
      <trkpt lat="49.13669" lon="1.93724">
        <ele>60.36</ele>
        <time>2022-09-11T11:33:00Z</time>
      </trkpt>
      <trkpt lat="49.13667" lon="1.93743">
        <ele>59.67</ele>
        <time>2022-09-11T11:33:11Z</time>
      </trkpt>
      <trkpt lat="49.13664" lon="1.93764">
        <ele>58.94</ele>
        <time>2022-09-11T11:33:23Z</time>
      </trkpt>
      <trkpt lat="49.13661" lon="1.93787">
        <ele>58.37</ele>
        <time>2022-09-11T11:33:36Z</time>
      </trkpt>
      <trkpt lat="49.13657" lon="1.93805">
        <ele>56.85</ele>
        <time>2022-09-11T11:33:47Z</time>
      </trkpt>
      <trkpt lat="49.13654" lon="1.9382">
        <ele>56.22</ele>
        <time>2022-09-11T11:33:57Z</time>
      </trkpt>
      <trkpt lat="49.13652" lon="1.93837">
        <ele>55.79</ele>
        <time>2022-09-11T11:34:08Z</time>
      </trkpt>
      <trkpt lat="49.1365" lon="1.93854">
        <ele>54.37</ele>
        <time>2022-09-11T11:34:19Z</time>
      </trkpt>
      <trkpt lat="49.13647" lon="1.93878">
        <ele>53.78</ele>
        <time>2022-09-11T11:34:32Z</time>
      </trkpt>
      <trkpt lat="49.13647" lon="1.93881">
        <ele>53.29</ele>
        <time>2022-09-11T11:34:34Z</time>
      </trkpt>
      <trkpt lat="49.13644" lon="1.93897">
        <ele>52.44</ele>
        <time>2022-09-11T11:34:45Z</time>
      </trkpt>
      <trkpt lat="49.13637" lon="1.93915">
        <ele>51.68</ele>
        <time>2022-09-11T11:34:58Z</time>
      </trkpt>
      <trkpt lat="49.13628" lon="1.93942">
        <ele>50.55</ele>
        <time>2022-09-11T11:35:14Z</time>
      </trkpt>
      <trkpt lat="49.13622" lon="1.93963">
        <ele>49.63</ele>
        <time>2022-09-11T11:35:28Z</time>
      </trkpt>
      <trkpt lat="49.13616" lon="1.93978">
        <ele>48.91</ele>
        <time>2022-09-11T11:35:39Z</time>
      </trkpt>
      <trkpt lat="49.13607" lon="1.93992">
        <ele>48.65</ele>
        <time>2022-09-11T11:35:51Z</time>
      </trkpt>
      <trkpt lat="49.13596" lon="1.94008">
        <ele>48.63</ele>
        <time>2022-09-11T11:36:05Z</time>
      </trkpt>
      <trkpt lat="49.13593" lon="1.94012">
        <ele>47.38</ele>
        <time>2022-09-11T11:36:11Z</time>
      </trkpt>
      <trkpt lat="49.13594" lon="1.94012">
        <ele>47.38</ele>
        <time>2022-09-11T11:36:17Z</time>
      </trkpt>
      <trkpt lat="49.13599" lon="1.94008">
        <ele>47.59</ele>
        <time>2022-09-11T11:36:24Z</time>
      </trkpt>
      <trkpt lat="49.13607" lon="1.93999">
        <ele>48.39</ele>
        <time>2022-09-11T11:36:36Z</time>
      </trkpt>
      <trkpt lat="49.13615" lon="1.93984">
        <ele>49.44</ele>
        <time>2022-09-11T11:36:49Z</time>
      </trkpt>
      <trkpt lat="49.13615" lon="1.93982">
        <ele>49.52</ele>
        <time>2022-09-11T11:36:51Z</time>
      </trkpt>
      <trkpt lat="49.13624" lon="1.93958">
        <ele>50.31</ele>
        <time>2022-09-11T11:37:07Z</time>
      </trkpt>
      <trkpt lat="49.13632" lon="1.93938">
        <ele>50.87</ele>
        <time>2022-09-11T11:37:22Z</time>
      </trkpt>
      <trkpt lat="49.13639" lon="1.93927">
        <ele>51.35</ele>
        <time>2022-09-11T11:37:34Z</time>
      </trkpt>
      <trkpt lat="49.13648" lon="1.93912">
        <ele>49.84</ele>
        <time>2022-09-11T11:37:48Z</time>
      </trkpt>
      <trkpt lat="49.13651" lon="1.93899">
        <ele>49.08</ele>
        <time>2022-09-11T11:37:58Z</time>
      </trkpt>
      <trkpt lat="49.13655" lon="1.93885">
        <ele>48.39</ele>
        <time>2022-09-11T11:38:09Z</time>
      </trkpt>
      <trkpt lat="49.13662" lon="1.93872">
        <ele>48.09</ele>
        <time>2022-09-11T11:38:23Z</time>
      </trkpt>
      <trkpt lat="49.13671" lon="1.9385">
        <ele>47.96</ele>
        <time>2022-09-11T11:38:39Z</time>
      </trkpt>
      <trkpt lat="49.13678" lon="1.93826">
        <ele>46.17</ele>
        <time>2022-09-11T11:38:55Z</time>
      </trkpt>
      <trkpt lat="49.13683" lon="1.93798">
        <ele>44.76</ele>
        <time>2022-09-11T11:39:12Z</time>
      </trkpt>
      <trkpt lat="49.1369" lon="1.93777">
        <ele>44.08</ele>
        <time>2022-09-11T11:39:28Z</time>
      </trkpt>
      <trkpt lat="49.13703" lon="1.93759">
        <ele>43.65</ele>
        <time>2022-09-11T11:39:44Z</time>
      </trkpt>
      <trkpt lat="49.13716" lon="1.93744">
        <ele>43.03</ele>
        <time>2022-09-11T11:40:01Z</time>
      </trkpt>
      <trkpt lat="49.1373" lon="1.93726">
        <ele>42.04</ele>
        <time>2022-09-11T11:40:17Z</time>
      </trkpt>
      <trkpt lat="49.13737" lon="1.93709">
        <ele>40.84</ele>
        <time>2022-09-11T11:40:34Z</time>
      </trkpt>
      <trkpt lat="49.13741" lon="1.93705">
        <ele>40.72</ele>
        <time>2022-09-11T11:40:38Z</time>
      </trkpt>
      <trkpt lat="49.13763" lon="1.93686">
        <ele>40.37</ele>
        <time>2022-09-11T11:40:55Z</time>
      </trkpt>
      <trkpt lat="49.13767" lon="1.93667">
        <ele>39.84</ele>
        <time>2022-09-11T11:41:11Z</time>
      </trkpt>
      <trkpt lat="49.13769" lon="1.9366">
        <ele>39.79</ele>
        <time>2022-09-11T11:41:22Z</time>
      </trkpt>
      <trkpt lat="49.13776" lon="1.93646">
        <ele>39.84</ele>
        <time>2022-09-11T11:41:40Z</time>
      </trkpt>
      <trkpt lat="49.1379" lon="1.93634">
        <ele>40.07</ele>
        <time>2022-09-11T11:41:52Z</time>
      </trkpt>
      <trkpt lat="49.13805" lon="1.9362">
        <ele>39.54</ele>
        <time>2022-09-11T11:42:09Z</time>
      </trkpt>
      <trkpt lat="49.13814" lon="1.93614">
        <ele>39.27</ele>
        <time>2022-09-11T11:42:16Z</time>
      </trkpt>
      <trkpt lat="49.13824" lon="1.93608">
        <ele>38.83</ele>
        <time>2022-09-11T11:42:30Z</time>
      </trkpt>
      <trkpt lat="49.13837" lon="1.93597">
        <ele>38.73</ele>
        <time>2022-09-11T11:42:47Z</time>
      </trkpt>
      <trkpt lat="49.13844" lon="1.93583">
        <ele>38.36</ele>
        <time>2022-09-11T11:43:04Z</time>
      </trkpt>
      <trkpt lat="49.13852" lon="1.93564">
        <ele>38.41</ele>
        <time>2022-09-11T11:43:20Z</time>
      </trkpt>
      <trkpt lat="49.13868" lon="1.93549">
        <ele>38.17</ele>
        <time>2022-09-11T11:43:38Z</time>
      </trkpt>
      <trkpt lat="49.13889" lon="1.93534">
        <ele>37.8</ele>
        <time>2022-09-11T11:43:54Z</time>
      </trkpt>
      <trkpt lat="49.13903" lon="1.93525">
        <ele>37.5</ele>
        <time>2022-09-11T11:44:10Z</time>
      </trkpt>
      <trkpt lat="49.13913" lon="1.93515">
        <ele>36.91</ele>
        <time>2022-09-11T11:44:28Z</time>
      </trkpt>
      <trkpt lat="49.13934" lon="1.93503">
        <ele>38.25</ele>
        <time>2022-09-11T11:44:43Z</time>
      </trkpt>
      <trkpt lat="49.13942" lon="1.93496">
        <ele>38.24</ele>
        <time>2022-09-11T11:44:53Z</time>
      </trkpt>
      <trkpt lat="49.13948" lon="1.9349">
        <ele>38.64</ele>
        <time>2022-09-11T11:45:08Z</time>
      </trkpt>
      <trkpt lat="49.1396" lon="1.93477">
        <ele>38.5</ele>
        <time>2022-09-11T11:45:23Z</time>
      </trkpt>
      <trkpt lat="49.13964" lon="1.93475">
        <ele>38</ele>
        <time>2022-09-11T11:45:29Z</time>
      </trkpt>
      <trkpt lat="49.13966" lon="1.93472">
        <ele>38.44</ele>
        <time>2022-09-11T11:45:33Z</time>
      </trkpt>
      <trkpt lat="49.13978" lon="1.93462">
        <ele>38.9</ele>
        <time>2022-09-11T11:45:45Z</time>
      </trkpt>
      <trkpt lat="49.13999" lon="1.93451">
        <ele>39.25</ele>
        <time>2022-09-11T11:46:01Z</time>
      </trkpt>
      <trkpt lat="49.14025" lon="1.93448">
        <ele>39.18</ele>
        <time>2022-09-11T11:46:13Z</time>
      </trkpt>
      <trkpt lat="49.1404" lon="1.93448">
        <ele>39.09</ele>
        <time>2022-09-11T11:46:28Z</time>
      </trkpt>
      <trkpt lat="49.14048" lon="1.93451">
        <ele>38.81</ele>
        <time>2022-09-11T11:46:44Z</time>
      </trkpt>
      <trkpt lat="49.14064" lon="1.93459">
        <ele>39.19</ele>
        <time>2022-09-11T11:46:58Z</time>
      </trkpt>
      <trkpt lat="49.14073" lon="1.93462">
        <ele>39.27</ele>
        <time>2022-09-11T11:47:09Z</time>
      </trkpt>
      <trkpt lat="49.14087" lon="1.93478">
        <ele>39.69</ele>
        <time>2022-09-11T11:47:23Z</time>
      </trkpt>
      <trkpt lat="49.14101" lon="1.93486">
        <ele>39.12</ele>
        <time>2022-09-11T11:47:40Z</time>
      </trkpt>
      <trkpt lat="49.1411" lon="1.93494">
        <ele>39.55</ele>
        <time>2022-09-11T11:47:53Z</time>
      </trkpt>
      <trkpt lat="49.14119" lon="1.93497">
        <ele>40.3</ele>
        <time>2022-09-11T11:48:00Z</time>
      </trkpt>
      <trkpt lat="49.14134" lon="1.93501">
        <ele>41.06</ele>
        <time>2022-09-11T11:48:16Z</time>
      </trkpt>
      <trkpt lat="49.1415" lon="1.93509">
        <ele>41.25</ele>
        <time>2022-09-11T11:48:31Z</time>
      </trkpt>
      <trkpt lat="49.14156" lon="1.93512">
        <ele>41.47</ele>
        <time>2022-09-11T11:48:43Z</time>
      </trkpt>
      <trkpt lat="49.14157" lon="1.93516">
        <ele>41.64</ele>
        <time>2022-09-11T11:48:48Z</time>
      </trkpt>
      <trkpt lat="49.14161" lon="1.93521">
        <ele>41.75</ele>
        <time>2022-09-11T11:48:54Z</time>
      </trkpt>
      <trkpt lat="49.1418" lon="1.93547">
        <ele>41.47</ele>
        <time>2022-09-11T11:49:10Z</time>
      </trkpt>
      <trkpt lat="49.14195" lon="1.93552">
        <ele>42.51</ele>
        <time>2022-09-11T11:49:26Z</time>
      </trkpt>
      <trkpt lat="49.14207" lon="1.9355">
        <ele>42.48</ele>
        <time>2022-09-11T11:49:46Z</time>
      </trkpt>
      <trkpt lat="49.14213" lon="1.93553">
        <ele>42.99</ele>
        <time>2022-09-11T11:50:02Z</time>
      </trkpt>
      <trkpt lat="49.14225" lon="1.93551">
        <ele>44.06</ele>
        <time>2022-09-11T11:50:21Z</time>
      </trkpt>
      <trkpt lat="49.14238" lon="1.93537">
        <ele>44.72</ele>
        <time>2022-09-11T11:50:38Z</time>
      </trkpt>
      <trkpt lat="49.14244" lon="1.93533">
        <ele>43.38</ele>
        <time>2022-09-11T11:50:45Z</time>
      </trkpt>
      <trkpt lat="49.14252" lon="1.9353">
        <ele>43</ele>
        <time>2022-09-11T11:50:58Z</time>
      </trkpt>
      <trkpt lat="49.14265" lon="1.93524">
        <ele>42.1</ele>
        <time>2022-09-11T11:51:13Z</time>
      </trkpt>
      <trkpt lat="49.14285" lon="1.93516">
        <ele>42.03</ele>
        <time>2022-09-11T11:51:31Z</time>
      </trkpt>
      <trkpt lat="49.14299" lon="1.9351">
        <ele>41.61</ele>
        <time>2022-09-11T11:51:42Z</time>
      </trkpt>
      <trkpt lat="49.14318" lon="1.93507">
        <ele>40.78</ele>
        <time>2022-09-11T11:51:57Z</time>
      </trkpt>
      <trkpt lat="49.14336" lon="1.93499">
        <ele>40.44</ele>
        <time>2022-09-11T11:52:17Z</time>
      </trkpt>
      <trkpt lat="49.14364" lon="1.935">
        <ele>40.92</ele>
        <time>2022-09-11T11:52:33Z</time>
      </trkpt>
      <trkpt lat="49.14376" lon="1.93497">
        <ele>43.09</ele>
        <time>2022-09-11T11:52:48Z</time>
      </trkpt>
      <trkpt lat="49.14383" lon="1.93493">
        <ele>43.84</ele>
        <time>2022-09-11T11:52:59Z</time>
      </trkpt>
      <trkpt lat="49.14388" lon="1.93489">
        <ele>43.85</ele>
        <time>2022-09-11T11:53:06Z</time>
      </trkpt>
      <trkpt lat="49.144" lon="1.93492">
        <ele>43.97</ele>
        <time>2022-09-11T11:53:22Z</time>
      </trkpt>
      <trkpt lat="49.14425" lon="1.9349">
        <ele>43.72</ele>
        <time>2022-09-11T11:53:37Z</time>
      </trkpt>
      <trkpt lat="49.14435" lon="1.93487">
        <ele>42.98</ele>
        <time>2022-09-11T11:53:48Z</time>
      </trkpt>
      <trkpt lat="49.14449" lon="1.93487">
        <ele>43.09</ele>
        <time>2022-09-11T11:54:07Z</time>
      </trkpt>
      <trkpt lat="49.14471" lon="1.93487">
        <ele>43.2</ele>
        <time>2022-09-11T11:54:23Z</time>
      </trkpt>
      <trkpt lat="49.14485" lon="1.93479">
        <ele>42.93</ele>
        <time>2022-09-11T11:54:34Z</time>
      </trkpt>
      <trkpt lat="49.14512" lon="1.93477">
        <ele>41.94</ele>
        <time>2022-09-11T11:54:50Z</time>
      </trkpt>
      <trkpt lat="49.14517" lon="1.93475">
        <ele>42.26</ele>
        <time>2022-09-11T11:54:53Z</time>
      </trkpt>
      <trkpt lat="49.14527" lon="1.93473">
        <ele>42.04</ele>
        <time>2022-09-11T11:55:12Z</time>
      </trkpt>
      <trkpt lat="49.14535" lon="1.9348">
        <ele>41.61</ele>
        <time>2022-09-11T11:55:27Z</time>
      </trkpt>
      <trkpt lat="49.1455" lon="1.93496">
        <ele>42.45</ele>
        <time>2022-09-11T11:55:44Z</time>
      </trkpt>
      <trkpt lat="49.14561" lon="1.93509">
        <ele>44.52</ele>
        <time>2022-09-11T11:56:01Z</time>
      </trkpt>
      <trkpt lat="49.14572" lon="1.93519">
        <ele>44.72</ele>
        <time>2022-09-11T11:56:17Z</time>
      </trkpt>
      <trkpt lat="49.14586" lon="1.93534">
        <ele>43.35</ele>
        <time>2022-09-11T11:56:35Z</time>
      </trkpt>
      <trkpt lat="49.14601" lon="1.9354">
        <ele>42.54</ele>
        <time>2022-09-11T11:56:49Z</time>
      </trkpt>
      <trkpt lat="49.14617" lon="1.93545">
        <ele>41.2</ele>
        <time>2022-09-11T11:57:05Z</time>
      </trkpt>
      <trkpt lat="49.14625" lon="1.93552">
        <ele>40.81</ele>
        <time>2022-09-11T11:57:14Z</time>
      </trkpt>
      <trkpt lat="49.14632" lon="1.93555">
        <ele>40.46</ele>
        <time>2022-09-11T11:57:21Z</time>
      </trkpt>
      <trkpt lat="49.14635" lon="1.93557">
        <ele>40.36</ele>
        <time>2022-09-11T11:57:24Z</time>
      </trkpt>
      <trkpt lat="49.14643" lon="1.93575">
        <ele>40.69</ele>
        <time>2022-09-11T11:57:30Z</time>
      </trkpt>
      <trkpt lat="49.14649" lon="1.93589">
        <ele>40.21</ele>
        <time>2022-09-11T11:57:42Z</time>
      </trkpt>
      <trkpt lat="49.1465" lon="1.93602">
        <ele>40.16</ele>
        <time>2022-09-11T11:57:47Z</time>
      </trkpt>
      <trkpt lat="49.14661" lon="1.93619">
        <ele>39.36</ele>
        <time>2022-09-11T11:58:00Z</time>
      </trkpt>
      <trkpt lat="49.14665" lon="1.93635">
        <ele>39.05</ele>
        <time>2022-09-11T11:58:13Z</time>
      </trkpt>
      <trkpt lat="49.14666" lon="1.93639">
        <ele>39.05</ele>
        <time>2022-09-11T11:58:25Z</time>
      </trkpt>
      <trkpt lat="49.14669" lon="1.93651">
        <ele>39.2</ele>
        <time>2022-09-11T11:58:35Z</time>
      </trkpt>
      <trkpt lat="49.14672" lon="1.93664">
        <ele>39.36</ele>
        <time>2022-09-11T11:58:46Z</time>
      </trkpt>
      <trkpt lat="49.14677" lon="1.93663">
        <ele>39.5</ele>
        <time>2022-09-11T11:58:56Z</time>
      </trkpt>
      <trkpt lat="49.14681" lon="1.93662">
        <ele>38.67</ele>
        <time>2022-09-11T11:59:05Z</time>
      </trkpt>
      <trkpt lat="49.1468" lon="1.93661">
        <ele>39.02</ele>
        <time>2022-09-11T11:59:21Z</time>
      </trkpt>
      <trkpt lat="49.14677" lon="1.93664">
        <ele>39.44</ele>
        <time>2022-09-11T11:59:38Z</time>
      </trkpt>
      <trkpt lat="49.1467" lon="1.9367">
        <ele>39.76</ele>
        <time>2022-09-11T11:59:55Z</time>
      </trkpt>
      <trkpt lat="49.14665" lon="1.93674">
        <ele>39.81</ele>
        <time>2022-09-11T12:00:12Z</time>
      </trkpt>
      <trkpt lat="49.14665" lon="1.93679">
        <ele>40.12</ele>
        <time>2022-09-11T12:00:26Z</time>
      </trkpt>
      <trkpt lat="49.14662" lon="1.9368">
        <ele>40.28</ele>
        <time>2022-09-11T12:00:37Z</time>
      </trkpt>
      <trkpt lat="49.14668" lon="1.93678">
        <ele>40.42</ele>
        <time>2022-09-11T12:00:46Z</time>
      </trkpt>
      <trkpt lat="49.14667" lon="1.93679">
        <ele>40.3</ele>
        <time>2022-09-11T12:01:01Z</time>
      </trkpt>
      <trkpt lat="49.14665" lon="1.93677">
        <ele>40.19</ele>
        <time>2022-09-11T12:01:18Z</time>
      </trkpt>
      <trkpt lat="49.14664" lon="1.93675">
        <ele>40.65</ele>
        <time>2022-09-11T12:01:37Z</time>
      </trkpt>
      <trkpt lat="49.14663" lon="1.93675">
        <ele>40.65</ele>
        <time>2022-09-11T12:01:42Z</time>
      </trkpt>
      <trkpt lat="49.14662" lon="1.93677">
        <ele>40.81</ele>
        <time>2022-09-11T12:01:51Z</time>
      </trkpt>
      <trkpt lat="49.14661" lon="1.93677">
        <ele>41.27</ele>
        <time>2022-09-11T12:02:02Z</time>
      </trkpt>
      <trkpt lat="49.1467" lon="1.93672">
        <ele>41.38</ele>
        <time>2022-09-11T12:02:19Z</time>
      </trkpt>
      <trkpt lat="49.14666" lon="1.93676">
        <ele>41.24</ele>
        <time>2022-09-11T12:02:38Z</time>
      </trkpt>
      <trkpt lat="49.14672" lon="1.93677">
        <ele>41.42</ele>
        <time>2022-09-11T12:02:58Z</time>
      </trkpt>
      <trkpt lat="49.14667" lon="1.93679">
        <ele>40.88</ele>
        <time>2022-09-11T12:03:12Z</time>
      </trkpt>
      <trkpt lat="49.14665" lon="1.93678">
        <ele>41.39</ele>
        <time>2022-09-11T12:03:29Z</time>
      </trkpt>
      <trkpt lat="49.14664" lon="1.93682">
        <ele>41.61</ele>
        <time>2022-09-11T12:03:54Z</time>
      </trkpt>
      <trkpt lat="49.14663" lon="1.93686">
        <ele>41.55</ele>
        <time>2022-09-11T12:04:14Z</time>
      </trkpt>
      <trkpt lat="49.14661" lon="1.93696">
        <ele>41.61</ele>
        <time>2022-09-11T12:04:30Z</time>
      </trkpt>
      <trkpt lat="49.14659" lon="1.9371">
        <ele>41.64</ele>
        <time>2022-09-11T12:04:44Z</time>
      </trkpt>
      <trkpt lat="49.14659" lon="1.93711">
        <ele>41.67</ele>
        <time>2022-09-11T12:04:45Z</time>
      </trkpt>
      <trkpt lat="49.14657" lon="1.93712">
        <ele>41.83</ele>
        <time>2022-09-11T12:05:03Z</time>
      </trkpt>
      <trkpt lat="49.14654" lon="1.93722">
        <ele>41.26</ele>
        <time>2022-09-11T12:05:16Z</time>
      </trkpt>
      <trkpt lat="49.1465" lon="1.93727">
        <ele>40.91</ele>
        <time>2022-09-11T12:05:30Z</time>
      </trkpt>
      <trkpt lat="49.14645" lon="1.93743">
        <ele>41.3</ele>
        <time>2022-09-11T12:05:47Z</time>
      </trkpt>
      <trkpt lat="49.14637" lon="1.9376">
        <ele>41.24</ele>
        <time>2022-09-11T12:06:01Z</time>
      </trkpt>
      <trkpt lat="49.14628" lon="1.93776">
        <ele>41.18</ele>
        <time>2022-09-11T12:06:16Z</time>
      </trkpt>
      <trkpt lat="49.14621" lon="1.93794">
        <ele>40.95</ele>
        <time>2022-09-11T12:06:26Z</time>
      </trkpt>
      <trkpt lat="49.14617" lon="1.93805">
        <ele>41.42</ele>
        <time>2022-09-11T12:06:37Z</time>
      </trkpt>
      <trkpt lat="49.1462" lon="1.93813">
        <ele>41.3</ele>
        <time>2022-09-11T12:06:48Z</time>
      </trkpt>
      <trkpt lat="49.14622" lon="1.93817">
        <ele>41.58</ele>
        <time>2022-09-11T12:06:51Z</time>
      </trkpt>
      <trkpt lat="49.14622" lon="1.93834">
        <ele>41.31</ele>
        <time>2022-09-11T12:07:04Z</time>
      </trkpt>
      <trkpt lat="49.14621" lon="1.93845">
        <ele>42.23</ele>
        <time>2022-09-11T12:07:18Z</time>
      </trkpt>
      <trkpt lat="49.14623" lon="1.93864">
        <ele>43.21</ele>
        <time>2022-09-11T12:07:33Z</time>
      </trkpt>
      <trkpt lat="49.14624" lon="1.93881">
        <ele>43.76</ele>
        <time>2022-09-11T12:07:45Z</time>
      </trkpt>
      <trkpt lat="49.14624" lon="1.93883">
        <ele>43.87</ele>
        <time>2022-09-11T12:07:46Z</time>
      </trkpt>
      <trkpt lat="49.14623" lon="1.93888">
        <ele>43.57</ele>
        <time>2022-09-11T12:07:48Z</time>
      </trkpt>
      <trkpt lat="49.14623" lon="1.9389">
        <ele>43.48</ele>
        <time>2022-09-11T12:07:49Z</time>
      </trkpt>
      <trkpt lat="49.14623" lon="1.93892">
        <ele>43.64</ele>
        <time>2022-09-11T12:07:50Z</time>
      </trkpt>
      <trkpt lat="49.14623" lon="1.93895">
        <ele>43.73</ele>
        <time>2022-09-11T12:07:51Z</time>
      </trkpt>
      <trkpt lat="49.14623" lon="1.93898">
        <ele>43.33</ele>
        <time>2022-09-11T12:07:52Z</time>
      </trkpt>
      <trkpt lat="49.14623" lon="1.93913">
        <ele>43.24</ele>
        <time>2022-09-11T12:08:00Z</time>
      </trkpt>
      <trkpt lat="49.14624" lon="1.93915">
        <ele>43.38</ele>
        <time>2022-09-11T12:08:01Z</time>
      </trkpt>
      <trkpt lat="49.14625" lon="1.93918">
        <ele>43.44</ele>
        <time>2022-09-11T12:08:03Z</time>
      </trkpt>
      <trkpt lat="49.14625" lon="1.9392">
        <ele>43.86</ele>
        <time>2022-09-11T12:08:04Z</time>
      </trkpt>
      <trkpt lat="49.14629" lon="1.93938">
        <ele>43.31</ele>
        <time>2022-09-11T12:08:15Z</time>
      </trkpt>
      <trkpt lat="49.14635" lon="1.93957">
        <ele>44.22</ele>
        <time>2022-09-11T12:08:29Z</time>
      </trkpt>
      <trkpt lat="49.14637" lon="1.93968">
        <ele>43.77</ele>
        <time>2022-09-11T12:08:41Z</time>
      </trkpt>
      <trkpt lat="49.14639" lon="1.93972">
        <ele>44.7</ele>
        <time>2022-09-11T12:08:57Z</time>
      </trkpt>
      <trkpt lat="49.1464" lon="1.93981">
        <ele>45.45</ele>
        <time>2022-09-11T12:09:03Z</time>
      </trkpt>
      <trkpt lat="49.1464" lon="1.93985">
        <ele>44.94</ele>
        <time>2022-09-11T12:09:06Z</time>
      </trkpt>
      <trkpt lat="49.14641" lon="1.93995">
        <ele>45.54</ele>
        <time>2022-09-11T12:09:12Z</time>
      </trkpt>
      <trkpt lat="49.14641" lon="1.93997">
        <ele>45.76</ele>
        <time>2022-09-11T12:09:13Z</time>
      </trkpt>
      <trkpt lat="49.14642" lon="1.93998">
        <ele>45.73</ele>
        <time>2022-09-11T12:09:14Z</time>
      </trkpt>
      <trkpt lat="49.14644" lon="1.94015">
        <ele>46.61</ele>
        <time>2022-09-11T12:09:27Z</time>
      </trkpt>
      <trkpt lat="49.14651" lon="1.9403">
        <ele>48.21</ele>
        <time>2022-09-11T12:09:40Z</time>
      </trkpt>
      <trkpt lat="49.14651" lon="1.94046">
        <ele>49.56</ele>
        <time>2022-09-11T12:09:54Z</time>
      </trkpt>
      <trkpt lat="49.14649" lon="1.94076">
        <ele>50.76</ele>
        <time>2022-09-11T12:10:09Z</time>
      </trkpt>
      <trkpt lat="49.14658" lon="1.94096">
        <ele>52</ele>
        <time>2022-09-11T12:10:26Z</time>
      </trkpt>
      <trkpt lat="49.14651" lon="1.94136">
        <ele>53.37</ele>
        <time>2022-09-11T12:10:39Z</time>
      </trkpt>
      <trkpt lat="49.14656" lon="1.94149">
        <ele>54.31</ele>
        <time>2022-09-11T12:10:54Z</time>
      </trkpt>
      <trkpt lat="49.1466" lon="1.94168">
        <ele>55.49</ele>
        <time>2022-09-11T12:11:09Z</time>
      </trkpt>
      <trkpt lat="49.14661" lon="1.94193">
        <ele>56.98</ele>
        <time>2022-09-11T12:11:27Z</time>
      </trkpt>
      <trkpt lat="49.14664" lon="1.94208">
        <ele>57.59</ele>
        <time>2022-09-11T12:11:40Z</time>
      </trkpt>
      <trkpt lat="49.1466" lon="1.94218">
        <ele>57.56</ele>
        <time>2022-09-11T12:11:44Z</time>
      </trkpt>
      <trkpt lat="49.1466" lon="1.94232">
        <ele>56.38</ele>
        <time>2022-09-11T12:12:00Z</time>
      </trkpt>
      <trkpt lat="49.14662" lon="1.94236">
        <ele>57.03</ele>
        <time>2022-09-11T12:12:18Z</time>
      </trkpt>
      <trkpt lat="49.14656" lon="1.94233">
        <ele>57.01</ele>
        <time>2022-09-11T12:12:32Z</time>
      </trkpt>
      <trkpt lat="49.14657" lon="1.94242">
        <ele>57.91</ele>
        <time>2022-09-11T12:12:45Z</time>
      </trkpt>
      <trkpt lat="49.14666" lon="1.94257">
        <ele>59.05</ele>
        <time>2022-09-11T12:13:01Z</time>
      </trkpt>
      <trkpt lat="49.14683" lon="1.9427">
        <ele>60.15</ele>
        <time>2022-09-11T12:13:16Z</time>
      </trkpt>
      <trkpt lat="49.14694" lon="1.9429">
        <ele>60.61</ele>
        <time>2022-09-11T12:13:30Z</time>
      </trkpt>
      <trkpt lat="49.14695" lon="1.94292">
        <ele>60.61</ele>
        <time>2022-09-11T12:13:31Z</time>
      </trkpt>
      <trkpt lat="49.14696" lon="1.94294">
        <ele>60.6</ele>
        <time>2022-09-11T12:13:32Z</time>
      </trkpt>
      <trkpt lat="49.14697" lon="1.94295">
        <ele>60.59</ele>
        <time>2022-09-11T12:13:33Z</time>
      </trkpt>
      <trkpt lat="49.14699" lon="1.94297">
        <ele>60.62</ele>
        <time>2022-09-11T12:13:34Z</time>
      </trkpt>
      <trkpt lat="49.14709" lon="1.94305">
        <ele>61.48</ele>
        <time>2022-09-11T12:13:44Z</time>
      </trkpt>
      <trkpt lat="49.14719" lon="1.9432">
        <ele>62.5</ele>
        <time>2022-09-11T12:13:59Z</time>
      </trkpt>
      <trkpt lat="49.14728" lon="1.94325">
        <ele>62.56</ele>
        <time>2022-09-11T12:14:08Z</time>
      </trkpt>
      <trkpt lat="49.14736" lon="1.94343">
        <ele>63.35</ele>
        <time>2022-09-11T12:14:24Z</time>
      </trkpt>
      <trkpt lat="49.14749" lon="1.94361">
        <ele>65.41</ele>
        <time>2022-09-11T12:14:41Z</time>
      </trkpt>
      <trkpt lat="49.1476" lon="1.94377">
        <ele>65.92</ele>
        <time>2022-09-11T12:14:57Z</time>
      </trkpt>
      <trkpt lat="49.14772" lon="1.94388">
        <ele>67.56</ele>
        <time>2022-09-11T12:15:09Z</time>
      </trkpt>
      <trkpt lat="49.14773" lon="1.94389">
        <ele>67.63</ele>
        <time>2022-09-11T12:15:10Z</time>
      </trkpt>
      <trkpt lat="49.14776" lon="1.94395">
        <ele>67.74</ele>
        <time>2022-09-11T12:15:14Z</time>
      </trkpt>
      <trkpt lat="49.14777" lon="1.94397">
        <ele>68.16</ele>
        <time>2022-09-11T12:15:15Z</time>
      </trkpt>
      <trkpt lat="49.14777" lon="1.94399">
        <ele>67.77</ele>
        <time>2022-09-11T12:15:16Z</time>
      </trkpt>
      <trkpt lat="49.14787" lon="1.94418">
        <ele>69.34</ele>
        <time>2022-09-11T12:15:29Z</time>
      </trkpt>
      <trkpt lat="49.1479" lon="1.94425">
        <ele>68.61</ele>
        <time>2022-09-11T12:15:34Z</time>
      </trkpt>
      <trkpt lat="49.14792" lon="1.94429">
        <ele>69.12</ele>
        <time>2022-09-11T12:15:37Z</time>
      </trkpt>
      <trkpt lat="49.14793" lon="1.9443">
        <ele>69</ele>
        <time>2022-09-11T12:15:38Z</time>
      </trkpt>
      <trkpt lat="49.14797" lon="1.94436">
        <ele>69.05</ele>
        <time>2022-09-11T12:15:43Z</time>
      </trkpt>
      <trkpt lat="49.14799" lon="1.94442">
        <ele>69.36</ele>
        <time>2022-09-11T12:15:47Z</time>
      </trkpt>
      <trkpt lat="49.148" lon="1.94443">
        <ele>69.48</ele>
        <time>2022-09-11T12:15:48Z</time>
      </trkpt>
      <trkpt lat="49.14801" lon="1.94445">
        <ele>69.87</ele>
        <time>2022-09-11T12:15:49Z</time>
      </trkpt>
      <trkpt lat="49.14801" lon="1.94446">
        <ele>69.54</ele>
        <time>2022-09-11T12:15:50Z</time>
      </trkpt>
      <trkpt lat="49.14803" lon="1.94448">
        <ele>69.85</ele>
        <time>2022-09-11T12:15:52Z</time>
      </trkpt>
      <trkpt lat="49.14804" lon="1.94449">
        <ele>69.81</ele>
        <time>2022-09-11T12:15:53Z</time>
      </trkpt>
      <trkpt lat="49.14809" lon="1.94461">
        <ele>70.11</ele>
        <time>2022-09-11T12:16:02Z</time>
      </trkpt>
      <trkpt lat="49.14817" lon="1.94475">
        <ele>70.79</ele>
        <time>2022-09-11T12:16:13Z</time>
      </trkpt>
      <trkpt lat="49.14818" lon="1.94477">
        <ele>71.08</ele>
        <time>2022-09-11T12:16:15Z</time>
      </trkpt>
      <trkpt lat="49.14825" lon="1.94491">
        <ele>71.67</ele>
        <time>2022-09-11T12:16:25Z</time>
      </trkpt>
      <trkpt lat="49.14826" lon="1.94492">
        <ele>71.29</ele>
        <time>2022-09-11T12:16:26Z</time>
      </trkpt>
      <trkpt lat="49.14833" lon="1.94508">
        <ele>71.56</ele>
        <time>2022-09-11T12:16:38Z</time>
      </trkpt>
      <trkpt lat="49.14833" lon="1.94509">
        <ele>71.65</ele>
        <time>2022-09-11T12:16:39Z</time>
      </trkpt>
      <trkpt lat="49.14834" lon="1.94511">
        <ele>71.67</ele>
        <time>2022-09-11T12:16:40Z</time>
      </trkpt>
      <trkpt lat="49.14835" lon="1.94511">
        <ele>71.8</ele>
        <time>2022-09-11T12:16:41Z</time>
      </trkpt>
      <trkpt lat="49.14837" lon="1.9452">
        <ele>71.85</ele>
        <time>2022-09-11T12:16:47Z</time>
      </trkpt>
      <trkpt lat="49.14845" lon="1.94535">
        <ele>72.43</ele>
        <time>2022-09-11T12:16:59Z</time>
      </trkpt>
      <trkpt lat="49.14852" lon="1.94548">
        <ele>71.8</ele>
        <time>2022-09-11T12:17:09Z</time>
      </trkpt>
      <trkpt lat="49.14853" lon="1.94551">
        <ele>71.67</ele>
        <time>2022-09-11T12:17:11Z</time>
      </trkpt>
      <trkpt lat="49.14854" lon="1.94552">
        <ele>71.92</ele>
        <time>2022-09-11T12:17:12Z</time>
      </trkpt>
      <trkpt lat="49.14855" lon="1.94553">
        <ele>71.93</ele>
        <time>2022-09-11T12:17:13Z</time>
      </trkpt>
      <trkpt lat="49.14857" lon="1.94557">
        <ele>71.74</ele>
        <time>2022-09-11T12:17:16Z</time>
      </trkpt>
      <trkpt lat="49.14859" lon="1.94559">
        <ele>71.74</ele>
        <time>2022-09-11T12:17:18Z</time>
      </trkpt>
      <trkpt lat="49.14866" lon="1.94571">
        <ele>71.83</ele>
        <time>2022-09-11T12:17:28Z</time>
      </trkpt>
      <trkpt lat="49.14873" lon="1.94583">
        <ele>72.86</ele>
        <time>2022-09-11T12:17:39Z</time>
      </trkpt>
      <trkpt lat="49.14882" lon="1.94593">
        <ele>72.4</ele>
        <time>2022-09-11T12:17:49Z</time>
      </trkpt>
      <trkpt lat="49.14891" lon="1.946">
        <ele>73.11</ele>
        <time>2022-09-11T12:17:59Z</time>
      </trkpt>
      <trkpt lat="49.14905" lon="1.94615">
        <ele>72.66</ele>
        <time>2022-09-11T12:18:14Z</time>
      </trkpt>
      <trkpt lat="49.14906" lon="1.94616">
        <ele>73.01</ele>
        <time>2022-09-11T12:18:15Z</time>
      </trkpt>
      <trkpt lat="49.14915" lon="1.94624">
        <ele>72.82</ele>
        <time>2022-09-11T12:18:25Z</time>
      </trkpt>
      <trkpt lat="49.14925" lon="1.94631">
        <ele>72.85</ele>
        <time>2022-09-11T12:18:34Z</time>
      </trkpt>
      <trkpt lat="49.14926" lon="1.94632">
        <ele>72.85</ele>
        <time>2022-09-11T12:18:35Z</time>
      </trkpt>
      <trkpt lat="49.14936" lon="1.94638">
        <ele>72.39</ele>
        <time>2022-09-11T12:18:45Z</time>
      </trkpt>
      <trkpt lat="49.14937" lon="1.9464">
        <ele>72.62</ele>
        <time>2022-09-11T12:18:46Z</time>
      </trkpt>
      <trkpt lat="49.14938" lon="1.94641">
        <ele>72.76</ele>
        <time>2022-09-11T12:18:47Z</time>
      </trkpt>
      <trkpt lat="49.14954" lon="1.94651">
        <ele>72.76</ele>
        <time>2022-09-11T12:19:00Z</time>
      </trkpt>
      <trkpt lat="49.14956" lon="1.94651">
        <ele>73</ele>
        <time>2022-09-11T12:19:01Z</time>
      </trkpt>
      <trkpt lat="49.14957" lon="1.94652">
        <ele>73</ele>
        <time>2022-09-11T12:19:02Z</time>
      </trkpt>
      <trkpt lat="49.14958" lon="1.94653">
        <ele>72.88</ele>
        <time>2022-09-11T12:19:03Z</time>
      </trkpt>
      <trkpt lat="49.14959" lon="1.94654">
        <ele>73.07</ele>
        <time>2022-09-11T12:19:04Z</time>
      </trkpt>
      <trkpt lat="49.1496" lon="1.94654">
        <ele>72.24</ele>
        <time>2022-09-11T12:19:05Z</time>
      </trkpt>
      <trkpt lat="49.14967" lon="1.94663">
        <ele>72.48</ele>
        <time>2022-09-11T12:19:13Z</time>
      </trkpt>
      <trkpt lat="49.14972" lon="1.9467">
        <ele>72.31</ele>
        <time>2022-09-11T12:19:21Z</time>
      </trkpt>
      <trkpt lat="49.14974" lon="1.94676">
        <ele>72.72</ele>
        <time>2022-09-11T12:19:29Z</time>
      </trkpt>
      <trkpt lat="49.14972" lon="1.94696">
        <ele>72.62</ele>
        <time>2022-09-11T12:19:44Z</time>
      </trkpt>
      <trkpt lat="49.14971" lon="1.94713">
        <ele>73.56</ele>
        <time>2022-09-11T12:19:56Z</time>
      </trkpt>
      <trkpt lat="49.14969" lon="1.94731">
        <ele>73.61</ele>
        <time>2022-09-11T12:20:08Z</time>
      </trkpt>
      <trkpt lat="49.14969" lon="1.94736">
        <ele>74.16</ele>
        <time>2022-09-11T12:20:11Z</time>
      </trkpt>
      <trkpt lat="49.14969" lon="1.94738">
        <ele>73.81</ele>
        <time>2022-09-11T12:20:12Z</time>
      </trkpt>
      <trkpt lat="49.14969" lon="1.9474">
        <ele>73.71</ele>
        <time>2022-09-11T12:20:13Z</time>
      </trkpt>
      <trkpt lat="49.14969" lon="1.94742">
        <ele>73.46</ele>
        <time>2022-09-11T12:20:14Z</time>
      </trkpt>
      <trkpt lat="49.14969" lon="1.94743">
        <ele>73.27</ele>
        <time>2022-09-11T12:20:15Z</time>
      </trkpt>
      <trkpt lat="49.14967" lon="1.94752">
        <ele>74.04</ele>
        <time>2022-09-11T12:20:20Z</time>
      </trkpt>
      <trkpt lat="49.14967" lon="1.94754">
        <ele>74.42</ele>
        <time>2022-09-11T12:20:21Z</time>
      </trkpt>
      <trkpt lat="49.14967" lon="1.94755">
        <ele>74.51</ele>
        <time>2022-09-11T12:20:22Z</time>
      </trkpt>
      <trkpt lat="49.14966" lon="1.94774">
        <ele>74.57</ele>
        <time>2022-09-11T12:20:33Z</time>
      </trkpt>
      <trkpt lat="49.14964" lon="1.94797">
        <ele>74.58</ele>
        <time>2022-09-11T12:20:46Z</time>
      </trkpt>
      <trkpt lat="49.1496" lon="1.9482">
        <ele>75.05</ele>
        <time>2022-09-11T12:20:58Z</time>
      </trkpt>
      <trkpt lat="49.14959" lon="1.94835">
        <ele>75.4</ele>
        <time>2022-09-11T12:21:07Z</time>
      </trkpt>
      <trkpt lat="49.14956" lon="1.94852">
        <ele>75.38</ele>
        <time>2022-09-11T12:21:16Z</time>
      </trkpt>
      <trkpt lat="49.14956" lon="1.94858">
        <ele>75.54</ele>
        <time>2022-09-11T12:21:20Z</time>
      </trkpt>
      <trkpt lat="49.14955" lon="1.94862">
        <ele>75.66</ele>
        <time>2022-09-11T12:21:22Z</time>
      </trkpt>
      <trkpt lat="49.14953" lon="1.94878">
        <ele>76.16</ele>
        <time>2022-09-11T12:21:31Z</time>
      </trkpt>
      <trkpt lat="49.14951" lon="1.94886">
        <ele>76.11</ele>
        <time>2022-09-11T12:21:41Z</time>
      </trkpt>
      <trkpt lat="49.1495" lon="1.94894">
        <ele>76.06</ele>
        <time>2022-09-11T12:21:57Z</time>
      </trkpt>
      <trkpt lat="49.14949" lon="1.9491">
        <ele>76.36</ele>
        <time>2022-09-11T12:22:12Z</time>
      </trkpt>
      <trkpt lat="49.14949" lon="1.94922">
        <ele>76.63</ele>
        <time>2022-09-11T12:22:23Z</time>
      </trkpt>
      <trkpt lat="49.14948" lon="1.94938">
        <ele>77.08</ele>
        <time>2022-09-11T12:22:38Z</time>
      </trkpt>
      <trkpt lat="49.14946" lon="1.94953">
        <ele>77.29</ele>
        <time>2022-09-11T12:22:52Z</time>
      </trkpt>
      <trkpt lat="49.14945" lon="1.94956">
        <ele>77.23</ele>
        <time>2022-09-11T12:23:08Z</time>
      </trkpt>
      <trkpt lat="49.14944" lon="1.94956">
        <ele>77.43</ele>
        <time>2022-09-11T12:23:26Z</time>
      </trkpt>
      <trkpt lat="49.14944" lon="1.94956">
        <ele>77.07</ele>
        <time>2022-09-11T12:23:48Z</time>
      </trkpt>
      <trkpt lat="49.14943" lon="1.94966">
        <ele>77.66</ele>
        <time>2022-09-11T12:24:03Z</time>
      </trkpt>
      <trkpt lat="49.14942" lon="1.94984">
        <ele>78.15</ele>
        <time>2022-09-11T12:24:15Z</time>
      </trkpt>
      <trkpt lat="49.1494" lon="1.95001">
        <ele>77.69</ele>
        <time>2022-09-11T12:24:28Z</time>
      </trkpt>
      <trkpt lat="49.14937" lon="1.95021">
        <ele>78.21</ele>
        <time>2022-09-11T12:24:38Z</time>
      </trkpt>
      <trkpt lat="49.14935" lon="1.95045">
        <ele>79</ele>
        <time>2022-09-11T12:24:54Z</time>
      </trkpt>
      <trkpt lat="49.14936" lon="1.95062">
        <ele>79.52</ele>
        <time>2022-09-11T12:25:05Z</time>
      </trkpt>
      <trkpt lat="49.14938" lon="1.9507">
        <ele>80.08</ele>
        <time>2022-09-11T12:25:11Z</time>
      </trkpt>
      <trkpt lat="49.14939" lon="1.95072">
        <ele>79.89</ele>
        <time>2022-09-11T12:25:12Z</time>
      </trkpt>
      <trkpt lat="49.14939" lon="1.95074">
        <ele>80.22</ele>
        <time>2022-09-11T12:25:13Z</time>
      </trkpt>
      <trkpt lat="49.14944" lon="1.95086">
        <ele>80.15</ele>
        <time>2022-09-11T12:25:21Z</time>
      </trkpt>
      <trkpt lat="49.14945" lon="1.95087">
        <ele>80.01</ele>
        <time>2022-09-11T12:25:22Z</time>
      </trkpt>
      <trkpt lat="49.14956" lon="1.95093">
        <ele>80.5</ele>
        <time>2022-09-11T12:25:34Z</time>
      </trkpt>
      <trkpt lat="49.14965" lon="1.95095">
        <ele>80.36</ele>
        <time>2022-09-11T12:25:46Z</time>
      </trkpt>
      <trkpt lat="49.14983" lon="1.95101">
        <ele>80.31</ele>
        <time>2022-09-11T12:26:03Z</time>
      </trkpt>
      <trkpt lat="49.15" lon="1.95103">
        <ele>80.56</ele>
        <time>2022-09-11T12:26:18Z</time>
      </trkpt>
      <trkpt lat="49.15016" lon="1.95109">
        <ele>80.13</ele>
        <time>2022-09-11T12:26:34Z</time>
      </trkpt>
      <trkpt lat="49.15032" lon="1.95119">
        <ele>80.01</ele>
        <time>2022-09-11T12:26:51Z</time>
      </trkpt>
      <trkpt lat="49.15049" lon="1.95134">
        <ele>79.83</ele>
        <time>2022-09-11T12:27:10Z</time>
      </trkpt>
      <trkpt lat="49.15065" lon="1.95147">
        <ele>79.84</ele>
        <time>2022-09-11T12:27:28Z</time>
      </trkpt>
      <trkpt lat="49.15079" lon="1.95161">
        <ele>79.27</ele>
        <time>2022-09-11T12:27:45Z</time>
      </trkpt>
      <trkpt lat="49.15098" lon="1.95176">
        <ele>80.1</ele>
        <time>2022-09-11T12:27:58Z</time>
      </trkpt>
      <trkpt lat="49.15109" lon="1.95184">
        <ele>79.52</ele>
        <time>2022-09-11T12:28:11Z</time>
      </trkpt>
      <trkpt lat="49.15119" lon="1.95194">
        <ele>79.6</ele>
        <time>2022-09-11T12:28:20Z</time>
      </trkpt>
      <trkpt lat="49.15122" lon="1.95196">
        <ele>79.58</ele>
        <time>2022-09-11T12:28:22Z</time>
      </trkpt>
      <trkpt lat="49.15133" lon="1.95204">
        <ele>79.69</ele>
        <time>2022-09-11T12:28:30Z</time>
      </trkpt>
      <trkpt lat="49.15149" lon="1.95214">
        <ele>79.42</ele>
        <time>2022-09-11T12:28:43Z</time>
      </trkpt>
      <trkpt lat="49.15159" lon="1.95222">
        <ele>79.74</ele>
        <time>2022-09-11T12:28:56Z</time>
      </trkpt>
      <trkpt lat="49.15173" lon="1.95236">
        <ele>79.83</ele>
        <time>2022-09-11T12:29:08Z</time>
      </trkpt>
      <trkpt lat="49.15185" lon="1.95246">
        <ele>79.83</ele>
        <time>2022-09-11T12:29:18Z</time>
      </trkpt>
      <trkpt lat="49.15197" lon="1.95261">
        <ele>79.27</ele>
        <time>2022-09-11T12:29:33Z</time>
      </trkpt>
      <trkpt lat="49.15214" lon="1.95279">
        <ele>79.36</ele>
        <time>2022-09-11T12:29:51Z</time>
      </trkpt>
      <trkpt lat="49.15228" lon="1.95293">
        <ele>79.78</ele>
        <time>2022-09-11T12:30:07Z</time>
      </trkpt>
      <trkpt lat="49.15241" lon="1.9531">
        <ele>79.02</ele>
        <time>2022-09-11T12:30:23Z</time>
      </trkpt>
      <trkpt lat="49.1526" lon="1.95324">
        <ele>79.05</ele>
        <time>2022-09-11T12:30:39Z</time>
      </trkpt>
      <trkpt lat="49.15279" lon="1.95337">
        <ele>79.19</ele>
        <time>2022-09-11T12:30:55Z</time>
      </trkpt>
      <trkpt lat="49.1529" lon="1.95343">
        <ele>78.84</ele>
        <time>2022-09-11T12:31:04Z</time>
      </trkpt>
      <trkpt lat="49.15308" lon="1.95355">
        <ele>79.62</ele>
        <time>2022-09-11T12:31:21Z</time>
      </trkpt>
      <trkpt lat="49.15326" lon="1.95368">
        <ele>80.25</ele>
        <time>2022-09-11T12:31:37Z</time>
      </trkpt>
      <trkpt lat="49.15341" lon="1.95381">
        <ele>81.05</ele>
        <time>2022-09-11T12:31:53Z</time>
      </trkpt>
      <trkpt lat="49.15359" lon="1.95395">
        <ele>81.65</ele>
        <time>2022-09-11T12:32:10Z</time>
      </trkpt>
      <trkpt lat="49.15377" lon="1.95405">
        <ele>81.57</ele>
        <time>2022-09-11T12:32:26Z</time>
      </trkpt>
      <trkpt lat="49.15398" lon="1.95413">
        <ele>81.59</ele>
        <time>2022-09-11T12:32:42Z</time>
      </trkpt>
      <trkpt lat="49.15414" lon="1.9542">
        <ele>81.24</ele>
        <time>2022-09-11T12:32:55Z</time>
      </trkpt>
      <trkpt lat="49.15426" lon="1.9543">
        <ele>81.51</ele>
        <time>2022-09-11T12:33:08Z</time>
      </trkpt>
      <trkpt lat="49.15431" lon="1.95438">
        <ele>81.29</ele>
        <time>2022-09-11T12:33:14Z</time>
      </trkpt>
      <trkpt lat="49.15432" lon="1.95439">
        <ele>81.28</ele>
        <time>2022-09-11T12:33:15Z</time>
      </trkpt>
      <trkpt lat="49.15433" lon="1.9544">
        <ele>81.48</ele>
        <time>2022-09-11T12:33:16Z</time>
      </trkpt>
      <trkpt lat="49.15446" lon="1.95449">
        <ele>81.16</ele>
        <time>2022-09-11T12:33:27Z</time>
      </trkpt>
      <trkpt lat="49.15455" lon="1.9546">
        <ele>81.41</ele>
        <time>2022-09-11T12:33:39Z</time>
      </trkpt>
      <trkpt lat="49.15457" lon="1.95461">
        <ele>81.01</ele>
        <time>2022-09-11T12:33:41Z</time>
      </trkpt>
      <trkpt lat="49.15464" lon="1.95466">
        <ele>81.51</ele>
        <time>2022-09-11T12:33:51Z</time>
      </trkpt>
      <trkpt lat="49.15465" lon="1.95471">
        <ele>81.22</ele>
        <time>2022-09-11T12:34:02Z</time>
      </trkpt>
      <trkpt lat="49.15464" lon="1.95473">
        <ele>81.63</ele>
        <time>2022-09-11T12:34:16Z</time>
      </trkpt>
      <trkpt lat="49.15465" lon="1.95472">
        <ele>81.82</ele>
        <time>2022-09-11T12:34:35Z</time>
      </trkpt>
      <trkpt lat="49.15464" lon="1.95472">
        <ele>81.83</ele>
        <time>2022-09-11T12:34:55Z</time>
      </trkpt>
      <trkpt lat="49.15469" lon="1.95472">
        <ele>81.76</ele>
        <time>2022-09-11T12:35:18Z</time>
      </trkpt>
      <trkpt lat="49.15465" lon="1.95473">
        <ele>82.36</ele>
        <time>2022-09-11T12:35:40Z</time>
      </trkpt>
      <trkpt lat="49.15464" lon="1.95472">
        <ele>82.19</ele>
        <time>2022-09-11T12:35:58Z</time>
      </trkpt>
      <trkpt lat="49.15465" lon="1.95471">
        <ele>82.59</ele>
        <time>2022-09-11T12:36:18Z</time>
      </trkpt>
      <trkpt lat="49.15465" lon="1.9547">
        <ele>82.82</ele>
        <time>2022-09-11T12:36:40Z</time>
      </trkpt>
      <trkpt lat="49.15464" lon="1.95472">
        <ele>82.93</ele>
        <time>2022-09-11T12:37:00Z</time>
      </trkpt>
      <trkpt lat="49.15463" lon="1.95471">
        <ele>82.65</ele>
        <time>2022-09-11T12:37:21Z</time>
      </trkpt>
      <trkpt lat="49.15463" lon="1.95479">
        <ele>83.73</ele>
        <time>2022-09-11T12:37:40Z</time>
      </trkpt>
      <trkpt lat="49.15466" lon="1.95492">
        <ele>83.09</ele>
        <time>2022-09-11T12:37:52Z</time>
      </trkpt>
      <trkpt lat="49.15471" lon="1.95495">
        <ele>83.34</ele>
        <time>2022-09-11T12:37:57Z</time>
      </trkpt>
      <trkpt lat="49.15482" lon="1.9549">
        <ele>82.19</ele>
        <time>2022-09-11T12:38:08Z</time>
      </trkpt>
      <trkpt lat="49.15493" lon="1.95487">
        <ele>81.44</ele>
        <time>2022-09-11T12:38:19Z</time>
      </trkpt>
      <trkpt lat="49.15506" lon="1.95478">
        <ele>80.92</ele>
        <time>2022-09-11T12:38:33Z</time>
      </trkpt>
      <trkpt lat="49.15514" lon="1.95473">
        <ele>80.34</ele>
        <time>2022-09-11T12:38:51Z</time>
      </trkpt>
      <trkpt lat="49.15522" lon="1.95466">
        <ele>79.45</ele>
        <time>2022-09-11T12:39:09Z</time>
      </trkpt>
      <trkpt lat="49.15548" lon="1.95469">
        <ele>78.86</ele>
        <time>2022-09-11T12:39:24Z</time>
      </trkpt>
      <trkpt lat="49.15564" lon="1.95476">
        <ele>78.46</ele>
        <time>2022-09-11T12:39:40Z</time>
      </trkpt>
      <trkpt lat="49.1558" lon="1.95482">
        <ele>76.76</ele>
        <time>2022-09-11T12:39:55Z</time>
      </trkpt>
      <trkpt lat="49.15595" lon="1.95491">
        <ele>76.89</ele>
        <time>2022-09-11T12:40:09Z</time>
      </trkpt>
      <trkpt lat="49.15605" lon="1.95496">
        <ele>76.42</ele>
        <time>2022-09-11T12:40:22Z</time>
      </trkpt>
      <trkpt lat="49.15609" lon="1.95496">
        <ele>75.93</ele>
        <time>2022-09-11T12:40:27Z</time>
      </trkpt>
      <trkpt lat="49.15615" lon="1.95497">
        <ele>75.46</ele>
        <time>2022-09-11T12:40:33Z</time>
      </trkpt>
      <trkpt lat="49.15637" lon="1.95499">
        <ele>74.9</ele>
        <time>2022-09-11T12:40:52Z</time>
      </trkpt>
      <trkpt lat="49.15655" lon="1.95498">
        <ele>74.39</ele>
        <time>2022-09-11T12:41:04Z</time>
      </trkpt>
      <trkpt lat="49.15671" lon="1.95496">
        <ele>74.61</ele>
        <time>2022-09-11T12:41:18Z</time>
      </trkpt>
      <trkpt lat="49.15686" lon="1.95492">
        <ele>74.38</ele>
        <time>2022-09-11T12:41:34Z</time>
      </trkpt>
      <trkpt lat="49.15701" lon="1.95487">
        <ele>74.18</ele>
        <time>2022-09-11T12:41:46Z</time>
      </trkpt>
      <trkpt lat="49.15717" lon="1.95482">
        <ele>74.35</ele>
        <time>2022-09-11T12:41:55Z</time>
      </trkpt>
      <trkpt lat="49.15734" lon="1.95474">
        <ele>74.34</ele>
        <time>2022-09-11T12:42:12Z</time>
      </trkpt>
      <trkpt lat="49.15755" lon="1.95462">
        <ele>75.19</ele>
        <time>2022-09-11T12:42:31Z</time>
      </trkpt>
      <trkpt lat="49.15765" lon="1.95458">
        <ele>75.79</ele>
        <time>2022-09-11T12:42:46Z</time>
      </trkpt>
      <trkpt lat="49.15783" lon="1.95455">
        <ele>76.59</ele>
        <time>2022-09-11T12:43:05Z</time>
      </trkpt>
      <trkpt lat="49.15795" lon="1.95452">
        <ele>78.2</ele>
        <time>2022-09-11T12:43:20Z</time>
      </trkpt>
      <trkpt lat="49.15818" lon="1.95454">
        <ele>78.95</ele>
        <time>2022-09-11T12:43:38Z</time>
      </trkpt>
      <trkpt lat="49.15833" lon="1.95452">
        <ele>79.51</ele>
        <time>2022-09-11T12:43:55Z</time>
      </trkpt>
      <trkpt lat="49.15852" lon="1.95445">
        <ele>80.89</ele>
        <time>2022-09-11T12:44:12Z</time>
      </trkpt>
      <trkpt lat="49.15871" lon="1.95435">
        <ele>81.21</ele>
        <time>2022-09-11T12:44:31Z</time>
      </trkpt>
      <trkpt lat="49.15888" lon="1.95428">
        <ele>81.25</ele>
        <time>2022-09-11T12:44:48Z</time>
      </trkpt>
      <trkpt lat="49.15906" lon="1.95423">
        <ele>80.59</ele>
        <time>2022-09-11T12:45:00Z</time>
      </trkpt>
      <trkpt lat="49.15925" lon="1.95417">
        <ele>80.95</ele>
        <time>2022-09-11T12:45:14Z</time>
      </trkpt>
      <trkpt lat="49.15947" lon="1.95416">
        <ele>80.86</ele>
        <time>2022-09-11T12:45:27Z</time>
      </trkpt>
      <trkpt lat="49.15964" lon="1.95412">
        <ele>81.03</ele>
        <time>2022-09-11T12:45:40Z</time>
      </trkpt>
      <trkpt lat="49.15976" lon="1.95406">
        <ele>80.92</ele>
        <time>2022-09-11T12:45:50Z</time>
      </trkpt>
      <trkpt lat="49.15977" lon="1.95406">
        <ele>81</ele>
        <time>2022-09-11T12:45:51Z</time>
      </trkpt>
      <trkpt lat="49.15978" lon="1.95405">
        <ele>81.12</ele>
        <time>2022-09-11T12:45:52Z</time>
      </trkpt>
      <trkpt lat="49.1598" lon="1.95404">
        <ele>80.66</ele>
        <time>2022-09-11T12:45:53Z</time>
      </trkpt>
      <trkpt lat="49.15981" lon="1.95403">
        <ele>80.94</ele>
        <time>2022-09-11T12:45:54Z</time>
      </trkpt>
      <trkpt lat="49.15982" lon="1.95403">
        <ele>81.17</ele>
        <time>2022-09-11T12:45:55Z</time>
      </trkpt>
      <trkpt lat="49.15984" lon="1.95403">
        <ele>81.68</ele>
        <time>2022-09-11T12:45:56Z</time>
      </trkpt>
      <trkpt lat="49.16" lon="1.95397">
        <ele>81.7</ele>
        <time>2022-09-11T12:46:08Z</time>
      </trkpt>
      <trkpt lat="49.16016" lon="1.9539">
        <ele>81.9</ele>
        <time>2022-09-11T12:46:22Z</time>
      </trkpt>
      <trkpt lat="49.16026" lon="1.95384">
        <ele>80.8</ele>
        <time>2022-09-11T12:46:33Z</time>
      </trkpt>
      <trkpt lat="49.16038" lon="1.95379">
        <ele>81.81</ele>
        <time>2022-09-11T12:46:44Z</time>
      </trkpt>
      <trkpt lat="49.16048" lon="1.95375">
        <ele>82.02</ele>
        <time>2022-09-11T12:46:55Z</time>
      </trkpt>
      <trkpt lat="49.16062" lon="1.95369">
        <ele>82.3</ele>
        <time>2022-09-11T12:47:08Z</time>
      </trkpt>
      <trkpt lat="49.16076" lon="1.95362">
        <ele>82.76</ele>
        <time>2022-09-11T12:47:21Z</time>
      </trkpt>
      <trkpt lat="49.16085" lon="1.95357">
        <ele>82.54</ele>
        <time>2022-09-11T12:47:32Z</time>
      </trkpt>
      <trkpt lat="49.16091" lon="1.95354">
        <ele>82.54</ele>
        <time>2022-09-11T12:47:48Z</time>
      </trkpt>
      <trkpt lat="49.161" lon="1.95352">
        <ele>82.85</ele>
        <time>2022-09-11T12:47:55Z</time>
      </trkpt>
      <trkpt lat="49.16101" lon="1.95352">
        <ele>83.47</ele>
        <time>2022-09-11T12:47:56Z</time>
      </trkpt>
      <trkpt lat="49.16116" lon="1.95347">
        <ele>82.91</ele>
        <time>2022-09-11T12:48:09Z</time>
      </trkpt>
      <trkpt lat="49.16135" lon="1.95341">
        <ele>83.03</ele>
        <time>2022-09-11T12:48:24Z</time>
      </trkpt>
      <trkpt lat="49.1615" lon="1.95336">
        <ele>83.07</ele>
        <time>2022-09-11T12:48:38Z</time>
      </trkpt>
      <trkpt lat="49.16163" lon="1.95331">
        <ele>83.93</ele>
        <time>2022-09-11T12:48:50Z</time>
      </trkpt>
      <trkpt lat="49.16179" lon="1.95323">
        <ele>84.83</ele>
        <time>2022-09-11T12:49:04Z</time>
      </trkpt>
      <trkpt lat="49.16192" lon="1.95318">
        <ele>85.52</ele>
        <time>2022-09-11T12:49:16Z</time>
      </trkpt>
      <trkpt lat="49.16204" lon="1.95314">
        <ele>85.26</ele>
        <time>2022-09-11T12:49:27Z</time>
      </trkpt>
      <trkpt lat="49.16206" lon="1.95313">
        <ele>85.37</ele>
        <time>2022-09-11T12:49:28Z</time>
      </trkpt>
      <trkpt lat="49.16213" lon="1.9531">
        <ele>85.76</ele>
        <time>2022-09-11T12:49:36Z</time>
      </trkpt>
      <trkpt lat="49.16224" lon="1.95305">
        <ele>85.54</ele>
        <time>2022-09-11T12:49:46Z</time>
      </trkpt>
      <trkpt lat="49.1623" lon="1.95303">
        <ele>86.44</ele>
        <time>2022-09-11T12:49:52Z</time>
      </trkpt>
      <trkpt lat="49.16231" lon="1.95303">
        <ele>86.52</ele>
        <time>2022-09-11T12:49:53Z</time>
      </trkpt>
      <trkpt lat="49.16232" lon="1.95303">
        <ele>86.44</ele>
        <time>2022-09-11T12:49:54Z</time>
      </trkpt>
      <trkpt lat="49.16234" lon="1.95302">
        <ele>86.65</ele>
        <time>2022-09-11T12:49:55Z</time>
      </trkpt>
      <trkpt lat="49.16244" lon="1.953">
        <ele>86.69</ele>
        <time>2022-09-11T12:50:05Z</time>
      </trkpt>
      <trkpt lat="49.16245" lon="1.95301">
        <ele>87.55</ele>
        <time>2022-09-11T12:50:06Z</time>
      </trkpt>
      <trkpt lat="49.16255" lon="1.95299">
        <ele>87.51</ele>
        <time>2022-09-11T12:50:18Z</time>
      </trkpt>
      <trkpt lat="49.16266" lon="1.95298">
        <ele>87.67</ele>
        <time>2022-09-11T12:50:30Z</time>
      </trkpt>
      <trkpt lat="49.16272" lon="1.95299">
        <ele>88.53</ele>
        <time>2022-09-11T12:50:42Z</time>
      </trkpt>
      <trkpt lat="49.16276" lon="1.95294">
        <ele>87.99</ele>
        <time>2022-09-11T12:51:00Z</time>
      </trkpt>
      <trkpt lat="49.16277" lon="1.95293">
        <ele>88.38</ele>
        <time>2022-09-11T12:51:21Z</time>
      </trkpt>
      <trkpt lat="49.16276" lon="1.95291">
        <ele>88.16</ele>
        <time>2022-09-11T12:51:42Z</time>
      </trkpt>
      <trkpt lat="49.16278" lon="1.95292">
        <ele>88.03</ele>
        <time>2022-09-11T12:52:05Z</time>
      </trkpt>
      <trkpt lat="49.1628" lon="1.95293">
        <ele>88.63</ele>
        <time>2022-09-11T12:52:25Z</time>
      </trkpt>
      <trkpt lat="49.1628" lon="1.95293">
        <ele>88.57</ele>
        <time>2022-09-11T12:52:47Z</time>
      </trkpt>
      <trkpt lat="49.16279" lon="1.95295">
        <ele>88.47</ele>
        <time>2022-09-11T12:53:09Z</time>
      </trkpt>
      <trkpt lat="49.16279" lon="1.95294">
        <ele>88.72</ele>
        <time>2022-09-11T12:53:23Z</time>
      </trkpt>
      <trkpt lat="49.16279" lon="1.95292">
        <ele>88.75</ele>
        <time>2022-09-11T12:53:45Z</time>
      </trkpt>
      <trkpt lat="49.16279" lon="1.95293">
        <ele>89.11</ele>
        <time>2022-09-11T12:54:05Z</time>
      </trkpt>
      <trkpt lat="49.16279" lon="1.95293">
        <ele>88.47</ele>
        <time>2022-09-11T12:54:20Z</time>
      </trkpt>
      <trkpt lat="49.16278" lon="1.95292">
        <ele>88.89</ele>
        <time>2022-09-11T12:54:44Z</time>
      </trkpt>
      <trkpt lat="49.16279" lon="1.95291">
        <ele>89.28</ele>
        <time>2022-09-11T12:55:05Z</time>
      </trkpt>
      <trkpt lat="49.16279" lon="1.95292">
        <ele>89.27</ele>
        <time>2022-09-11T12:55:25Z</time>
      </trkpt>
      <trkpt lat="49.16277" lon="1.95292">
        <ele>89.61</ele>
        <time>2022-09-11T12:55:44Z</time>
      </trkpt>
      <trkpt lat="49.1628" lon="1.95292">
        <ele>90.4</ele>
        <time>2022-09-11T12:55:59Z</time>
      </trkpt>
      <trkpt lat="49.16284" lon="1.95292">
        <ele>89.42</ele>
        <time>2022-09-11T12:56:06Z</time>
      </trkpt>
      <trkpt lat="49.16292" lon="1.95296">
        <ele>89.84</ele>
        <time>2022-09-11T12:56:18Z</time>
      </trkpt>
      <trkpt lat="49.16302" lon="1.95296">
        <ele>89.89</ele>
        <time>2022-09-11T12:56:28Z</time>
      </trkpt>
      <trkpt lat="49.16319" lon="1.95296">
        <ele>89.59</ele>
        <time>2022-09-11T12:56:41Z</time>
      </trkpt>
      <trkpt lat="49.16332" lon="1.95296">
        <ele>89.4</ele>
        <time>2022-09-11T12:56:52Z</time>
      </trkpt>
      <trkpt lat="49.16338" lon="1.95295">
        <ele>89.34</ele>
        <time>2022-09-11T12:56:58Z</time>
      </trkpt>
      <trkpt lat="49.16339" lon="1.95295">
        <ele>89.15</ele>
        <time>2022-09-11T12:56:59Z</time>
      </trkpt>
      <trkpt lat="49.1635" lon="1.95294">
        <ele>88.42</ele>
        <time>2022-09-11T12:57:10Z</time>
      </trkpt>
      <trkpt lat="49.1636" lon="1.95293">
        <ele>88.77</ele>
        <time>2022-09-11T12:57:20Z</time>
      </trkpt>
      <trkpt lat="49.16372" lon="1.95292">
        <ele>88.2</ele>
        <time>2022-09-11T12:57:31Z</time>
      </trkpt>
      <trkpt lat="49.16383" lon="1.95293">
        <ele>88.17</ele>
        <time>2022-09-11T12:57:42Z</time>
      </trkpt>
      <trkpt lat="49.16397" lon="1.95295">
        <ele>88.22</ele>
        <time>2022-09-11T12:57:56Z</time>
      </trkpt>
      <trkpt lat="49.16414" lon="1.95296">
        <ele>87.96</ele>
        <time>2022-09-11T12:58:10Z</time>
      </trkpt>
      <trkpt lat="49.16418" lon="1.95295">
        <ele>87.59</ele>
        <time>2022-09-11T12:58:14Z</time>
      </trkpt>
      <trkpt lat="49.1642" lon="1.95294">
        <ele>86.99</ele>
        <time>2022-09-11T12:58:16Z</time>
      </trkpt>
      <trkpt lat="49.16421" lon="1.95294">
        <ele>87.13</ele>
        <time>2022-09-11T12:58:17Z</time>
      </trkpt>
      <trkpt lat="49.16437" lon="1.95291">
        <ele>87.62</ele>
        <time>2022-09-11T12:58:30Z</time>
      </trkpt>
      <trkpt lat="49.16451" lon="1.95289">
        <ele>87.86</ele>
        <time>2022-09-11T12:58:42Z</time>
      </trkpt>
      <trkpt lat="49.1646" lon="1.95287">
        <ele>87.86</ele>
        <time>2022-09-11T12:58:49Z</time>
      </trkpt>
      <trkpt lat="49.16473" lon="1.95281">
        <ele>87.77</ele>
        <time>2022-09-11T12:59:00Z</time>
      </trkpt>
      <trkpt lat="49.16486" lon="1.95278">
        <ele>88.1</ele>
        <time>2022-09-11T12:59:11Z</time>
      </trkpt>
      <trkpt lat="49.16502" lon="1.95276">
        <ele>87.98</ele>
        <time>2022-09-11T12:59:24Z</time>
      </trkpt>
      <trkpt lat="49.16515" lon="1.95274">
        <ele>88.06</ele>
        <time>2022-09-11T12:59:36Z</time>
      </trkpt>
      <trkpt lat="49.16526" lon="1.95275">
        <ele>88.41</ele>
        <time>2022-09-11T12:59:45Z</time>
      </trkpt>
      <trkpt lat="49.16535" lon="1.95274">
        <ele>88.61</ele>
        <time>2022-09-11T12:59:51Z</time>
      </trkpt>
      <trkpt lat="49.16536" lon="1.95274">
        <ele>88.61</ele>
        <time>2022-09-11T12:59:52Z</time>
      </trkpt>
      <trkpt lat="49.16541" lon="1.95273">
        <ele>88.97</ele>
        <time>2022-09-11T13:00:01Z</time>
      </trkpt>
      <trkpt lat="49.16552" lon="1.95274">
        <ele>89.03</ele>
        <time>2022-09-11T13:00:13Z</time>
      </trkpt>
      <trkpt lat="49.16558" lon="1.95273">
        <ele>89.8</ele>
        <time>2022-09-11T13:00:24Z</time>
      </trkpt>
      <trkpt lat="49.16557" lon="1.95272">
        <ele>89.8</ele>
        <time>2022-09-11T13:00:26Z</time>
      </trkpt>
      <trkpt lat="49.16551" lon="1.95268">
        <ele>89.67</ele>
        <time>2022-09-11T13:00:33Z</time>
      </trkpt>
      <trkpt lat="49.16551" lon="1.95267">
        <ele>89.67</ele>
        <time>2022-09-11T13:00:34Z</time>
      </trkpt>
      <trkpt lat="49.1655" lon="1.95266">
        <ele>89.67</ele>
        <time>2022-09-11T13:00:35Z</time>
      </trkpt>
      <trkpt lat="49.1655" lon="1.95266">
        <ele>89.67</ele>
        <time>2022-09-11T13:00:36Z</time>
      </trkpt>
      <trkpt lat="49.16548" lon="1.95261">
        <ele>89.1</ele>
        <time>2022-09-11T13:00:46Z</time>
      </trkpt>
      <trkpt lat="49.16546" lon="1.95252">
        <ele>88.56</ele>
        <time>2022-09-11T13:00:59Z</time>
      </trkpt>
      <trkpt lat="49.16543" lon="1.95242">
        <ele>88.51</ele>
        <time>2022-09-11T13:01:11Z</time>
      </trkpt>
      <trkpt lat="49.16537" lon="1.95218">
        <ele>88.41</ele>
        <time>2022-09-11T13:01:26Z</time>
      </trkpt>
      <trkpt lat="49.1653" lon="1.95195">
        <ele>87.42</ele>
        <time>2022-09-11T13:01:41Z</time>
      </trkpt>
      <trkpt lat="49.16525" lon="1.95176">
        <ele>87.6</ele>
        <time>2022-09-11T13:01:53Z</time>
      </trkpt>
      <trkpt lat="49.16518" lon="1.95153">
        <ele>87.32</ele>
        <time>2022-09-11T13:02:07Z</time>
      </trkpt>
      <trkpt lat="49.16515" lon="1.95143">
        <ele>87.3</ele>
        <time>2022-09-11T13:02:13Z</time>
      </trkpt>
      <trkpt lat="49.16515" lon="1.95141">
        <ele>87.23</ele>
        <time>2022-09-11T13:02:14Z</time>
      </trkpt>
      <trkpt lat="49.16514" lon="1.95139">
        <ele>87.59</ele>
        <time>2022-09-11T13:02:15Z</time>
      </trkpt>
      <trkpt lat="49.16514" lon="1.95138">
        <ele>87.6</ele>
        <time>2022-09-11T13:02:16Z</time>
      </trkpt>
      <trkpt lat="49.16514" lon="1.95136">
        <ele>87.61</ele>
        <time>2022-09-11T13:02:17Z</time>
      </trkpt>
      <trkpt lat="49.1651" lon="1.9512">
        <ele>86.96</ele>
        <time>2022-09-11T13:02:28Z</time>
      </trkpt>
      <trkpt lat="49.16505" lon="1.95102">
        <ele>87.13</ele>
        <time>2022-09-11T13:02:40Z</time>
      </trkpt>
      <trkpt lat="49.16499" lon="1.95081">
        <ele>86.29</ele>
        <time>2022-09-11T13:02:53Z</time>
      </trkpt>
      <trkpt lat="49.16494" lon="1.95066">
        <ele>86.77</ele>
        <time>2022-09-11T13:03:03Z</time>
      </trkpt>
      <trkpt lat="49.16493" lon="1.95063">
        <ele>86.5</ele>
        <time>2022-09-11T13:03:05Z</time>
      </trkpt>
      <trkpt lat="49.16489" lon="1.95048">
        <ele>86.61</ele>
        <time>2022-09-11T13:03:16Z</time>
      </trkpt>
      <trkpt lat="49.16487" lon="1.95034">
        <ele>86.75</ele>
        <time>2022-09-11T13:03:25Z</time>
      </trkpt>
      <trkpt lat="49.16486" lon="1.95019">
        <ele>86</ele>
        <time>2022-09-11T13:03:34Z</time>
      </trkpt>
      <trkpt lat="49.16482" lon="1.95">
        <ele>86.41</ele>
        <time>2022-09-11T13:03:46Z</time>
      </trkpt>
      <trkpt lat="49.1648" lon="1.94984">
        <ele>85.82</ele>
        <time>2022-09-11T13:03:57Z</time>
      </trkpt>
      <trkpt lat="49.1648" lon="1.94982">
        <ele>85.95</ele>
        <time>2022-09-11T13:03:58Z</time>
      </trkpt>
      <trkpt lat="49.16477" lon="1.94961">
        <ele>86.6</ele>
        <time>2022-09-11T13:04:10Z</time>
      </trkpt>
      <trkpt lat="49.16477" lon="1.94959">
        <ele>86.6</ele>
        <time>2022-09-11T13:04:11Z</time>
      </trkpt>
      <trkpt lat="49.16477" lon="1.94957">
        <ele>86.6</ele>
        <time>2022-09-11T13:04:12Z</time>
      </trkpt>
      <trkpt lat="49.16477" lon="1.94955">
        <ele>86.6</ele>
        <time>2022-09-11T13:04:13Z</time>
      </trkpt>
      <trkpt lat="49.16472" lon="1.94939">
        <ele>85.43</ele>
        <time>2022-09-11T13:04:24Z</time>
      </trkpt>
      <trkpt lat="49.16467" lon="1.94922">
        <ele>85.4</ele>
        <time>2022-09-11T13:04:35Z</time>
      </trkpt>
      <trkpt lat="49.16464" lon="1.94909">
        <ele>85.03</ele>
        <time>2022-09-11T13:04:42Z</time>
      </trkpt>
      <trkpt lat="49.16463" lon="1.94908">
        <ele>85.04</ele>
        <time>2022-09-11T13:04:43Z</time>
      </trkpt>
      <trkpt lat="49.16462" lon="1.94906">
        <ele>84.91</ele>
        <time>2022-09-11T13:04:44Z</time>
      </trkpt>
      <trkpt lat="49.16456" lon="1.94882">
        <ele>84.46</ele>
        <time>2022-09-11T13:04:57Z</time>
      </trkpt>
      <trkpt lat="49.1645" lon="1.94859">
        <ele>84.26</ele>
        <time>2022-09-11T13:05:09Z</time>
      </trkpt>
      <trkpt lat="49.16444" lon="1.94841">
        <ele>83.57</ele>
        <time>2022-09-11T13:05:20Z</time>
      </trkpt>
      <trkpt lat="49.16444" lon="1.94839">
        <ele>83.58</ele>
        <time>2022-09-11T13:05:21Z</time>
      </trkpt>
      <trkpt lat="49.16438" lon="1.94823">
        <ele>84.14</ele>
        <time>2022-09-11T13:05:32Z</time>
      </trkpt>
      <trkpt lat="49.16432" lon="1.94796">
        <ele>82.98</ele>
        <time>2022-09-11T13:05:49Z</time>
      </trkpt>
      <trkpt lat="49.16425" lon="1.94773">
        <ele>82.14</ele>
        <time>2022-09-11T13:06:03Z</time>
      </trkpt>
      <trkpt lat="49.16425" lon="1.94771">
        <ele>82.08</ele>
        <time>2022-09-11T13:06:04Z</time>
      </trkpt>
      <trkpt lat="49.16425" lon="1.94769">
        <ele>82.1</ele>
        <time>2022-09-11T13:06:05Z</time>
      </trkpt>
      <trkpt lat="49.16424" lon="1.94767">
        <ele>82.29</ele>
        <time>2022-09-11T13:06:06Z</time>
      </trkpt>
      <trkpt lat="49.16421" lon="1.94751">
        <ele>82.48</ele>
        <time>2022-09-11T13:06:17Z</time>
      </trkpt>
      <trkpt lat="49.1642" lon="1.94741">
        <ele>81.72</ele>
        <time>2022-09-11T13:06:33Z</time>
      </trkpt>
      <trkpt lat="49.16419" lon="1.94741">
        <ele>81.37</ele>
        <time>2022-09-11T13:06:54Z</time>
      </trkpt>
      <trkpt lat="49.16419" lon="1.94738">
        <ele>82.21</ele>
        <time>2022-09-11T13:07:18Z</time>
      </trkpt>
      <trkpt lat="49.16417" lon="1.94737">
        <ele>81.91</ele>
        <time>2022-09-11T13:07:37Z</time>
      </trkpt>
      <trkpt lat="49.16416" lon="1.94736">
        <ele>82.16</ele>
        <time>2022-09-11T13:07:58Z</time>
      </trkpt>
      <trkpt lat="49.16418" lon="1.94735">
        <ele>82.22</ele>
        <time>2022-09-11T13:08:14Z</time>
      </trkpt>
      <trkpt lat="49.1642" lon="1.94732">
        <ele>82.58</ele>
        <time>2022-09-11T13:08:35Z</time>
      </trkpt>
      <trkpt lat="49.16418" lon="1.94713">
        <ele>81.83</ele>
        <time>2022-09-11T13:08:48Z</time>
      </trkpt>
      <trkpt lat="49.1642" lon="1.94707">
        <ele>82.22</ele>
        <time>2022-09-11T13:08:54Z</time>
      </trkpt>
      <trkpt lat="49.16421" lon="1.94705">
        <ele>81.8</ele>
        <time>2022-09-11T13:08:55Z</time>
      </trkpt>
      <trkpt lat="49.16421" lon="1.94704">
        <ele>81.48</ele>
        <time>2022-09-11T13:08:56Z</time>
      </trkpt>
      <trkpt lat="49.16422" lon="1.94702">
        <ele>81.77</ele>
        <time>2022-09-11T13:08:57Z</time>
      </trkpt>
      <trkpt lat="49.16422" lon="1.94701">
        <ele>81.88</ele>
        <time>2022-09-11T13:08:58Z</time>
      </trkpt>
      <trkpt lat="49.16428" lon="1.94683">
        <ele>82.14</ele>
        <time>2022-09-11T13:09:09Z</time>
      </trkpt>
      <trkpt lat="49.16433" lon="1.94668">
        <ele>82.39</ele>
        <time>2022-09-11T13:09:19Z</time>
      </trkpt>
      <trkpt lat="49.16434" lon="1.94666">
        <ele>82.25</ele>
        <time>2022-09-11T13:09:20Z</time>
      </trkpt>
      <trkpt lat="49.16434" lon="1.94664">
        <ele>82.3</ele>
        <time>2022-09-11T13:09:21Z</time>
      </trkpt>
      <trkpt lat="49.16435" lon="1.94663">
        <ele>82.45</ele>
        <time>2022-09-11T13:09:22Z</time>
      </trkpt>
      <trkpt lat="49.16438" lon="1.94655">
        <ele>81.75</ele>
        <time>2022-09-11T13:09:28Z</time>
      </trkpt>
      <trkpt lat="49.16438" lon="1.94653">
        <ele>81.8</ele>
        <time>2022-09-11T13:09:29Z</time>
      </trkpt>
      <trkpt lat="49.16445" lon="1.94644">
        <ele>81.82</ele>
        <time>2022-09-11T13:09:38Z</time>
      </trkpt>
      <trkpt lat="49.1645" lon="1.94627">
        <ele>82.4</ele>
        <time>2022-09-11T13:09:49Z</time>
      </trkpt>
      <trkpt lat="49.16456" lon="1.94611">
        <ele>82.03</ele>
        <time>2022-09-11T13:10:00Z</time>
      </trkpt>
      <trkpt lat="49.16461" lon="1.94601">
        <ele>82.02</ele>
        <time>2022-09-11T13:10:07Z</time>
      </trkpt>
      <trkpt lat="49.16461" lon="1.94599">
        <ele>81.98</ele>
        <time>2022-09-11T13:10:08Z</time>
      </trkpt>
      <trkpt lat="49.16461" lon="1.94597">
        <ele>82.05</ele>
        <time>2022-09-11T13:10:09Z</time>
      </trkpt>
      <trkpt lat="49.16462" lon="1.94596">
        <ele>81.96</ele>
        <time>2022-09-11T13:10:10Z</time>
      </trkpt>
      <trkpt lat="49.16463" lon="1.94594">
        <ele>82.04</ele>
        <time>2022-09-11T13:10:11Z</time>
      </trkpt>
      <trkpt lat="49.16464" lon="1.94593">
        <ele>81.81</ele>
        <time>2022-09-11T13:10:12Z</time>
      </trkpt>
      <trkpt lat="49.16465" lon="1.94589">
        <ele>81.57</ele>
        <time>2022-09-11T13:10:15Z</time>
      </trkpt>
      <trkpt lat="49.16465" lon="1.94587">
        <ele>81.78</ele>
        <time>2022-09-11T13:10:16Z</time>
      </trkpt>
      <trkpt lat="49.1647" lon="1.94576">
        <ele>81.82</ele>
        <time>2022-09-11T13:10:25Z</time>
      </trkpt>
      <trkpt lat="49.16471" lon="1.94574">
        <ele>81.4</ele>
        <time>2022-09-11T13:10:26Z</time>
      </trkpt>
      <trkpt lat="49.16471" lon="1.94572">
        <ele>81.64</ele>
        <time>2022-09-11T13:10:27Z</time>
      </trkpt>
      <trkpt lat="49.16472" lon="1.9457">
        <ele>81.79</ele>
        <time>2022-09-11T13:10:28Z</time>
      </trkpt>
      <trkpt lat="49.16472" lon="1.94568">
        <ele>81.71</ele>
        <time>2022-09-11T13:10:29Z</time>
      </trkpt>
      <trkpt lat="49.16473" lon="1.94567">
        <ele>81.53</ele>
        <time>2022-09-11T13:10:30Z</time>
      </trkpt>
      <trkpt lat="49.16474" lon="1.94565">
        <ele>81.29</ele>
        <time>2022-09-11T13:10:31Z</time>
      </trkpt>
      <trkpt lat="49.1648" lon="1.94545">
        <ele>80.75</ele>
        <time>2022-09-11T13:10:42Z</time>
      </trkpt>
      <trkpt lat="49.16486" lon="1.94524">
        <ele>80.73</ele>
        <time>2022-09-11T13:10:53Z</time>
      </trkpt>
      <trkpt lat="49.16495" lon="1.94507">
        <ele>80.51</ele>
        <time>2022-09-11T13:11:04Z</time>
      </trkpt>
      <trkpt lat="49.16502" lon="1.94485">
        <ele>79.95</ele>
        <time>2022-09-11T13:11:16Z</time>
      </trkpt>
      <trkpt lat="49.16512" lon="1.94455">
        <ele>79.57</ele>
        <time>2022-09-11T13:11:34Z</time>
      </trkpt>
      <trkpt lat="49.16523" lon="1.94422">
        <ele>79.13</ele>
        <time>2022-09-11T13:11:54Z</time>
      </trkpt>
      <trkpt lat="49.16533" lon="1.94394">
        <ele>78.96</ele>
        <time>2022-09-11T13:12:12Z</time>
      </trkpt>
      <trkpt lat="49.16534" lon="1.94392">
        <ele>78.39</ele>
        <time>2022-09-11T13:12:14Z</time>
      </trkpt>
      <trkpt lat="49.16535" lon="1.9439">
        <ele>78.94</ele>
        <time>2022-09-11T13:12:15Z</time>
      </trkpt>
      <trkpt lat="49.16535" lon="1.94389">
        <ele>79.32</ele>
        <time>2022-09-11T13:12:16Z</time>
      </trkpt>
      <trkpt lat="49.16545" lon="1.9436">
        <ele>78.74</ele>
        <time>2022-09-11T13:12:34Z</time>
      </trkpt>
      <trkpt lat="49.16553" lon="1.94336">
        <ele>77.67</ele>
        <time>2022-09-11T13:12:51Z</time>
      </trkpt>
      <trkpt lat="49.16552" lon="1.94334">
        <ele>77.71</ele>
        <time>2022-09-11T13:12:52Z</time>
      </trkpt>
      <trkpt lat="49.16552" lon="1.94332">
        <ele>77.85</ele>
        <time>2022-09-11T13:12:53Z</time>
      </trkpt>
      <trkpt lat="49.16544" lon="1.94316">
        <ele>77.51</ele>
        <time>2022-09-11T13:13:07Z</time>
      </trkpt>
      <trkpt lat="49.16535" lon="1.94301">
        <ele>76.96</ele>
        <time>2022-09-11T13:13:19Z</time>
      </trkpt>
      <trkpt lat="49.16526" lon="1.94287">
        <ele>76.53</ele>
        <time>2022-09-11T13:13:31Z</time>
      </trkpt>
      <trkpt lat="49.16525" lon="1.94285">
        <ele>76.43</ele>
        <time>2022-09-11T13:13:34Z</time>
      </trkpt>
      <trkpt lat="49.16524" lon="1.94284">
        <ele>76.52</ele>
        <time>2022-09-11T13:13:35Z</time>
      </trkpt>
      <trkpt lat="49.16523" lon="1.94282">
        <ele>76.44</ele>
        <time>2022-09-11T13:13:36Z</time>
      </trkpt>
      <trkpt lat="49.16522" lon="1.9428">
        <ele>76.43</ele>
        <time>2022-09-11T13:13:37Z</time>
      </trkpt>
      <trkpt lat="49.16522" lon="1.94279">
        <ele>76.35</ele>
        <time>2022-09-11T13:13:38Z</time>
      </trkpt>
      <trkpt lat="49.16521" lon="1.94278">
        <ele>76.07</ele>
        <time>2022-09-11T13:13:39Z</time>
      </trkpt>
      <trkpt lat="49.16512" lon="1.94265">
        <ele>75.76</ele>
        <time>2022-09-11T13:13:50Z</time>
      </trkpt>
      <trkpt lat="49.16502" lon="1.9425">
        <ele>75.84</ele>
        <time>2022-09-11T13:14:03Z</time>
      </trkpt>
      <trkpt lat="49.16491" lon="1.94236">
        <ele>75.02</ele>
        <time>2022-09-11T13:14:15Z</time>
      </trkpt>
      <trkpt lat="49.16483" lon="1.9422">
        <ele>75.27</ele>
        <time>2022-09-11T13:14:27Z</time>
      </trkpt>
      <trkpt lat="49.1647" lon="1.94198">
        <ele>74.96</ele>
        <time>2022-09-11T13:14:42Z</time>
      </trkpt>
      <trkpt lat="49.1646" lon="1.94181">
        <ele>74.76</ele>
        <time>2022-09-11T13:14:55Z</time>
      </trkpt>
      <trkpt lat="49.16453" lon="1.94167">
        <ele>75.3</ele>
        <time>2022-09-11T13:15:05Z</time>
      </trkpt>
      <trkpt lat="49.16434" lon="1.94137">
        <ele>74.36</ele>
        <time>2022-09-11T13:15:27Z</time>
      </trkpt>
      <trkpt lat="49.16415" lon="1.94105">
        <ele>74.48</ele>
        <time>2022-09-11T13:15:50Z</time>
      </trkpt>
      <trkpt lat="49.16398" lon="1.94077">
        <ele>74.46</ele>
        <time>2022-09-11T13:16:11Z</time>
      </trkpt>
      <trkpt lat="49.16397" lon="1.94069">
        <ele>74.47</ele>
        <time>2022-09-11T13:16:21Z</time>
      </trkpt>
      <trkpt lat="49.16398" lon="1.94067">
        <ele>74.65</ele>
        <time>2022-09-11T13:16:24Z</time>
      </trkpt>
      <trkpt lat="49.16399" lon="1.94059">
        <ele>74.42</ele>
        <time>2022-09-11T13:16:36Z</time>
      </trkpt>
      <trkpt lat="49.16404" lon="1.94041">
        <ele>73.8</ele>
        <time>2022-09-11T13:16:47Z</time>
      </trkpt>
      <trkpt lat="49.16407" lon="1.94021">
        <ele>73.51</ele>
        <time>2022-09-11T13:17:01Z</time>
      </trkpt>
      <trkpt lat="49.16407" lon="1.94019">
        <ele>73.28</ele>
        <time>2022-09-11T13:17:02Z</time>
      </trkpt>
      <trkpt lat="49.16409" lon="1.94">
        <ele>73.05</ele>
        <time>2022-09-11T13:17:13Z</time>
      </trkpt>
      <trkpt lat="49.16409" lon="1.93998">
        <ele>73.02</ele>
        <time>2022-09-11T13:17:14Z</time>
      </trkpt>
      <trkpt lat="49.16409" lon="1.93996">
        <ele>73.08</ele>
        <time>2022-09-11T13:17:15Z</time>
      </trkpt>
      <trkpt lat="49.16408" lon="1.93995">
        <ele>72.99</ele>
        <time>2022-09-11T13:17:16Z</time>
      </trkpt>
      <trkpt lat="49.16408" lon="1.93993">
        <ele>72.72</ele>
        <time>2022-09-11T13:17:17Z</time>
      </trkpt>
      <trkpt lat="49.16405" lon="1.93969">
        <ele>72.91</ele>
        <time>2022-09-11T13:17:31Z</time>
      </trkpt>
      <trkpt lat="49.16395" lon="1.93943">
        <ele>72.05</ele>
        <time>2022-09-11T13:17:48Z</time>
      </trkpt>
      <trkpt lat="49.16384" lon="1.93925">
        <ele>71.06</ele>
        <time>2022-09-11T13:18:02Z</time>
      </trkpt>
      <trkpt lat="49.16372" lon="1.93913">
        <ele>70.65</ele>
        <time>2022-09-11T13:18:15Z</time>
      </trkpt>
      <trkpt lat="49.16366" lon="1.9391">
        <ele>70.31</ele>
        <time>2022-09-11T13:18:25Z</time>
      </trkpt>
      <trkpt lat="49.16364" lon="1.93911">
        <ele>70.06</ele>
        <time>2022-09-11T13:18:27Z</time>
      </trkpt>
      <trkpt lat="49.16362" lon="1.93911">
        <ele>70.02</ele>
        <time>2022-09-11T13:18:28Z</time>
      </trkpt>
      <trkpt lat="49.16361" lon="1.9391">
        <ele>70.15</ele>
        <time>2022-09-11T13:18:29Z</time>
      </trkpt>
      <trkpt lat="49.1636" lon="1.9391">
        <ele>69.97</ele>
        <time>2022-09-11T13:18:30Z</time>
      </trkpt>
      <trkpt lat="49.16359" lon="1.93909">
        <ele>70.01</ele>
        <time>2022-09-11T13:18:31Z</time>
      </trkpt>
      <trkpt lat="49.16357" lon="1.93908">
        <ele>69.79</ele>
        <time>2022-09-11T13:18:32Z</time>
      </trkpt>
      <trkpt lat="49.16351" lon="1.93906">
        <ele>69.79</ele>
        <time>2022-09-11T13:18:38Z</time>
      </trkpt>
      <trkpt lat="49.1635" lon="1.93905">
        <ele>69.79</ele>
        <time>2022-09-11T13:18:39Z</time>
      </trkpt>
      <trkpt lat="49.16349" lon="1.93905">
        <ele>69.65</ele>
        <time>2022-09-11T13:18:40Z</time>
      </trkpt>
      <trkpt lat="49.16348" lon="1.93904">
        <ele>69.47</ele>
        <time>2022-09-11T13:18:41Z</time>
      </trkpt>
      <trkpt lat="49.16347" lon="1.93904">
        <ele>69.36</ele>
        <time>2022-09-11T13:18:42Z</time>
      </trkpt>
      <trkpt lat="49.16345" lon="1.93903">
        <ele>69.49</ele>
        <time>2022-09-11T13:18:43Z</time>
      </trkpt>
      <trkpt lat="49.16326" lon="1.93903">
        <ele>68.46</ele>
        <time>2022-09-11T13:19:00Z</time>
      </trkpt>
      <trkpt lat="49.16317" lon="1.93904">
        <ele>68.28</ele>
        <time>2022-09-11T13:19:07Z</time>
      </trkpt>
      <trkpt lat="49.16303" lon="1.93908">
        <ele>67.51</ele>
        <time>2022-09-11T13:19:20Z</time>
      </trkpt>
      <trkpt lat="49.16283" lon="1.9392">
        <ele>66.64</ele>
        <time>2022-09-11T13:19:37Z</time>
      </trkpt>
      <trkpt lat="49.16267" lon="1.93935">
        <ele>65.29</ele>
        <time>2022-09-11T13:19:53Z</time>
      </trkpt>
      <trkpt lat="49.16261" lon="1.93943">
        <ele>64.94</ele>
        <time>2022-09-11T13:20:07Z</time>
      </trkpt>
      <trkpt lat="49.16256" lon="1.93942">
        <ele>64.1</ele>
        <time>2022-09-11T13:20:20Z</time>
      </trkpt>
      <trkpt lat="49.16254" lon="1.93941">
        <ele>64.33</ele>
        <time>2022-09-11T13:20:38Z</time>
      </trkpt>
      <trkpt lat="49.16253" lon="1.93938">
        <ele>62.84</ele>
        <time>2022-09-11T13:20:52Z</time>
      </trkpt>
      <trkpt lat="49.16248" lon="1.93932">
        <ele>59.75</ele>
        <time>2022-09-11T13:21:08Z</time>
      </trkpt>
      <trkpt lat="49.16245" lon="1.93927">
        <ele>59.38</ele>
        <time>2022-09-11T13:21:23Z</time>
      </trkpt>
      <trkpt lat="49.16242" lon="1.93919">
        <ele>56.77</ele>
        <time>2022-09-11T13:21:39Z</time>
      </trkpt>
      <trkpt lat="49.16237" lon="1.9391">
        <ele>53.96</ele>
        <time>2022-09-11T13:21:51Z</time>
      </trkpt>
      <trkpt lat="49.16234" lon="1.93899">
        <ele>52.35</ele>
        <time>2022-09-11T13:21:59Z</time>
      </trkpt>
      <trkpt lat="49.16234" lon="1.93898">
        <ele>52.28</ele>
        <time>2022-09-11T13:22:00Z</time>
      </trkpt>
      <trkpt lat="49.16229" lon="1.93894">
        <ele>52.39</ele>
        <time>2022-09-11T13:22:08Z</time>
      </trkpt>
      <trkpt lat="49.16228" lon="1.93894">
        <ele>52.41</ele>
        <time>2022-09-11T13:22:09Z</time>
      </trkpt>
      <trkpt lat="49.16226" lon="1.93894">
        <ele>52.43</ele>
        <time>2022-09-11T13:22:10Z</time>
      </trkpt>
      <trkpt lat="49.16225" lon="1.93895">
        <ele>52.01</ele>
        <time>2022-09-11T13:22:11Z</time>
      </trkpt>
      <trkpt lat="49.16224" lon="1.93895">
        <ele>51.86</ele>
        <time>2022-09-11T13:22:12Z</time>
      </trkpt>
      <trkpt lat="49.16214" lon="1.93895">
        <ele>51.43</ele>
        <time>2022-09-11T13:22:22Z</time>
      </trkpt>
      <trkpt lat="49.16209" lon="1.93875">
        <ele>51.81</ele>
        <time>2022-09-11T13:22:36Z</time>
      </trkpt>
      <trkpt lat="49.16206" lon="1.93863">
        <ele>51.39</ele>
        <time>2022-09-11T13:22:43Z</time>
      </trkpt>
      <trkpt lat="49.16205" lon="1.93859">
        <ele>51.6</ele>
        <time>2022-09-11T13:22:45Z</time>
      </trkpt>
      <trkpt lat="49.16204" lon="1.93857">
        <ele>51.29</ele>
        <time>2022-09-11T13:22:46Z</time>
      </trkpt>
      <trkpt lat="49.16204" lon="1.93856">
        <ele>51.41</ele>
        <time>2022-09-11T13:22:47Z</time>
      </trkpt>
      <trkpt lat="49.16203" lon="1.93854">
        <ele>51.26</ele>
        <time>2022-09-11T13:22:48Z</time>
      </trkpt>
      <trkpt lat="49.16203" lon="1.93852">
        <ele>51.87</ele>
        <time>2022-09-11T13:22:49Z</time>
      </trkpt>
      <trkpt lat="49.16202" lon="1.9385">
        <ele>51.09</ele>
        <time>2022-09-11T13:22:50Z</time>
      </trkpt>
      <trkpt lat="49.16201" lon="1.93844">
        <ele>51.74</ele>
        <time>2022-09-11T13:22:53Z</time>
      </trkpt>
      <trkpt lat="49.162" lon="1.93842">
        <ele>51.91</ele>
        <time>2022-09-11T13:22:54Z</time>
      </trkpt>
      <trkpt lat="49.162" lon="1.9384">
        <ele>51.62</ele>
        <time>2022-09-11T13:22:55Z</time>
      </trkpt>
      <trkpt lat="49.162" lon="1.93839">
        <ele>51.63</ele>
        <time>2022-09-11T13:22:56Z</time>
      </trkpt>
      <trkpt lat="49.16199" lon="1.93837">
        <ele>51.63</ele>
        <time>2022-09-11T13:22:57Z</time>
      </trkpt>
      <trkpt lat="49.16199" lon="1.93835">
        <ele>51.63</ele>
        <time>2022-09-11T13:22:58Z</time>
      </trkpt>
      <trkpt lat="49.16198" lon="1.93833">
        <ele>51.63</ele>
        <time>2022-09-11T13:22:59Z</time>
      </trkpt>
      <trkpt lat="49.16197" lon="1.93831">
        <ele>51.63</ele>
        <time>2022-09-11T13:23:00Z</time>
      </trkpt>
      <trkpt lat="49.16197" lon="1.93829">
        <ele>51.44</ele>
        <time>2022-09-11T13:23:01Z</time>
      </trkpt>
      <trkpt lat="49.16196" lon="1.93828">
        <ele>51.51</ele>
        <time>2022-09-11T13:23:02Z</time>
      </trkpt>
      <trkpt lat="49.16195" lon="1.93826">
        <ele>51.28</ele>
        <time>2022-09-11T13:23:03Z</time>
      </trkpt>
      <trkpt lat="49.16195" lon="1.93824">
        <ele>51.31</ele>
        <time>2022-09-11T13:23:04Z</time>
      </trkpt>
      <trkpt lat="49.16192" lon="1.93808">
        <ele>51.45</ele>
        <time>2022-09-11T13:23:14Z</time>
      </trkpt>
      <trkpt lat="49.16191" lon="1.93805">
        <ele>51.01</ele>
        <time>2022-09-11T13:23:16Z</time>
      </trkpt>
      <trkpt lat="49.16191" lon="1.93803">
        <ele>51.38</ele>
        <time>2022-09-11T13:23:17Z</time>
      </trkpt>
      <trkpt lat="49.16191" lon="1.93801">
        <ele>50.95</ele>
        <time>2022-09-11T13:23:18Z</time>
      </trkpt>
      <trkpt lat="49.1619" lon="1.938">
        <ele>50.85</ele>
        <time>2022-09-11T13:23:19Z</time>
      </trkpt>
      <trkpt lat="49.16188" lon="1.93799">
        <ele>50.87</ele>
        <time>2022-09-11T13:23:20Z</time>
      </trkpt>
      <trkpt lat="49.16178" lon="1.93793">
        <ele>51.13</ele>
        <time>2022-09-11T13:23:31Z</time>
      </trkpt>
      <trkpt lat="49.16164" lon="1.93787">
        <ele>52.06</ele>
        <time>2022-09-11T13:23:44Z</time>
      </trkpt>
      <trkpt lat="49.16159" lon="1.93789">
        <ele>52.06</ele>
        <time>2022-09-11T13:23:50Z</time>
      </trkpt>
      <trkpt lat="49.16147" lon="1.93789">
        <ele>52.42</ele>
        <time>2022-09-11T13:24:02Z</time>
      </trkpt>
      <trkpt lat="49.16134" lon="1.9379">
        <ele>52.61</ele>
        <time>2022-09-11T13:24:17Z</time>
      </trkpt>
      <trkpt lat="49.16117" lon="1.93791">
        <ele>52.13</ele>
        <time>2022-09-11T13:24:33Z</time>
      </trkpt>
      <trkpt lat="49.16103" lon="1.93791">
        <ele>52.21</ele>
        <time>2022-09-11T13:24:47Z</time>
      </trkpt>
      <trkpt lat="49.16094" lon="1.93793">
        <ele>51.84</ele>
        <time>2022-09-11T13:24:58Z</time>
      </trkpt>
      <trkpt lat="49.16082" lon="1.93793">
        <ele>52.07</ele>
        <time>2022-09-11T13:25:11Z</time>
      </trkpt>
      <trkpt lat="49.16077" lon="1.93795">
        <ele>52.06</ele>
        <time>2022-09-11T13:25:22Z</time>
      </trkpt>
      <trkpt lat="49.16076" lon="1.93795">
        <ele>51.89</ele>
        <time>2022-09-11T13:25:23Z</time>
      </trkpt>
      <trkpt lat="49.16075" lon="1.93795">
        <ele>51.35</ele>
        <time>2022-09-11T13:25:24Z</time>
      </trkpt>
      <trkpt lat="49.16073" lon="1.93794">
        <ele>51.96</ele>
        <time>2022-09-11T13:25:25Z</time>
      </trkpt>
      <trkpt lat="49.16069" lon="1.93797">
        <ele>51.9</ele>
        <time>2022-09-11T13:25:33Z</time>
      </trkpt>
      <trkpt lat="49.16066" lon="1.93797">
        <ele>52.28</ele>
        <time>2022-09-11T13:25:47Z</time>
      </trkpt>
      <trkpt lat="49.16062" lon="1.93796">
        <ele>51.89</ele>
        <time>2022-09-11T13:25:58Z</time>
      </trkpt>
      <trkpt lat="49.16055" lon="1.93797">
        <ele>51.66</ele>
        <time>2022-09-11T13:26:07Z</time>
      </trkpt>
      <trkpt lat="49.16039" lon="1.93797">
        <ele>51.89</ele>
        <time>2022-09-11T13:26:21Z</time>
      </trkpt>
      <trkpt lat="49.16031" lon="1.93798">
        <ele>51.98</ele>
        <time>2022-09-11T13:26:34Z</time>
      </trkpt>
      <trkpt lat="49.16032" lon="1.93796">
        <ele>52.04</ele>
        <time>2022-09-11T13:26:50Z</time>
      </trkpt>
      <trkpt lat="49.16033" lon="1.93797">
        <ele>51.96</ele>
        <time>2022-09-11T13:27:06Z</time>
      </trkpt>
      <trkpt lat="49.16036" lon="1.93797">
        <ele>52</ele>
        <time>2022-09-11T13:27:23Z</time>
      </trkpt>
      <trkpt lat="49.16037" lon="1.93796">
        <ele>52.4</ele>
        <time>2022-09-11T13:27:46Z</time>
      </trkpt>
      <trkpt lat="49.16038" lon="1.93802">
        <ele>52.24</ele>
        <time>2022-09-11T13:28:03Z</time>
      </trkpt>
      <trkpt lat="49.16038" lon="1.93804">
        <ele>52.19</ele>
        <time>2022-09-11T13:28:04Z</time>
      </trkpt>
      <trkpt lat="49.16038" lon="1.93805">
        <ele>51.83</ele>
        <time>2022-09-11T13:28:05Z</time>
      </trkpt>
      <trkpt lat="49.16038" lon="1.93807">
        <ele>52.04</ele>
        <time>2022-09-11T13:28:06Z</time>
      </trkpt>
      <trkpt lat="49.16038" lon="1.93809">
        <ele>52.12</ele>
        <time>2022-09-11T13:28:07Z</time>
      </trkpt>
      <trkpt lat="49.16039" lon="1.9381">
        <ele>52.13</ele>
        <time>2022-09-11T13:28:08Z</time>
      </trkpt>
      <trkpt lat="49.16039" lon="1.93812">
        <ele>52.08</ele>
        <time>2022-09-11T13:28:09Z</time>
      </trkpt>
      <trkpt lat="49.1604" lon="1.93817">
        <ele>52.33</ele>
        <time>2022-09-11T13:28:13Z</time>
      </trkpt>
      <trkpt lat="49.1604" lon="1.93843">
        <ele>52.59</ele>
        <time>2022-09-11T13:28:28Z</time>
      </trkpt>
      <trkpt lat="49.16037" lon="1.93867">
        <ele>52.82</ele>
        <time>2022-09-11T13:28:44Z</time>
      </trkpt>
      <trkpt lat="49.16041" lon="1.93902">
        <ele>52.71</ele>
        <time>2022-09-11T13:29:01Z</time>
      </trkpt>
      <trkpt lat="49.16042" lon="1.93916">
        <ele>52.96</ele>
        <time>2022-09-11T13:29:15Z</time>
      </trkpt>
      <trkpt lat="49.1604" lon="1.93911">
        <ele>52.8</ele>
        <time>2022-09-11T13:29:31Z</time>
      </trkpt>
      <trkpt lat="49.16043" lon="1.93906">
        <ele>53.39</ele>
        <time>2022-09-11T13:29:48Z</time>
      </trkpt>
      <trkpt lat="49.16043" lon="1.93903">
        <ele>53.18</ele>
        <time>2022-09-11T13:30:04Z</time>
      </trkpt>
      <trkpt lat="49.16041" lon="1.93902">
        <ele>53.05</ele>
        <time>2022-09-11T13:30:22Z</time>
      </trkpt>
      <trkpt lat="49.16034" lon="1.93888">
        <ele>52.69</ele>
        <time>2022-09-11T13:30:37Z</time>
      </trkpt>
      <trkpt lat="49.16028" lon="1.93875">
        <ele>52.99</ele>
        <time>2022-09-11T13:30:51Z</time>
      </trkpt>
      <trkpt lat="49.16029" lon="1.93868">
        <ele>53.07</ele>
        <time>2022-09-11T13:31:10Z</time>
      </trkpt>
      <trkpt lat="49.1603" lon="1.93868">
        <ele>52.93</ele>
        <time>2022-09-11T13:31:24Z</time>
      </trkpt>
      <trkpt lat="49.16032" lon="1.9387">
        <ele>52.91</ele>
        <time>2022-09-11T13:31:30Z</time>
      </trkpt>
      <trkpt lat="49.16034" lon="1.93871">
        <ele>53.42</ele>
        <time>2022-09-11T13:31:56Z</time>
      </trkpt>
      <trkpt lat="49.16033" lon="1.93871">
        <ele>53.53</ele>
        <time>2022-09-11T13:32:22Z</time>
      </trkpt>
      <trkpt lat="49.16033" lon="1.93868">
        <ele>53.47</ele>
        <time>2022-09-11T13:32:44Z</time>
      </trkpt>
      <trkpt lat="49.16035" lon="1.93854">
        <ele>53.59</ele>
        <time>2022-09-11T13:32:59Z</time>
      </trkpt>
      <trkpt lat="49.16035" lon="1.93839">
        <ele>53.01</ele>
        <time>2022-09-11T13:33:12Z</time>
      </trkpt>
      <trkpt lat="49.16034" lon="1.93818">
        <ele>53.22</ele>
        <time>2022-09-11T13:33:27Z</time>
      </trkpt>
      <trkpt lat="49.16034" lon="1.93811">
        <ele>53.21</ele>
        <time>2022-09-11T13:33:31Z</time>
      </trkpt>
      <trkpt lat="49.16034" lon="1.93794">
        <ele>53.08</ele>
        <time>2022-09-11T13:33:45Z</time>
      </trkpt>
      <trkpt lat="49.16034" lon="1.93791">
        <ele>52.92</ele>
        <time>2022-09-11T13:34:00Z</time>
      </trkpt>
      <trkpt lat="49.16035" lon="1.93789">
        <ele>53.22</ele>
        <time>2022-09-11T13:34:18Z</time>
      </trkpt>
      <trkpt lat="49.16034" lon="1.9378">
        <ele>52.65</ele>
        <time>2022-09-11T13:34:26Z</time>
      </trkpt>
      <trkpt lat="49.16032" lon="1.93762">
        <ele>52.9</ele>
        <time>2022-09-11T13:34:41Z</time>
      </trkpt>
      <trkpt lat="49.16029" lon="1.93748">
        <ele>53.28</ele>
        <time>2022-09-11T13:34:54Z</time>
      </trkpt>
      <trkpt lat="49.16029" lon="1.93728">
        <ele>52.66</ele>
        <time>2022-09-11T13:35:06Z</time>
      </trkpt>
      <trkpt lat="49.16027" lon="1.93711">
        <ele>53.44</ele>
        <time>2022-09-11T13:35:21Z</time>
      </trkpt>
      <trkpt lat="49.16027" lon="1.93706">
        <ele>53.47</ele>
        <time>2022-09-11T13:35:26Z</time>
      </trkpt>
      <trkpt lat="49.16027" lon="1.93682">
        <ele>53.8</ele>
        <time>2022-09-11T13:35:40Z</time>
      </trkpt>
      <trkpt lat="49.16026" lon="1.93678">
        <ele>54.2</ele>
        <time>2022-09-11T13:35:51Z</time>
      </trkpt>
      <trkpt lat="49.16026" lon="1.93673">
        <ele>53.82</ele>
        <time>2022-09-11T13:36:11Z</time>
      </trkpt>
      <trkpt lat="49.16028" lon="1.93655">
        <ele>54.33</ele>
        <time>2022-09-11T13:36:23Z</time>
      </trkpt>
      <trkpt lat="49.16029" lon="1.93653">
        <ele>53.93</ele>
        <time>2022-09-11T13:36:25Z</time>
      </trkpt>
      <trkpt lat="49.16031" lon="1.9364">
        <ele>54.37</ele>
        <time>2022-09-11T13:36:32Z</time>
      </trkpt>
      <trkpt lat="49.16036" lon="1.93638">
        <ele>53.88</ele>
        <time>2022-09-11T13:36:36Z</time>
      </trkpt>
      <trkpt lat="49.16044" lon="1.93639">
        <ele>53.58</ele>
        <time>2022-09-11T13:36:45Z</time>
      </trkpt>
      <trkpt lat="49.16047" lon="1.93639">
        <ele>53.89</ele>
        <time>2022-09-11T13:36:48Z</time>
      </trkpt>
      <trkpt lat="49.1606" lon="1.93632">
        <ele>53.19</ele>
        <time>2022-09-11T13:37:02Z</time>
      </trkpt>
      <trkpt lat="49.16072" lon="1.93616">
        <ele>53.62</ele>
        <time>2022-09-11T13:37:15Z</time>
      </trkpt>
      <trkpt lat="49.16074" lon="1.93615">
        <ele>53.98</ele>
        <time>2022-09-11T13:37:17Z</time>
      </trkpt>
      <trkpt lat="49.1608" lon="1.93616">
        <ele>53.97</ele>
        <time>2022-09-11T13:37:29Z</time>
      </trkpt>
      <trkpt lat="49.16085" lon="1.9362">
        <ele>53.54</ele>
        <time>2022-09-11T13:37:48Z</time>
      </trkpt>
      <trkpt lat="49.16085" lon="1.93619">
        <ele>53.59</ele>
        <time>2022-09-11T13:38:07Z</time>
      </trkpt>
      <trkpt lat="49.1609" lon="1.9362">
        <ele>53.4</ele>
        <time>2022-09-11T13:38:29Z</time>
      </trkpt>
      <trkpt lat="49.16093" lon="1.93621">
        <ele>53.66</ele>
        <time>2022-09-11T13:38:50Z</time>
      </trkpt>
      <trkpt lat="49.16094" lon="1.93613">
        <ele>53.58</ele>
        <time>2022-09-11T13:39:14Z</time>
      </trkpt>
      <trkpt lat="49.16094" lon="1.93608">
        <ele>53.65</ele>
        <time>2022-09-11T13:39:32Z</time>
      </trkpt>
      <trkpt lat="49.16094" lon="1.93608">
        <ele>53.21</ele>
        <time>2022-09-11T13:39:51Z</time>
      </trkpt>
      <trkpt lat="49.16096" lon="1.93612">
        <ele>53.66</ele>
        <time>2022-09-11T13:40:10Z</time>
      </trkpt>
      <trkpt lat="49.16108" lon="1.93616">
        <ele>53.72</ele>
        <time>2022-09-11T13:40:23Z</time>
      </trkpt>
      <trkpt lat="49.16119" lon="1.9362">
        <ele>53.53</ele>
        <time>2022-09-11T13:40:32Z</time>
      </trkpt>
      <trkpt lat="49.16133" lon="1.9363">
        <ele>53.6</ele>
        <time>2022-09-11T13:40:44Z</time>
      </trkpt>
      <trkpt lat="49.16137" lon="1.93635">
        <ele>52.89</ele>
        <time>2022-09-11T13:40:49Z</time>
      </trkpt>
      <trkpt lat="49.16141" lon="1.93639">
        <ele>53.13</ele>
        <time>2022-09-11T13:40:53Z</time>
      </trkpt>
      <trkpt lat="49.1615" lon="1.93646">
        <ele>53.16</ele>
        <time>2022-09-11T13:41:02Z</time>
      </trkpt>
      <trkpt lat="49.16159" lon="1.9365">
        <ele>52.6</ele>
        <time>2022-09-11T13:41:14Z</time>
      </trkpt>
      <trkpt lat="49.16177" lon="1.93649">
        <ele>53.53</ele>
        <time>2022-09-11T13:41:30Z</time>
      </trkpt>
      <trkpt lat="49.16196" lon="1.93646">
        <ele>53.96</ele>
        <time>2022-09-11T13:41:43Z</time>
      </trkpt>
      <trkpt lat="49.16198" lon="1.93648">
        <ele>53.19</ele>
        <time>2022-09-11T13:41:45Z</time>
      </trkpt>
      <trkpt lat="49.16212" lon="1.9365">
        <ele>53.84</ele>
        <time>2022-09-11T13:41:57Z</time>
      </trkpt>
      <trkpt lat="49.16215" lon="1.93651">
        <ele>54.31</ele>
        <time>2022-09-11T13:41:59Z</time>
      </trkpt>
      <trkpt lat="49.16223" lon="1.93654">
        <ele>54.11</ele>
        <time>2022-09-11T13:42:09Z</time>
      </trkpt>
    </trkseg>
  </trk>
</gpx>